[[{"header":{"parameterUnit":"m.s-1","parameterCategory":1,"la1":31.0,"la2":29.5877,"lo1":-88.7671,"lo2":-86.6584,"dy":0.0162,"dx":0.0185,"nx":115,"ny":88,"refTime":"2024-04-18T06:00:00:Z","depth":0,"parameterNumber":2,"parameterNumberName":"U-component_of_WINDS"},"data":[0.0,0.0,0.0,0.0,0.0,0.0,0.0,0.0,0.0,0.0,0.0,0.0,0.0,0.0,0.0,0.0,0.0,0.0,0.0,0.0,0.0,0.0,0.0,0.0,0.0,0.0,0.0,0.0,0.0,0.0,0.0,0.0,0.0,0.0,0.0,0.0,0.0,0.0,0.0,0.0,0.0,0.0,0.0,0.0,0.0,0.0,0.0,0.0,0.0,0.0,0.0,0.0,0.0,0.0,0.0,0.0,0.0,0.0,0.0,0.0,0.0,0.0,0.0,0.0,0.0,0.0,0.0,0.0,0.0,0.0,0.0,0.0,0.0,0.0,0.0,0.0,0.0,0.0,0.0,0.0,0.0,0.0,0.0,0.0,0.0,0.0,0.0,0.0,0.0,0.0,0.0,0.0,0.0,0.0,0.0,0.0,0.0,0.0,0.0,0.0,0.0,0.0,0.0,0.0,0.0,0.0,0.0,0.0,0.0,0.0,0.0,0.0,0.0,0.0,0.0,0.0,0.0,0.0,0.0,0.0,0.0,0.0,0.0,0.0,0.0,0.0,0.0,0.0,0.0,0.0,0.0,0.0,0.0,0.0,0.0,0.0,0.0,0.0,0.0,0.0,0.0,0.0,0.0,0.0,0.0,0.0,0.0,0.0,0.0,0.0,0.0,0.0,0.0,0.0,0.0,0.0,0.0,0.0,0.0,0.0,0.0,0.0,0.0,0.0,0.0,0.0,0.0,0.0,0.0,0.0,0.0,0.0,0.0,0.0,0.0,0.0,0.0,0.0,0.0,0.0,0.0,0.0,0.0,0.0,0.0,0.0,0.0,0.0,0.0,0.0,0.0,0.0,0.0,0.0,0.0,0.0,0.0,0.0,0.0,0.0,0.0,0.0,0.0,0.0,0.0,0.0,0.0,0.0,0.0,0.0,0.0,0.0,0.0,0.0,0.0,0.0,0.0,0.0,0.0,0.0,0.0,0.0,0.0,0.0,0.0,0.0,0.0,0.0,0.0,0.0,0.0,0.0,0.0,0.0,0.0,0.0,0.0,0.0,0.0,0.0,0.0,0.0,0.0,0.0,0.0,0.0,0.0,0.0,0.0,0.0,0.0,0.0,0.0,0.0,0.0,0.0,0.0,0.0,0.0,0.0,0.0,0.0,0.0,0.0,0.0,0.0,0.0,0.0,0.0,0.0,0.0,0.0,0.0,0.0,0.0,0.0,0.0,0.0,0.0,0.0,0.0,0.0,0.0,0.0,0.0,0.0,0.0,0.0,0.0,0.0,0.0,0.0,0.0,0.0,0.0,0.0,0.0,0.0,0.0,0.0,0.0,0.0,0.0,0.0,0.0,0.0,0.0,0.0,0.0,0.0,0.0,0.0,0.0,0.0,0.0,0.0,0.0,0.0,0.0,0.0,0.0,0.0,0.0,0.0,0.0,0.0,0.0,0.0,0.0,0.0,0.0,0.0,0.0,0.0,0.0,0.0,0.0,0.0,0.0,0.0,0.0,0.0,0.0,0.0,0.0,0.0,0.0,0.0,0.0,0.0,0.0,0.0,0.0,0.0,0.0,0.0,0.0,0.0,0.0,0.0,0.0,0.0,0.0,0.0,0.0,0.0,0.0,0.0,0.0,0.0,0.0,0.0,0.0,0.0,0.0,0.0,0.0,0.0,0.0,0.0,0.0,0.0,0.0,0.0,0.0,0.0,0.0,0.0,0.0,0.0,0.0,0.0,0.0,0.0,0.0,0.0,0.0,0.0,0.0,0.0,0.0,0.0,0.0,0.0,0.0,0.0,0.0,0.0,0.0,0.0,0.0,0.0,0.0,0.0,0.0,0.0,0.0,0.0,0.0,0.0,0.0,0.0,0.0,0.0,0.0,0.0,0.0,0.0,0.0,0.0,0.0,0.0,0.0,0.0,0.0,0.0,0.0,0.0,0.0,0.0,0.0,0.0,0.0,0.0,0.0,0.0,0.0,0.0,0.0,0.0,0.0,0.0,0.0,0.0,0.0,0.0,0.0,0.0,0.0,0.0,0.0,0.0,0.0,0.0,0.0,0.0,0.0,0.0,0.0,0.0,0.0,0.0,0.0,0.0,0.0,0.0,0.0,0.0,0.0,0.0,0.0,0.0,0.0,0.0,0.0,0.0,0.0,0.0,0.0,0.0,0.0,0.0,0.0,0.0,0.0,0.0,0.0,0.0,0.0,0.0,0.0,0.0,0.0,0.0,0.0,0.0,0.0,0.0,0.0,0.0,0.0,0.0,0.0,0.0,0.0,0.0,0.0,0.0,0.0,0.0,0.0,0.0,0.0,0.0,0.0,0.0,0.0,0.0,0.0,0.0,0.0,0.0,0.0,0.0,0.0,0.0,0.0,0.0,0.0,0.0,0.0,0.0,0.0,0.0,0.0,0.0,0.0,0.0,0.0,0.0,0.0,0.0,0.0,0.0,0.0,0.0,0.0,0.0,0.0,0.0,0.0,0.0,0.0,0.0,0.0,0.0,0.0,0.0,0.0,0.0,0.0,0.0,0.0,0.0,0.0,0.0,0.0,0.0,0.0,0.0,0.0,0.0,0.0,0.0,0.0,0.0,0.0,0.0,0.0,0.0,0.0,0.0,0.0,0.0,0.0,0.0,0.0,0.0,0.0,0.0,0.0,0.0,0.0,0.0,0.0,0.0,0.0,0.0,0.0,0.0,0.0,0.0,0.0,0.0,0.0,0.0,0.0,0.0,0.0,0.0,0.0,0.0,0.0,0.0,0.0,0.0,0.0,0.0,0.0,0.0,0.0,0.0,0.0,0.0,0.0,0.0,0.0,0.0,0.0,0.0,0.0,0.0,0.0,0.0,0.0,0.0,0.0,0.0,0.0,0.0,0.0,0.0,0.0,0.0,0.0,0.0,0.0,0.0,0.0,0.0,0.0,0.0,0.0,0.0,0.0,0.0,0.0,0.0,0.0,0.0,0.0,0.0,0.0,0.0,0.0,0.0,0.0,0.0,0.0,0.0,0.0,0.0,0.0,0.0,0.0,0.0,0.0,0.0,0.0,0.0,0.0,0.0,0.0,0.0,0.0,0.0,0.0,0.0,0.0,0.0,0.0,0.0,0.0,0.0,0.0,0.0,0.0,0.0,0.0,0.0,0.0,0.0,0.0,0.0,0.0,0.0,0.0,0.0,0.0,0.0,0.0,0.0,0.0,0.0,0.0,0.0,0.0,0.0,0.0,0.0,0.0,0.0,0.0,0.0,0.0,0.0,0.0,0.0,0.0,0.0,0.0,0.0,0.0,0.0,0.0,0.0,0.0,0.0,0.0,0.0,0.0,0.0,0.0,0.0,0.0,0.0,0.0,0.0,0.0,0.0,0.0,0.0,0.0,0.0,0.0,0.0,0.0,0.0,0.0,0.0,0.0,0.0,0.0,0.0,0.0,0.0,0.0,0.0,0.0,0.0,0.0,0.0,0.0,0.0,0.0,0.0,0.0,0.0,0.0,0.0,0.0,0.0,0.0,0.0,0.0,0.0,0.0,0.0,0.0,0.0,0.0,0.0,0.0,0.0,0.0,0.0,0.0,0.0,0.0,0.0,0.0,0.0,0.0,0.0,0.0,0.0,0.0,0.0,0.0,0.0,0.0,0.0,0.0,0.0,0.0,0.0,0.0,0.0,0.0,0.0,0.0,0.0,0.0,0.0,0.0,0.0,0.0,0.0,0.0,0.0,0.0,0.0,0.0,0.0,0.0,0.0,0.0,0.0,0.0,0.0,0.0,0.0,0.0,0.0,0.0,0.0,0.0,0.0,0.0,0.0,0.0,0.0,0.0,0.0,0.0,0.0,0.0,0.0,0.0,0.0,0.0,0.0,0.0,0.0,0.0,0.0,0.0,0.0,0.0,0.0,0.0,0.0,0.0,0.0,0.0,0.0,0.0,0.0,0.0,0.0,0.0,0.0,0.0,0.0,0.0,0.0,0.0,0.0,0.0,0.0,0.0,0.0,0.0,0.0,0.0,0.0,0.0,0.0,0.0,0.0,0.0,0.0,0.0,0.0,0.0,0.0,0.0,0.0,0.0,0.0,0.0,0.0,0.0,0.0,0.0,0.0,0.0,0.0,0.0,0.0,0.0,0.0,0.0,0.0,0.0,0.0,0.0,0.0,0.0,0.0,0.0,0.0,0.0,0.0,0.0,0.0,0.0,0.0,0.0,0.0,0.0,0.0,0.0,0.0,0.0,0.0,0.0,0.0,0.0,0.0,0.0,0.0,0.0,0.0,0.0,0.0,-1.4505,0.0,0.0,0.0,0.0,0.0,0.0,0.0,0.0,0.0,0.0,0.0,0.0,0.0,0.0,0.0,0.0,0.0,0.0,0.0,0.0,0.0,0.0,0.0,0.0,0.0,0.0,0.0,0.0,0.0,0.0,0.0,0.0,0.0,0.0,0.0,0.0,0.0,0.0,0.0,0.0,0.0,0.0,0.0,0.0,0.0,0.0,0.0,0.0,0.0,0.0,0.0,0.0,0.0,0.0,0.0,0.0,0.0,0.0,0.0,0.0,0.0,0.0,0.0,0.0,0.0,0.0,0.0,0.0,0.0,0.0,0.0,0.0,0.0,0.0,0.0,0.0,0.0,0.0,0.0,0.0,0.0,0.0,0.0,0.0,0.0,0.0,0.0,0.0,0.0,0.0,0.0,0.0,0.0,0.0,0.0,0.0,0.0,0.0,0.0,0.0,0.0,0.0,0.0,0.0,0.0,0.0,0.0,0.0,0.0,0.0,-1.3042,-1.4349,-1.2794,-1.2578,-1.3921,0.0,0.0,0.0,0.0,0.0,0.0,0.0,0.0,0.0,0.0,0.0,0.0,0.0,0.0,0.0,0.0,0.0,0.0,0.0,0.0,0.0,0.0,0.0,0.0,0.0,0.0,0.0,0.0,0.0,0.0,0.0,0.0,0.0,0.0,0.0,0.0,0.0,0.0,0.0,0.0,0.0,0.0,0.0,0.0,0.0,0.0,0.0,0.0,0.0,0.0,0.0,0.0,0.0,0.0,0.0,0.0,0.0,0.0,0.0,0.0,0.0,0.0,0.0,0.0,0.0,0.0,0.0,0.0,0.0,0.0,0.0,0.0,0.0,0.0,0.0,0.0,0.0,0.0,0.0,0.0,0.0,0.0,0.0,0.0,0.0,0.0,0.0,0.0,0.0,0.0,0.0,0.0,0.0,0.0,0.0,0.0,0.0,0.0,0.0,0.0,0.0,0.0,0.0,0.0,0.0,0.0,0.0,0.0,0.0,0.0,0.0,0.0,-1.2831,-1.2783,-1.4131,0.0,0.0,0.0,0.0,0.0,0.0,0.0,0.0,0.0,0.0,0.0,0.0,0.0,0.0,0.0,0.0,0.0,0.0,0.0,0.0,0.0,0.0,0.0,0.0,0.0,0.0,0.0,0.0,0.0,0.0,0.0,0.0,0.0,0.0,0.0,0.0,0.0,0.0,0.0,0.0,0.0,0.0,0.0,0.0,0.0,0.0,0.0,0.0,0.0,0.0,0.0,0.0,0.0,0.0,0.0,0.0,0.0,0.0,0.0,0.0,0.0,0.0,0.0,0.0,0.0,0.0,0.0,0.0,0.0,0.0,0.0,0.0,0.0,0.0,0.0,0.0,0.0,0.0,0.0,0.0,0.0,0.0,0.0,0.0,0.0,0.0,0.0,0.0,0.0,0.0,0.0,0.0,0.0,0.0,0.0,0.0,0.0,0.0,0.0,0.0,0.0,0.0,0.0,0.0,0.0,0.0,0.0,0.0,0.0,0.0,-1.2905,-1.5998,-1.4927,0.0,-1.6126,0.0,0.0,0.0,0.0,0.0,0.0,0.0,0.0,0.0,0.0,0.0,0.0,0.0,0.0,0.0,0.0,0.0,0.0,0.0,0.0,0.0,0.0,0.0,0.0,0.0,0.0,0.0,0.0,0.0,0.0,0.0,0.0,0.0,0.0,0.0,0.0,0.0,0.0,0.0,0.0,0.0,0.0,0.0,0.0,0.0,0.0,0.0,0.0,0.0,0.0,0.0,0.0,0.0,0.0,0.0,0.0,0.0,0.0,0.0,0.0,0.0,0.0,0.0,0.0,0.0,0.0,0.0,0.0,0.0,0.0,0.0,0.0,0.0,0.0,0.0,0.0,0.0,0.0,0.0,0.0,0.0,0.0,0.0,0.0,0.0,0.0,0.0,0.0,0.0,0.0,0.0,0.0,0.0,0.0,0.0,0.0,0.0,0.0,0.0,0.0,0.0,0.0,0.0,0.0,0.0,0.0,0.0,0.0,0.0,0.0,-1.3546,-1.4552,-1.4893,-1.4705,0.0,0.0,0.0,0.0,0.0,0.0,0.0,0.0,0.0,0.0,0.0,0.0,0.0,0.0,0.0,0.0,0.0,0.0,0.0,0.0,0.0,0.0,0.0,0.0,0.0,0.0,0.0,0.0,0.0,0.0,0.0,0.0,0.0,0.0,0.0,0.0,0.0,0.0,0.0,0.0,0.0,0.0,0.0,0.0,0.0,0.0,0.0,0.0,0.0,0.0,0.0,0.0,0.0,0.0,0.0,0.0,0.0,0.0,0.0,0.0,0.0,0.0,0.0,0.0,0.0,0.0,0.0,0.0,0.0,0.0,0.0,0.0,0.0,0.0,0.0,0.0,0.0,0.0,0.0,0.0,0.0,0.0,0.0,0.0,0.0,0.0,0.0,0.0,0.0,0.0,0.0,0.0,0.0,0.0,0.0,0.0,0.0,0.0,0.0,0.0,0.0,0.0,0.0,0.0,0.0,0.0,0.0,0.0,0.0,0.0,-1.3443,-1.3771,-1.3883,-1.4216,-1.3922,-1.2956,0.0,0.0,0.0,0.0,0.0,0.0,0.0,0.0,0.0,0.0,0.0,0.0,0.0,0.0,0.0,0.0,0.0,0.0,0.0,0.0,0.0,0.0,0.0,0.0,0.0,0.0,0.0,0.0,0.0,0.0,0.0,0.0,0.0,0.0,0.0,0.0,0.0,0.0,0.0,0.0,0.0,0.0,0.0,0.0,0.0,0.0,0.0,0.0,0.0,0.0,0.0,0.0,0.0,0.0,0.0,0.0,0.0,0.0,0.0,0.0,0.0,0.0,0.0,0.0,0.0,0.0,0.0,0.0,0.0,0.0,0.0,0.0,0.0,0.0,0.0,0.0,0.0,0.0,0.0,0.0,0.0,0.0,0.0,0.0,0.0,0.0,0.0,0.0,0.0,0.0,0.0,0.0,0.0,0.0,0.0,0.0,0.0,0.0,0.0,0.0,0.0,0.0,0.0,0.0,0.0,0.0,0.0,0.0,-1.6532,-1.3856,-1.327,-1.5183,-1.3134,-1.2898,0.0,0.0,0.0,0.0,0.0,0.0,0.0,0.0,0.0,0.0,0.0,0.0,0.0,0.0,0.0,0.0,0.0,0.0,0.0,0.0,0.0,0.0,0.0,0.0,0.0,0.0,0.0,0.0,0.0,0.0,0.0,0.0,0.0,0.0,0.0,0.0,0.0,0.0,0.0,0.0,0.0,0.0,0.0,0.0,0.0,0.0,0.0,0.0,0.0,0.0,0.0,0.0,0.0,0.0,0.0,0.0,0.0,0.0,0.0,0.0,0.0,0.0,0.0,0.0,0.0,0.0,0.0,0.0,0.0,0.0,0.0,0.0,0.0,0.0,0.0,0.0,0.0,0.0,0.0,0.0,0.0,0.0,0.0,0.0,0.0,0.0,0.0,0.0,0.0,0.0,0.0,0.0,0.0,0.0,0.0,0.0,0.0,0.0,0.0,0.0,0.0,0.0,0.0,0.0,0.0,0.0,0.0,0.0,0.0,-1.2579,-1.2334,-1.3459,-1.5941,-1.3799,-1.31,0.0,0.0,0.0,0.0,0.0,0.0,0.0,0.0,0.0,0.0,0.0,0.0,0.0,0.0,0.0,0.0,0.0,0.0,0.0,0.0,0.0,0.0,0.0,0.0,0.0,0.0,0.0,0.0,0.0,0.0,0.0,0.0,0.0,0.0,0.0,0.0,0.0,0.0,0.0,0.0,0.0,0.0,0.0,0.0,0.0,0.0,0.0,0.0,0.0,0.0,0.0,0.0,0.0,0.0,0.0,0.0,0.0,0.0,0.0,0.0,0.0,0.0,0.0,0.0,0.0,0.0,0.0,0.0,0.0,0.0,0.0,0.0,0.0,0.0,0.0,0.0,0.0,0.0,0.0,0.0,0.0,0.0,0.0,0.0,0.0,0.0,0.0,0.0,0.0,0.0,0.0,0.0,0.0,0.0,0.0,0.0,0.0,0.0,0.0,0.0,0.0,0.0,0.0,0.0,0.0,0.0,0.0,0.0,0.0,-1.1749,0.0,-1.3998,-1.5545,-1.3799,-1.2685,0.0,0.0,0.0,0.0,0.0,0.0,0.0,0.0,0.0,0.0,0.0,0.0,0.0,0.0,0.0,0.0,0.0,0.0,0.0,0.0,0.0,0.0,0.0,0.0,0.0,0.0,0.0,0.0,0.0,0.0,0.0,0.0,0.0,0.0,0.0,0.0,0.0,0.0,0.0,0.0,0.0,0.0,0.0,0.0,0.0,0.0,0.0,0.0,0.0,0.0,0.0,0.0,0.0,0.0,0.0,0.0,0.0,0.0,0.0,0.0,0.0,0.0,0.0,0.0,0.0,0.0,0.0,0.0,0.0,0.0,0.0,0.0,0.0,0.0,0.0,0.0,0.0,0.0,0.0,0.0,0.0,0.0,0.0,0.0,0.0,0.0,0.0,0.0,0.0,0.0,0.0,0.0,0.0,0.0,0.0,0.0,0.0,0.0,0.0,0.0,0.0,0.0,0.0,0.0,0.0,0.0,0.0,0.0,-1.2379,-1.4901,-1.4993,-1.4659,-1.395,-1.2976,-1.1468,0.0,0.0,0.0,0.0,0.0,0.0,0.0,0.0,0.0,0.0,0.0,0.0,0.0,0.0,0.0,0.0,0.0,0.0,0.0,0.0,0.0,0.0,0.0,0.0,0.0,0.0,0.0,0.0,0.0,0.0,0.0,0.0,0.0,0.0,0.0,0.0,0.0,0.0,0.0,0.0,0.0,0.0,0.0,0.0,0.0,0.0,0.0,0.0,0.0,0.0,0.0,0.0,0.0,0.0,0.0,0.0,0.0,0.0,0.0,0.0,0.0,0.0,0.0,0.0,0.0,0.0,0.0,0.0,0.0,0.0,0.0,0.0,0.0,0.0,0.0,0.0,0.0,0.0,0.0,0.0,0.0,0.0,0.0,0.0,0.0,0.0,0.0,0.0,0.0,0.0,0.0,0.0,0.0,0.0,0.0,0.0,0.0,0.0,0.0,0.0,0.0,0.0,0.0,0.0,0.0,0.0,0.0,0.0,0.0,-1.15,-1.256,-1.3818,-1.5099,-1.2125,-1.1424,0.0,0.0,0.0,0.0,0.0,0.0,0.0,0.0,0.0,0.0,0.0,0.0,0.0,0.0,0.0,0.0,0.0,0.0,0.0,0.0,0.0,0.0,0.0,0.0,0.0,0.0,0.0,0.0,0.0,0.0,0.0,0.0,0.0,0.0,0.0,0.0,0.0,0.0,0.0,0.0,0.0,0.0,0.0,0.0,0.0,0.0,0.0,0.0,0.0,0.0,0.0,0.0,0.0,0.0,0.0,0.0,0.0,0.0,0.0,0.0,0.0,0.0,0.0,0.0,0.0,0.0,0.0,0.0,0.0,0.0,0.0,0.0,0.0,0.0,0.0,0.0,0.0,0.0,0.0,0.0,0.0,0.0,0.0,0.0,0.0,0.0,0.0,0.0,0.0,0.0,0.0,0.0,0.0,0.0,0.0,0.0,0.0,0.0,0.0,0.0,0.0,0.0,0.0,0.0,0.0,0.0,0.0,0.0,0.0,-1.1575,-1.3223,-1.4679,-1.5754,-1.3019,-1.2098,-1.3327,0.0,0.0,0.0,0.0,0.0,0.0,0.0,0.0,0.0,0.0,0.0,0.0,0.0,0.0,0.0,0.0,0.0,0.0,0.0,0.0,0.0,0.0,0.0,0.0,0.0,0.0,0.0,0.0,0.0,0.0,0.0,0.0,0.0,0.0,0.0,0.0,0.0,0.0,0.0,0.0,0.0,0.0,0.0,0.0,0.0,0.0,0.0,0.0,0.0,0.0,0.0,0.0,0.0,0.0,0.0,0.0,0.0,0.0,0.0,0.0,0.0,0.0,0.0,0.0,0.0,0.0,0.0,0.0,0.0,0.0,0.0,0.0,0.0,0.0,0.0,0.0,0.0,0.0,0.0,0.0,0.0,0.0,0.0,0.0,0.0,0.0,0.0,0.0,0.0,0.0,0.0,0.0,0.0,0.0,0.0,0.0,0.0,0.0,0.0,0.0,0.0,0.0,0.0,0.0,0.0,0.0,0.0,0.0,-1.4385,-1.6546,-1.7073,-1.5832,-1.5134,-1.3375,0.0,0.0,0.0,0.0,0.0,0.0,0.0,0.0,0.0,0.0,0.0,0.0,0.0,0.0,0.0,0.0,0.0,0.0,0.0,0.0,0.0,0.0,0.0,0.0,0.0,0.0,0.0,0.0,0.0,0.0,0.0,0.0,0.0,0.0,0.0,0.0,0.0,0.0,0.0,0.0,0.0,0.0,0.0,0.0,0.0,0.0,0.0,0.0,0.0,0.0,0.0,0.0,0.0,0.0,0.0,0.0,0.0,0.0,0.0,0.0,0.0,0.0,0.0,0.0,0.0,0.0,0.0,0.0,0.0,0.0,0.0,0.0,0.0,0.0,0.0,0.0,0.0,0.0,0.0,0.0,0.0,0.0,0.0,0.0,0.0,0.0,0.0,0.0,0.0,0.0,0.0,0.0,0.0,0.0,0.0,0.0,0.0,0.0,0.0,0.0,0.0,0.0,0.0,0.0,0.0,0.0,0.0,0.0,0.0,-1.7587,-1.9167,-1.932,-1.7834,-1.5396,-1.4177,0.0,0.0,0.0,0.0,0.0,0.0,0.0,0.0,0.0,0.0,0.0,0.0,0.0,0.0,0.0,0.0,0.0,0.0,0.0,0.0,0.0,0.0,0.0,0.0,0.0,0.0,0.0,0.0,0.0,0.0,0.0,0.0,0.0,0.0,0.0,0.0,0.0,0.0,0.0,0.0,0.0,0.0,0.0,0.0,0.0,0.0,0.0,0.0,0.0,0.0,0.0,0.0,0.0,0.0,0.0,0.0,0.0,0.0,0.0,0.0,0.0,0.0,0.0,0.0,0.0,0.0,0.0,0.0,0.0,0.0,0.0,0.0,0.0,0.0,0.0,0.0,0.0,0.0,0.0,0.0,0.0,0.0,0.0,0.0,0.0,0.0,0.0,0.0,0.0,0.0,0.0,0.0,0.0,0.0,0.0,0.0,0.0,0.0,0.0,0.0,0.0,0.0,0.0,0.0,0.0,0.0,0.0,0.0,-1.7337,-1.7976,-2.0246,-2.0776,-1.944,-1.7144,-1.5416,0.0,0.0,0.0,0.0,0.0,0.0,0.0,0.0,0.0,0.0,0.0,0.0,0.0,0.0,0.0,0.0,0.0,0.0,0.0,0.0,0.0,0.0,0.0,0.0,0.0,0.0,0.0,0.0,0.0,0.0,0.0,0.0,0.0,0.0,0.0,0.0,0.0,0.0,0.0,0.0,0.0,0.0,0.0,0.0,0.0,0.0,0.0,0.0,0.0,0.0,0.0,0.0,0.0,0.0,0.0,0.0,0.0,0.0,0.0,0.0,0.0,0.0,0.0,0.0,0.0,0.0,0.0,0.0,0.0,0.0,0.0,0.0,0.0,0.0,0.0,0.0,0.0,0.0,0.0,0.0,0.0,0.0,0.0,0.0,0.0,0.0,0.0,0.0,0.0,0.0,0.0,0.0,0.0,0.0,0.0,0.0,0.0,0.0,0.0,0.0,0.0,0.0,0.0,0.0,0.0,0.0,0.0,0.0,-1.792,-1.7138,-2.0479,-2.1709,-2.0515,-1.9282,-1.6788,0.0,0.0,0.0,0.0,0.0,0.0,0.0,0.0,0.0,0.0,0.0,0.0,0.0,0.0,0.0,0.0,0.0,0.0,0.0,0.0,0.0,0.0,0.0,0.0,0.0,0.0,0.0,0.0,0.0,0.0,0.0,0.0,0.0,0.0,0.0,0.0,0.0,0.0,0.0,0.0,0.0,0.0,0.0,0.0,0.0,0.0,0.0,0.0,0.0,0.0,0.0,0.0,0.0,0.0,0.0,0.0,0.0,0.0,0.0,0.0,0.0,0.0,0.0,0.0,0.0,0.0,0.0,0.0,0.0,0.0,0.0,0.0,0.0,0.0,0.0,0.0,0.0,0.0,0.0,0.0,0.0,0.0,0.0,0.0,0.0,0.0,0.0,0.0,0.0,0.0,0.0,0.0,0.0,0.0,0.0,0.0,0.0,0.0,0.0,0.0,0.0,0.0,0.0,0.0,0.0,0.0,0.0,0.0,-1.9021,-1.8971,-2.1444,-2.1998,-2.046,-1.844,-1.6498,0.0,0.0,0.0,0.0,0.0,0.0,0.0,0.0,0.0,0.0,0.0,0.0,0.0,0.0,0.0,0.0,0.0,0.0,0.0,0.0,0.0,0.0,0.0,0.0,0.0,0.0,0.0,0.0,0.0,0.0,0.0,0.0,0.0,0.0,0.0,0.0,0.0,0.0,0.0,0.0,0.0,0.0,0.0,0.0,0.0,0.0,0.0,0.0,-0.8691,0.0,0.0,0.0,0.0,0.0,0.0,0.0,0.0,0.0,0.0,0.0,0.0,0.0,0.0,0.0,0.0,0.0,0.0,0.0,0.0,0.0,0.0,0.0,0.0,0.0,0.0,0.0,0.0,0.0,0.0,0.0,0.0,0.0,0.0,0.0,0.0,0.0,0.0,0.0,0.0,0.0,0.0,0.0,0.0,0.0,0.0,0.0,0.0,0.0,0.0,0.0,0.0,0.0,0.0,0.0,0.0,0.0,0.0,0.0,-1.8779,-1.9221,-2.0862,-2.1358,-2.0421,-1.8214,-1.6295,0.0,0.0,0.0,0.0,0.0,0.0,0.0,0.0,0.0,0.0,0.0,0.0,0.0,0.0,0.0,0.0,0.0,0.0,0.0,0.0,0.0,0.0,0.0,0.0,0.0,0.0,0.0,0.0,0.0,0.0,0.0,0.0,0.0,0.0,0.0,0.0,0.0,0.0,0.0,0.0,0.0,0.0,0.0,0.0,0.0,0.0,0.0,0.0,0.0,0.0,0.0,0.0,0.0,0.0,0.0,0.0,0.0,0.0,0.0,0.0,0.0,0.0,0.0,0.0,0.0,0.0,0.0,0.0,0.0,0.0,0.0,0.0,0.0,0.0,0.0,0.0,0.0,0.0,0.0,0.0,0.0,0.0,0.0,0.0,0.0,0.0,0.0,0.0,0.0,0.0,0.0,0.0,0.0,0.0,0.0,0.0,0.0,0.0,0.0,0.0,0.0,0.0,0.0,0.0,0.0,0.0,0.0,-1.6653,-1.8354,-1.9113,-2.0105,-2.0547,-2.0355,-1.8079,-1.6064,-1.4382,0.0,0.0,0.0,0.0,0.0,0.0,0.0,0.0,0.0,0.0,0.0,0.0,0.0,0.0,0.0,0.0,0.0,0.0,0.0,0.0,0.0,0.0,0.0,0.0,0.0,0.0,0.0,0.0,0.0,0.0,0.0,0.0,0.0,0.0,0.0,0.0,0.0,0.0,-0.8295,-0.8981,0.0,0.0,0.0,0.0,0.0,0.0,0.0,0.0,-0.9025,0.0,0.0,0.0,0.0,0.0,0.0,0.0,0.0,0.0,0.0,0.0,0.0,0.0,0.0,0.0,0.0,0.0,0.0,0.0,0.0,0.0,0.0,0.0,0.0,0.0,0.0,0.0,0.0,0.0,0.0,0.0,0.0,0.0,0.0,0.0,0.0,0.0,0.0,0.0,0.0,0.0,0.0,0.0,0.0,0.0,0.0,0.0,0.0,0.0,0.0,0.0,0.0,0.0,0.0,0.0,0.0,-1.6323,-1.8024,-1.9416,-2.0518,-2.0953,-2.0742,-1.9795,-1.7516,-1.5608,-1.4276,0.0,0.0,0.0,0.0,0.0,0.0,0.0,0.0,0.0,0.0,0.0,0.0,0.0,0.0,0.0,0.0,0.0,0.0,0.0,0.0,0.0,0.0,0.0,0.0,0.0,0.0,0.0,0.0,0.0,0.0,0.0,0.0,0.0,0.0,0.0,0.0,0.0,0.0,0.0,-0.9112,-0.9813,0.0,0.0,0.0,0.0,0.0,0.0,0.0,0.0,-0.9362,0.0,0.0,0.0,0.0,0.0,0.0,0.0,0.0,0.0,0.0,0.0,0.0,0.0,0.0,0.0,0.0,0.0,0.0,0.0,0.0,0.0,0.0,0.0,0.0,0.0,0.0,0.0,0.0,0.0,0.0,0.0,0.0,0.0,0.0,0.0,0.0,0.0,0.0,0.0,0.0,0.0,0.0,0.0,0.0,0.0,0.0,0.0,0.0,0.0,0.0,0.0,0.0,0.0,0.0,0.0,-1.5813,-1.7238,-1.8645,-2.0065,-2.0055,-1.9616,-1.8758,-1.6729,-1.5043,0.0,0.0,0.0,0.0,0.0,0.0,0.0,0.0,0.0,0.0,0.0,0.0,0.0,0.0,0.0,0.0,0.0,0.0,0.0,0.0,0.0,0.0,0.0,0.0,0.0,0.0,0.0,0.0,0.0,0.0,0.0,0.0,0.0,0.0,0.0,0.0,0.0,0.0,0.0,0.0,-0.9215,-0.9749,-0.9032,0.0,0.0,0.0,0.0,0.0,0.0,-0.9798,-0.9482,0.0,0.0,0.0,0.0,0.0,0.0,0.0,0.0,0.0,0.0,0.0,0.0,0.0,0.0,0.0,0.0,0.0,0.0,0.0,0.0,0.0,0.0,0.0,0.0,0.0,0.0,0.0,0.0,0.0,0.0,0.0,0.0,0.0,0.0,0.0,0.0,0.0,0.0,0.0,0.0,0.0,0.0,0.0,0.0,0.0,0.0,0.0,0.0,0.0,0.0,0.0,0.0,0.0,0.0,0.0,-1.5185,-1.6408,-1.7831,-1.9413,-1.8934,-1.8323,-1.7712,-1.5973,-1.4403,0.0,0.0,0.0,0.0,0.0,0.0,0.0,0.0,0.0,0.0,0.0,0.0,0.0,0.0,0.0,0.0,0.0,0.0,0.0,0.0,0.0,0.0,0.0,0.0,0.0,0.0,0.0,0.0,0.0,0.0,0.0,0.0,0.0,0.0,0.0,0.0,0.0,0.0,0.0,0.0,0.0,-0.9923,-0.9155,-1.013,0.0,0.0,0.0,0.0,-1.0889,-1.0564,0.0,0.0,0.0,0.0,0.0,0.0,0.0,0.0,0.0,0.0,0.0,0.0,0.0,0.0,0.0,0.0,0.0,0.0,0.0,0.0,0.0,0.0,0.0,0.0,0.0,0.0,0.0,0.0,0.0,0.0,0.0,0.0,0.0,0.0,0.0,0.0,0.0,0.0,0.0,0.0,0.0,0.0,0.0,0.0,0.0,0.0,0.0,0.0,0.0,0.0,0.0,0.0,0.0,0.0,0.0,0.0,-1.6177,-1.7028,-1.8233,-1.9771,-1.8649,-1.7706,-1.7095,-1.5345,-1.3778,0.0,0.0,0.0,0.0,0.0,0.0,0.0,0.0,0.0,0.0,0.0,0.0,0.0,0.0,0.0,0.0,0.0,0.0,0.0,0.0,0.0,0.0,0.0,0.0,0.0,0.0,0.0,0.0,0.0,0.0,0.0,0.0,0.0,0.0,0.0,0.0,0.0,0.0,0.0,0.0,0.0,-1.1064,-1.061,-1.1035,-1.1242,0.0,0.0,-1.1839,-1.1471,-1.2612,0.0,0.0,0.0,0.0,0.0,0.0,0.0,0.0,0.0,0.0,0.0,0.0,0.0,0.0,0.0,0.0,0.0,0.0,0.0,0.0,0.0,0.0,0.0,0.0,0.0,0.0,0.0,0.0,0.0,0.0,0.0,0.0,0.0,0.0,0.0,0.0,0.0,0.0,0.0,0.0,0.0,0.0,0.0,0.0,0.0,0.0,0.0,0.0,0.0,0.0,0.0,0.0,0.0,0.0,0.0,-1.4698,-1.5698,-1.638,-1.7224,-1.8201,-1.7032,-1.6082,-1.5498,-1.404,-1.2845,0.0,0.0,0.0,0.0,0.0,0.0,0.0,0.0,0.0,0.0,0.0,0.0,0.0,0.0,0.0,0.0,0.0,0.0,0.0,0.0,0.0,0.0,0.0,0.0,0.0,0.0,0.0,0.0,0.0,0.0,0.0,0.0,0.0,0.0,0.0,0.0,0.0,0.0,0.0,0.0,0.0,0.0,-1.0915,-1.1858,0.0,0.0,0.0,-1.2849,-1.2571,0.0,0.0,0.0,0.0,0.0,0.0,0.0,0.0,0.0,0.0,0.0,0.0,0.0,0.0,0.0,0.0,0.0,0.0,0.0,0.0,0.0,0.0,0.0,0.0,0.0,0.0,0.0,0.0,0.0,0.0,0.0,0.0,0.0,0.0,0.0,0.0,0.0,0.0,0.0,0.0,0.0,0.0,0.0,0.0,0.0,0.0,0.0,0.0,0.0,0.0,0.0,0.0,0.0,0.0,0.0,0.0,0.0,-1.5345,-1.5844,-1.6363,-1.6862,-1.5659,-1.468,-1.4083,-1.3036,0.0,0.0,0.0,0.0,0.0,0.0,0.0,0.0,0.0,0.0,0.0,0.0,0.0,0.0,0.0,0.0,0.0,0.0,0.0,0.0,0.0,0.0,0.0,0.0,0.0,0.0,0.0,-0.7918,0.0,0.0,0.0,0.0,0.0,0.0,0.0,0.0,0.0,0.0,0.0,0.0,0.0,0.0,-1.2221,-1.1242,-1.2547,-1.3205,0.0,0.0,-1.3857,-1.352,-1.364,-1.3619,0.0,0.0,0.0,0.0,0.0,0.0,0.0,0.0,0.0,0.0,0.0,0.0,0.0,0.0,0.0,0.0,0.0,0.0,0.0,0.0,0.0,0.0,0.0,0.0,0.0,0.0,0.0,0.0,0.0,0.0,0.0,0.0,0.0,0.0,0.0,0.0,0.0,0.0,0.0,0.0,0.0,0.0,0.0,0.0,0.0,0.0,0.0,0.0,0.0,0.0,0.0,0.0,0.0,0.0,0.0,-1.5759,-1.5988,-1.6301,-1.6652,-1.5167,-1.407,-1.3471,-1.2834,-1.2155,0.0,0.0,0.0,0.0,0.0,0.0,0.0,0.0,0.0,0.0,0.0,0.0,0.0,0.0,0.0,0.0,0.0,0.0,0.0,0.0,0.0,0.0,0.0,0.0,0.0,0.0,0.0,0.0,0.0,0.0,0.0,0.0,0.0,0.0,0.0,0.0,0.0,0.0,0.0,0.0,0.0,-1.2351,-1.1991,-1.3107,-1.3776,0.0,0.0,-1.4963,-1.4092,-1.5299,-1.5637,-1.3474,0.0,0.0,0.0,0.0,0.0,0.0,0.0,0.0,0.0,0.0,0.0,0.0,0.0,0.0,0.0,0.0,0.0,0.0,0.0,0.0,0.0,0.0,0.0,0.0,0.0,0.0,0.0,0.0,0.0,0.0,0.0,0.0,0.0,0.0,0.0,0.0,0.0,0.0,0.0,0.0,0.0,0.0,0.0,0.0,0.0,0.0,0.0,0.0,0.0,0.0,0.0,0.0,0.0,-1.5232,-1.574,-1.5806,-1.5752,-1.5499,-1.4355,-1.3296,-1.2319,-1.1709,-1.1426,0.0,0.0,0.0,0.0,0.0,0.0,0.0,0.0,0.0,0.0,0.0,0.0,0.0,0.0,0.0,0.0,0.0,0.0,0.0,0.0,0.0,0.0,0.0,0.0,0.0,0.0,0.0,0.0,-0.7369,-0.7773,-0.8052,0.0,0.0,0.0,0.0,0.0,0.0,0.0,0.0,0.0,0.0,-1.3553,-1.2915,-1.392,0.0,0.0,-1.5252,-1.589,-1.5154,-1.5447,-1.5453,-1.4445,-1.3786,0.0,0.0,0.0,0.0,0.0,0.0,0.0,0.0,0.0,0.0,0.0,0.0,0.0,0.0,0.0,0.0,0.0,0.0,0.0,0.0,0.0,0.0,0.0,0.0,0.0,0.0,0.0,0.0,0.0,0.0,0.0,0.0,0.0,0.0,0.0,0.0,0.0,0.0,0.0,0.0,0.0,0.0,0.0,0.0,0.0,0.0,0.0,0.0,0.0,0.0,0.0,0.0,-1.5154,-1.5263,-1.5389,-1.5097,-1.4387,-1.3551,-1.2603,-1.1627,-1.0992,-1.0952,0.0,0.0,0.0,0.0,0.0,0.0,0.0,0.0,0.0,0.0,0.0,0.0,0.0,0.0,0.0,0.0,0.0,0.0,0.0,0.0,0.0,0.0,0.0,0.0,0.0,0.0,0.0,0.0,-0.7762,-0.8388,-0.8844,0.0,0.0,0.0,0.0,0.0,0.0,0.0,0.0,0.0,0.0,-1.4114,-1.354,-1.4419,-1.5029,-1.4694,-1.5604,-1.614,-1.5583,-1.5451,-1.5253,-1.4681,0.0,0.0,0.0,0.0,0.0,0.0,0.0,0.0,0.0,0.0,0.0,0.0,0.0,0.0,0.0,0.0,0.0,0.0,0.0,0.0,0.0,0.0,0.0,0.0,0.0,0.0,0.0,0.0,0.0,0.0,-2.0746,0.0,0.0,0.0,0.0,0.0,0.0,0.0,0.0,0.0,0.0,0.0,0.0,0.0,0.0,0.0,0.0,0.0,0.0,0.0,0.0,0.0,0.0,-1.5249,-1.436,-1.4707,-1.4403,-1.3505,-1.2791,-1.2196,-1.164,-1.0954,-1.0903,-1.1508,0.0,0.0,0.0,0.0,0.0,0.0,0.0,0.0,0.0,0.0,0.0,0.0,0.0,0.0,0.0,0.0,0.0,0.0,0.0,0.0,0.0,0.0,0.0,0.0,0.0,0.0,-0.9406,-0.8704,-0.8419,0.0,0.0,0.0,0.0,0.0,0.0,0.0,0.0,0.0,0.0,-1.3443,-1.3751,-1.3784,-1.4471,-1.4996,-1.4982,-1.5417,-1.5546,-1.509,-1.5397,-1.5214,0.0,0.0,0.0,0.0,0.0,0.0,0.0,0.0,0.0,0.0,0.0,0.0,0.0,0.0,0.0,0.0,0.0,0.0,0.0,0.0,0.0,0.0,0.0,0.0,0.0,0.0,0.0,-2.1039,-2.1417,0.0,0.0,0.0,0.0,0.0,0.0,0.0,0.0,0.0,0.0,0.0,-2.0967,-2.0697,0.0,0.0,0.0,0.0,0.0,0.0,0.0,0.0,0.0,0.0,0.0,0.0,-1.5626,-1.5497,-1.5609,-1.5156,-1.4098,-1.3628,-1.3009,-1.2224,-1.1183,-1.1078,-1.1935,0.0,0.0,0.0,0.0,0.0,0.0,0.0,0.0,0.0,0.0,0.0,0.0,0.0,0.0,0.0,0.0,0.0,0.0,0.0,0.0,0.0,0.0,0.0,0.0,0.0,-1.0774,0.0,0.0,0.0,0.0,0.0,0.0,0.0,0.0,0.0,0.0,0.0,-1.3644,-1.3513,-1.4165,-1.4519,-1.4247,-1.4393,-1.4635,0.0,0.0,0.0,0.0,0.0,0.0,0.0,0.0,0.0,0.0,0.0,0.0,0.0,0.0,-1.5297,-1.4041,-1.3848,-1.3824,-1.3848,0.0,0.0,0.0,0.0,0.0,0.0,0.0,0.0,0.0,0.0,0.0,0.0,0.0,0.0,-2.147,0.0,-2.1263,0.0,0.0,0.0,0.0,0.0,0.0,0.0,0.0,-2.0711,-2.1034,-2.1648,-2.1157,-2.1036,0.0,-2.0789,-1.9998,0.0,0.0,0.0,0.0,0.0,0.0,0.0,0.0,-1.62,-1.6165,-1.5933,-1.5281,-1.4284,-1.3984,-1.3429,-1.2522,-1.171,-1.1427,-1.1683,-1.2959,-1.2898,0.0,0.0,0.0,0.0,0.0,0.0,0.0,0.0,0.0,0.0,0.0,0.0,0.0,0.0,0.0,0.0,0.0,0.0,0.0,0.0,0.0,0.0,0.0,-1.0881,0.0,0.0,0.0,0.0,0.0,0.0,0.0,0.0,0.0,-1.3553,-1.4157,-1.4676,-1.4707,-1.4919,-1.5051,-1.4932,0.0,0.0,0.0,0.0,0.0,0.0,0.0,-1.5285,-1.5268,-1.5397,-1.5525,-1.5687,-1.6102,-1.6267,-1.5801,0.0,0.0,-1.4527,-1.4274,-1.4234,-1.4224,-1.4209,-1.4226,-1.4382,-1.4479,-1.4487,0.0,0.0,0.0,0.0,0.0,0.0,0.0,0.0,-2.1683,-2.1966,0.0,-2.1568,0.0,0.0,0.0,0.0,0.0,-2.0525,0.0,0.0,-2.1466,-2.1786,-2.2359,-2.1726,-2.1381,-2.1319,-2.0749,-2.0218,-1.9771,-1.9756,0.0,0.0,0.0,0.0,0.0,0.0,-1.6943,-1.6352,-1.5739,-1.492,-1.4012,-1.3882,-1.3414,-1.255,-1.2492,-1.1952,-1.0912,-1.2294,-1.2535,-1.148,-1.2946,0.0,0.0,0.0,0.0,0.0,0.0,0.0,0.0,0.0,0.0,0.0,0.0,0.0,0.0,0.0,0.0,0.0,0.0,0.0,0.0,-0.9822,0.0,0.0,0.0,0.0,0.0,0.0,0.0,0.0,0.0,0.0,-1.4491,-1.4812,-1.5463,-1.6417,0.0,0.0,0.0,0.0,-1.5324,-1.5802,-1.6314,-1.6548,-1.6484,-1.6814,-1.6801,-1.5873,0.0,0.0,-1.5866,-1.6156,-1.6371,-1.5866,-1.5725,-1.5529,-1.5694,-1.5512,-1.5355,-1.5382,-1.5292,-1.5187,-1.5085,-1.5277,-1.5436,-2.6299,0.0,0.0,0.0,0.0,-2.3161,-2.3014,-2.2748,-2.2131,-2.2035,-2.2247,-2.1343,0.0,0.0,0.0,0.0,0.0,0.0,-2.1317,-2.1621,-2.1892,-2.2458,-2.3165,-2.2867,-2.2717,-2.2717,-2.2536,-2.186,-2.0882,-2.0834,-2.0264,-1.9134,0.0,0.0,0.0,0.0,-1.7939,-1.724,-1.6849,-1.6173,-1.5197,-1.4755,-1.3964,-1.2816,-1.3367,-1.3251,-1.2385,-1.3236,-1.352,-1.3103,-1.3579,0.0,0.0,0.0,0.0,0.0,0.0,0.0,0.0,0.0,0.0,0.0,0.0,0.0,0.0,0.0,0.0,0.0,0.0,0.0,-1.2017,-1.2415,-1.2581,0.0,0.0,0.0,0.0,0.0,0.0,0.0,0.0,0.0,-1.5423,-1.5232,-1.5452,0.0,0.0,-1.528,-1.5762,-1.574,-1.574,-1.5872,-1.6336,0.0,0.0,-1.6173,-1.6256,-1.6206,-1.6829,-1.7398,-1.7574,-1.775,-1.7792,-1.7636,-1.7296,-1.6957,-1.6646,-1.6116,-1.576,-1.5883,-1.6002,-1.5967,-1.5573,-1.5782,-1.593,-2.9277,-2.7078,-2.5885,-2.5062,-2.459,-2.4521,-2.4398,-2.4134,-2.3421,-2.3244,-2.344,-2.2336,-2.1752,-2.1617,-2.1298,0.0,0.0,0.0,-2.2066,-2.2402,-2.2654,-2.3149,-2.3756,-2.3445,-2.3286,-2.3286,-2.3025,-2.2486,-2.1689,-2.1427,-2.0837,-1.9972,0.0,0.0,-1.9566,-1.9135,-1.8726,-1.8271,-1.7548,-1.6831,-1.6114,-1.5385,-1.4542,-1.3626,-1.408,-1.4078,-1.3507,-1.3813,-1.398,-1.3957,-1.3908,-1.3219,0.0,0.0,0.0,0.0,0.0,0.0,0.0,0.0,0.0,0.0,0.0,-1.3895,-1.4275,0.0,0.0,0.0,-1.2328,-1.1938,-1.1905,-1.2789,0.0,0.0,0.0,0.0,0.0,0.0,0.0,-1.4945,-1.563,-1.6086,-1.6086,-1.5668,-1.5723,-1.673,-1.6013,-1.5635,-1.6373,0.0,-1.6338,-1.6774,-1.7276,-1.7411,-1.6852,-1.6793,-1.6741,-1.6662,-1.7213,-1.7678,-1.7802,-1.7843,-1.7854,-1.7823,-1.7575,-1.7338,-1.7276,-1.6788,-1.6266,-1.6061,-1.6046,-1.5989,-1.5822,-1.6146,-1.6323,-3.2126,-3.101,-2.7746,-2.6196,-2.5884,-2.5737,-2.5643,-2.5537,-2.5188,-2.5167,-2.5271,-2.4001,-2.3248,-2.2851,-2.2128,0.0,-2.288,-2.2744,-2.3011,-2.36,-2.3596,-2.3838,-2.4271,-2.3671,-2.3379,-2.3363,-2.2748,-2.2428,-2.2366,-2.1766,-2.1396,-2.1288,-2.0687,-2.0366,-2.0273,-1.9688,-1.9348,-1.9271,-1.8038,-1.7151,-1.6743,-1.5816,-1.5134,-1.4676,-1.4627,-1.4483,-1.4238,-1.4095,-1.4049,-1.4157,-1.4007,-1.3393,-1.2285,0.0,0.0,0.0,0.0,0.0,0.0,0.0,0.0,0.0,0.0,0.0,0.0,0.0,0.0,0.0,-1.0664,0.0,-1.0708,-1.1969,0.0,0.0,0.0,-1.5131,-1.5198,-1.5557,-1.581,-1.5854,0.0,0.0,-1.65,-1.6129,-1.6215,-1.7192,-1.6438,-1.6196,-1.7267,-1.6953,-1.7037,-1.7957,-1.8635,-1.8769,-1.8057,-1.797,-1.769,-1.7015,-1.7337,-1.7471,-1.7161,-1.7058,-1.6997,-1.7151,-1.6958,-1.698,-1.7533,-1.7236,-1.6839,-1.6064,-1.5751,-1.5694,-1.6037,-1.6369,-1.6517,-3.4159,-3.2755,-3.1547,-2.9999,-2.8277,-2.8224,-2.7819,-2.7109,-2.6525,-2.5831,-2.504,-2.4163,-2.346,-2.2882,-2.2704,-2.2702,-2.2836,-2.3299,-2.3537,-2.3647,-2.4058,-2.4338,-2.4441,-2.4189,-2.4071,-2.4056,-2.3902,-2.3563,-2.3071,-2.2902,-2.232,-2.1334,-2.1134,-2.0795,-2.032,-2.0133,-1.9811,-1.9302,-1.8978,-1.8238,-1.7105,-1.6113,-1.5536,-1.536,-1.4862,-1.4549,-1.4422,-1.4257,-1.4124,-1.4049,-1.4,-1.343,-1.2286,-1.3756,0.0,0.0,0.0,0.0,0.0,0.0,0.0,0.0,0.0,-1.5645,-1.6009,0.0,-1.5818,0.0,-1.5257,-1.4728,-1.404,-1.4693,0.0,0.0,-1.5123,-1.5379,-1.6088,-1.5954,-1.5954,-1.6281,-1.6423,-1.6513,-1.6513,-1.6402,-1.643,-1.6676,-1.6205,-1.6029,-1.6643,-1.705,-1.7291,-1.764,-1.8409,-1.8771,-1.8193,-1.802,-1.7581,-1.6675,-1.6912,-1.713,-1.6997,-1.6987,-1.712,-1.743,-1.7214,-1.7069,-1.71,-1.6489,-1.6034,-1.6048,-1.6357,-1.6544,-1.6315,-1.6345,-1.6316,-3.4966,-3.4385,-3.3426,-3.2408,-3.1382,-3.0253,-2.9468,-2.8899,-2.8214,-2.7356,-2.6387,-2.4839,-2.422,-2.4226,-2.3623,-2.3509,-2.3787,-2.4165,-2.4261,-2.4159,-2.4489,-2.46,-2.4544,-2.4441,-2.438,-2.44,-2.4323,-2.4097,-2.3748,-2.3456,-2.2917,-2.2197,-2.1596,-2.1103,-2.0751,-2.0458,-2.0273,-2.0196,-1.9595,-1.8623,-1.7254,-1.6664,-1.6068,-1.5389,-1.5195,-1.4908,-1.4578,-1.4495,-1.4415,-1.4278,-1.4114,-1.3449,-1.2298,-1.3297,-1.3327,0.0,0.0,0.0,0.0,0.0,0.0,0.0,0.0,0.0,0.0,0.0,-1.6646,-1.6934,-1.5906,-1.5374,-1.5706,-1.601,-1.6207,-1.6107,-1.5879,-1.5923,-1.6436,-1.6281,-1.6207,-1.6479,-1.6513,-1.6513,-1.6513,-1.6513,-1.6513,-1.6513,-1.6272,-1.6316,-1.6806,-1.7217,-1.7486,-1.7727,-1.8087,-1.8043,-1.7243,-1.6837,-1.6411,-1.5918,-1.597,-1.6169,-1.6366,-1.6417,-1.6529,-1.6746,-1.6583,-1.6345,-1.6128,-1.5708,-1.5365,-1.5491,-1.5796,-1.6026,-1.6098,-1.6118,-1.6058,-3.532,-3.5668,-3.426,-3.3958,-3.4189,-3.191,-3.0816,-3.0601,-2.9871,-2.9079,-2.8129,-2.5837,-2.5266,-2.5914,-2.4709,-2.4476,-2.497,-2.5005,-2.4926,-2.4818,-2.4896,-2.482,-2.4589,-2.4652,-2.4642,-2.4622,-2.4518,-2.4502,-2.4548,-2.3887,-2.3517,-2.3379,-2.2163,-2.1519,-2.1411,-2.0764,-2.0674,-2.1134,-1.99,-1.87,-1.7485,-1.7285,-1.6608,-1.5445,-1.558,-1.5404,-1.4769,-1.4882,-1.4907,-1.4707,-1.4436,-1.3816,-1.2799,-1.2642,-1.3066,0.0,-1.4236,0.0,0.0,0.0,0.0,0.0,0.0,0.0,0.0,-1.7157,-1.7052,-1.691,-1.4949,-1.4475,-1.6337,-1.6513,-1.6513,-1.6513,-1.6513,-1.6513,-1.6513,-1.6513,-1.6513,-1.6513,-1.6513,-1.6513,-1.6513,-1.6513,-1.6513,-1.65,-1.6479,-1.6641,-1.7137,-1.7237,-1.7388,-1.794,-1.7698,-1.7267,-1.6359,-1.5678,-1.5295,-1.5133,-1.5117,-1.5142,-1.5556,-1.5618,-1.5618,-1.5628,-1.5649,-1.5494,-1.5059,-1.5054,-1.4981,-1.4917,-1.4963,-1.5127,-1.5578,-1.5731,-1.58,-3.6229,-3.5677,-3.5395,-3.4861,-3.4148,-3.3076,-3.2139,-3.1352,-3.0618,-2.9492,-2.8088,-2.7058,-2.6371,-2.5993,-2.574,-2.5377,-2.5005,-2.5005,-2.4926,-2.4818,-2.5351,-2.5263,-2.4656,-2.5202,-2.5425,-2.5319,-2.5277,-2.5527,-2.598,-2.5272,-2.4656,-2.4102,-2.3317,-2.2655,-2.212,0.0,0.0,0.0,-1.9587,-1.905,-1.887,-1.7746,-1.7028,-1.6772,-1.6082,0.0,-1.5507,-1.5703,-1.5705,-1.5363,-1.5603,0.0,0.0,0.0,0.0,0.0,0.0,0.0,0.0,0.0,0.0,0.0,-1.7212,-1.7157,-1.7044,-1.6876,-1.6782,-1.6727,-1.6229,-1.607,-1.645,-1.6513,-1.6513,-1.6513,-1.6513,-1.6513,-1.6513,-1.6513,-1.6513,-1.6513,-1.6513,-1.6513,-1.6513,-1.6513,-1.6513,-1.6513,-1.6513,-1.6538,-1.6651,-1.6701,-1.6701,-1.6817,-1.7115,-1.7154,-1.6556,-1.6269,-1.5745,-1.5289,-1.5023,-1.5018,-1.5101,-1.5132,-1.5121,-1.5132,-1.5121,-1.5111,-1.4987,-1.5023,-1.4935,-1.4961,-1.495,-1.497,-1.5001,-1.5015,-1.5032,-3.6389,0.0,-3.5869,-3.5577,0.0,-3.4564,-3.3768,-3.2945,-3.2077,-3.0999,-2.9756,-2.8453,-2.7577,-2.702,-2.6704,-2.6372,-2.6009,-2.5665,-2.5656,-2.5926,-2.5548,-2.5554,-2.5806,-2.5435,-2.5597,-2.6174,-2.5788,-2.5942,-2.6503,-2.5787,-2.5219,-2.4884,-2.3819,-2.2967,-2.2289,-2.1304,-2.0643,-2.0287,-1.9899,-1.9544,-1.9287,-1.8576,-1.7976,-1.7517,0.0,0.0,0.0,0.0,0.0,0.0,0.0,0.0,0.0,0.0,0.0,-1.716,-1.7212,-1.7212,-1.7212,-1.7212,-1.7212,-1.7199,-1.7149,-1.7065,-1.6989,-1.6876,-1.6761,-1.6697,-1.6577,-1.6513,-1.6513,-1.6513,-1.6513,-1.6513,-1.6513,-1.6513,-1.6513,-1.6513,-1.6513,-1.6513,-1.6513,-1.6513,-1.6513,-1.6513,-1.6513,-1.6513,-1.6513,-1.6513,-1.6513,-1.6513,-1.6436,-1.6207,-1.6382,-1.6316,-1.5679,-1.5519,-1.5289,-1.4513,-1.4314,-1.4392,-1.4614,-1.4666,-1.4656,-1.4656,-1.4666,-1.4604,-1.4355,-1.4314,-1.4314,-1.4314,-1.4314,-1.4289,-1.427,-1.4563,-1.4918,-3.6371,-3.6898,-3.6204,-3.621,-3.6632,-3.5786,-3.5139,-3.4585,0.0,0.0,0.0,-2.9961,-2.8898,-2.8376,-2.7709,-2.7295,-2.7067,-2.6483,-2.653,-2.7051,-2.6045,-2.6108,-2.6998,-2.5921,-2.6031,-2.7177,-2.6469,-2.6498,-2.7195,-2.6343,-2.5812,-2.5573,-2.4359,-2.3295,-2.2459,-2.1134,-2.0489,-2.0456,-2.0349,-2.0025,-1.9487,-1.9332,-1.8878,-1.8087,-1.8174,-1.8097,-1.7875,-1.7867,-1.7797,-1.7648,-1.7054,-1.69,-1.7208,-1.6863,-1.6849,-1.7263,-1.724,-1.7212,-1.7212,-1.7212,-1.7212,-1.7212,-1.7094,-1.7023,-1.6989,-1.6918,-1.6825,-1.674,-1.6586,-1.6522,-1.6522,-1.6522,-1.6513,-1.6513,-1.6513,-1.6513,-1.6513,-1.6513,-1.6513,-1.6513,-1.6513,-1.6513,-1.6513,-1.6513,-1.6513,-1.6513,-1.6513,-1.6513,-1.6513,-1.6513,-1.638,-1.6098,-1.6113,-1.5726,-1.4949,-1.4787,-1.4432,-1.4144,-1.391,-1.3875,-1.4188,-1.4229,-1.4179,-1.4179,-1.419,-1.4045,-1.3714,-1.3683,-1.361,-1.361,-1.361,-1.361,-1.3683,-1.421,-1.4687,-3.6823,-3.6811,-3.6686,-3.6661,-3.665,-3.5829,-3.5399,-3.5128,-3.3461,-3.2667,-3.2469,-3.1603,-3.0635,-2.9599,-2.8898,-2.803,-2.7115,-2.6988,-2.702,-2.713,-2.75,-2.7446,-2.713,-2.7456,-2.798,-2.8527,-2.7924,-2.8216,-2.9099,-2.803,-2.7043,-2.6355,-2.5567,-2.4503,-2.3167,-2.1843,-2.1165,-2.115,-2.0476,-2.0139,-2.0148,-1.9479,-1.9126,-1.9067,-1.8514,-1.8176,-1.8144,-1.8631,-1.8689,-1.831,-1.8582,-1.8621,-1.8282,-1.7845,-1.7626,-1.77,-1.7372,-1.7212,-1.7199,-1.7212,-1.7212,-1.7212,-1.7178,-1.7115,-1.7002,-1.6833,-1.6782,-1.6846,-1.6629,-1.6543,-1.6654,-1.6565,-1.6513,-1.6513,-1.6513,-1.6513,-1.6513,-1.6513,-1.6513,-1.6513,-1.6513,-1.6513,-1.6513,-1.6513,-1.6513,-1.6513,-1.6513,-1.6513,-1.6513,-1.6513,-1.6479,-1.6402,-1.6402,-1.6185,-1.5645,-1.5589,-1.5333,-1.496,-1.4512,-1.4242,-1.4339,-1.4039,-1.3776,-1.3734,-1.3741,-1.3714,-1.361,-1.361,-1.361,-1.361,-1.361,-1.361,-1.361,-1.3796,-1.3845,-3.6968,-3.6928,-3.6908,-3.6849,-3.671,-3.6322,-3.6142,-3.6027,-3.5137,-3.4346,-3.3638,-3.304,-3.2132,-3.1001,-3.0265,-2.9508,-2.8742,-2.7984,-2.7841,-2.8135,-2.7762,-2.7778,-2.8104,-2.7762,-2.8277,-2.9462,-2.8493,-2.8895,-3.0263,-2.8701,-2.7637,-2.7132,-2.5373,-2.4079,-2.337,-2.2,-2.1304,-2.1273,-2.0591,-2.0235,-2.0287,-1.996,-1.9776,-1.9826,-1.9485,-1.9346,-1.9346,-1.9539,-1.9539,-1.9333,-1.9228,-1.9114,-1.8869,-1.8428,-1.8167,-1.8181,-1.7767,-1.7537,-1.755,-1.7323,-1.7212,-1.7212,-1.7212,-1.7136,-1.701,-1.6876,-1.6803,-1.6769,-1.662,-1.6522,-1.6599,-1.6543,-1.6513,-1.6513,-1.6513,-1.6513,-1.6513,-1.6513,-1.6513,-1.6513,-1.6513,-1.6513,-1.6513,-1.6513,-1.6513,-1.6513,-1.6513,-1.6513,-1.6513,-1.6513,-1.6513,-1.6513,-1.6513,-1.6281,-1.5898,-1.581,-1.5601,-1.5164,-1.472,-1.4443,-1.4373,-1.3975,-1.3658,-1.361,-1.361,-1.361,-1.361,-1.361,-1.361,-1.361,-1.361,-1.361,-1.361,-1.361,-1.361,-3.6989,-3.6989,-3.6989,-3.6948,-3.6849,-3.6766,-3.6725,-3.6705,-3.6527,-3.591,-3.4942,-3.4196,-3.3267,-3.2276,-3.1352,-3.0626,-3.0003,-2.9003,-2.8713,-2.8956,-2.8025,-2.8104,-2.8925,-2.7993,-2.8489,-2.9903,-2.8916,-2.9264,-3.0567,-2.906,-2.7992,-2.746,-2.5207,-2.3918,-2.3712,-2.2288,-2.1571,-2.1473,-2.0703,-2.0287,-2.0287,-2.0287,-2.0287,-2.0287,-2.0287,-2.0287,-2.0287,-2.0185,-2.0133,-2.0083,-1.9624,-1.9384,-1.9299,-1.8884,-1.8649,-1.8577,-1.8108,-1.776,-1.7659,-1.7385,-1.7212,-1.7212,-1.7212,-1.7157,-1.7031,-1.6973,-1.6876,-1.6761,-1.662,-1.6543,-1.6543,-1.6522,-1.6513,-1.6513,-1.6513,-1.6513,-1.6513,-1.6513,-1.6513,-1.6513,-1.6513,-1.6513,-1.6513,-1.6513,-1.6513,-1.6513,-1.6513,-1.6513,-1.6513,-1.6513,-1.6513,-1.6513,-1.6513,-1.638,-1.602,-1.5998,-1.5822,-1.5468,-1.5074,-1.4869,-1.4674,-1.4235,-1.3823,-1.381,-1.3681,-1.361,-1.361,-1.361,-1.361,-1.361,-1.361,-1.361,-1.361,-1.361,-1.361,-3.6989,-3.6989,-3.6989,-3.6987,-3.6968,-3.6849,-3.6788,-3.6768,-3.6585,-3.6447,-3.6174,-3.4743,-3.3799,-3.3107,-3.1793,-3.0767,-2.9982,-2.9711,-2.9489,-2.9183,-2.8988,-2.9004,-2.9121,-2.894,-2.9374,-3.0046,-2.9406,-2.9461,-3.0306,-2.943,-2.8288,-2.7036,-2.5973,-2.5088,-2.4332,-2.3061,-2.2322,-2.2182,-2.0967,-2.0287,-2.0287,-2.0287,-2.0287,-2.0287,-2.0287,-2.0287,-2.0287,-2.0287,-2.0235,-2.01,-1.999,-1.9866,-1.9708,-1.9291,-1.9045,-1.9011,-1.8279,-1.7625,-1.7303,-1.7206,-1.7212,-1.7212,-1.7212,-1.7199,-1.7178,-1.7052,-1.696,-1.6867,-1.6761,-1.6675,-1.6688,-1.6577,-1.6522,-1.6513,-1.6513,-1.6513,-1.6513,-1.6513,-1.6513,-1.6513,-1.6513,-1.6513,-1.6513,-1.6513,-1.6513,-1.6513,-1.6513,-1.6513,-1.6513,-1.6513,-1.6513,-1.6513,-1.6513,-1.6479,-1.6414,-1.6436,-1.6328,-1.6272,-1.5954,-1.5611,-1.5366,-1.4858,-1.4303,-1.414,-1.3928,-1.3705,-1.3621,-1.361,-1.361,-1.361,-1.361,-1.361,-1.361,-1.361,-1.361,-3.6989,-3.6989,-3.6989,-3.6989,-3.6987,-3.6948,-3.6928,-3.6908,-3.6748,-3.689,-3.7037,-3.5581,-3.4552,-3.3986,-3.3833,-3.2952,-3.149,-3.1495,-3.1177,-3.0597,-3.0313,-2.9945,-2.9509,-2.9213,-2.9501,-3.0157,-2.988,-3.0101,-3.0496,-2.9635,-2.8381,-2.7076,-2.6204,-2.5415,-2.4666,-2.3612,-2.2886,-2.2399,-2.1402,-2.072,-2.0366,-2.0287,-2.0287,-2.0287,-2.0287,-2.0287,-2.0287,-2.0287,-2.0287,-2.0202,-2.0115,-2.0025,-1.9919,-1.9654,-1.949,-1.9402,-1.8674,-1.7908,-1.7261,-1.7212,-1.7212,-1.7212,-1.7212,-1.7212,-1.7212,-1.717,-1.7073,-1.696,-1.6888,-1.6769,-1.6718,-1.6641,-1.6599,-1.6534,-1.6513,-1.65,-1.6513,-1.6513,-1.6513,-1.6513,-1.6513,-1.6513,-1.6513,-1.6513,-1.6513,-1.6513,-1.6513,-1.6513,-1.6513,-1.6513,-1.6513,-1.6513,-1.6513,-1.6513,-1.6513,-1.6513,-1.6513,-1.6436,-1.6107,-1.581,-1.5722,-1.5288,-1.4743,-1.4489,-1.421,-1.3905,-1.3644,-1.3621,-1.361,-1.361,-1.361,-1.361,-1.361,-1.361,-1.361,-3.6989,-3.6989,-3.6989,-3.6989,-3.6989,-3.6989,-3.6989,-3.697,-3.6869,-3.7079,-3.736,-3.6405,-3.5497,-3.4793,-3.5304,-3.4641,-3.3256,-3.3178,-3.2734,-3.1933,-3.155,-3.1043,-3.0425,-3.0069,-3.0101,-3.0378,-3.0283,-3.0322,-3.0503,-2.9667,-2.8498,-2.7409,-2.6798,-2.6042,-2.5116,-2.4275,-2.3491,-2.275,-2.1824,-2.1077,-2.0628,-2.0379,-2.0287,-2.0287,-2.0287,-2.0287,-2.0287,-2.0287,-2.0287,-2.0287,-2.0185,-2.0063,-2.0005,-1.9884,-1.9726,-1.9512,-1.9011,-1.8285,-1.7427,-1.7372,-1.731,-1.722,-1.7212,-1.7212,-1.7212,-1.7212,-1.7157,-1.7086,-1.7023,-1.6918,-1.6782,-1.6761,-1.6705,-1.6641,-1.6607,-1.6607,-1.6607,-1.6595,-1.6607,-1.6565,-1.6577,-1.6543,-1.6522,-1.6513,-1.6513,-1.6513,-1.6513,-1.6513,-1.6513,-1.6513,-1.6513,-1.6513,-1.6513,-1.6513,-1.6513,-1.6513,-1.6513,-1.6457,-1.6173,-1.6042,-1.5942,-1.5591,-1.5289,-1.5062,-1.4709,-1.4326,-1.3999,-1.3823,-1.361,-1.361,-1.361,-1.361,-1.361,-1.361,-1.361,-3.6989,-3.6989,-3.6989,-3.7007,-3.7007,-3.7007,-3.7007,-3.7058,-3.6869,-3.6821,-3.6928,-3.722,-3.6592,-3.5311,-3.5394,-3.4966,-3.4435,-3.4443,-3.3864,-3.2812,-3.2658,-3.2385,-3.1913,-3.1866,-3.159,-3.1116,-3.0647,-3.0038,-2.943,-2.9177,-2.8735,-2.8047,-2.7905,-2.7229,-2.5947,-2.5105,-2.4315,-2.3421,-2.2208,-2.1363,-2.1168,-2.0628,-2.0333,-2.032,-2.0287,-2.0287,-2.0287,-2.0287,-2.0287,-2.0287,-2.0168,-2.008,-2.0005,-1.9866,-1.9599,-1.9213,-1.9082,-1.8674,-1.7928,-1.7747,-1.7618,-1.7282,-1.722,-1.7212,-1.7212,-1.7212,-1.7225,-1.7204,-1.7256,-1.7151,-1.7033,-1.694,-1.6888,-1.6867,-1.6888,-1.6854,-1.6867,-1.6833,-1.6812,-1.6718,-1.6675,-1.662,-1.6534,-1.6513,-1.6522,-1.6522,-1.65,-1.6513,-1.6513,-1.6513,-1.6513,-1.6513,-1.6513,-1.6513,-1.6513,-1.6513,-1.6513,-1.6479,-1.6423,-1.6402,-1.6281,-1.6129,-1.5888,-1.5534,-1.4937,-1.4524,-1.4316,-1.4035,-1.3705,-1.361,-1.361,-1.361,-1.361,-1.361,-1.361,-3.6989,-3.6989,-3.6989,-3.7271,-3.7637,-3.7218,-3.7271,-3.7654,-3.7141,-3.7166,-3.7411,-3.7186,-3.7186,-3.7461,-3.6913,-3.6048,-3.5111,-3.5951,-3.566,-3.438,-3.3989,-3.3498,-3.2878,-3.2318,-3.1916,-3.1718,-3.1611,-3.1144,-3.0393,-2.9572,-2.8751,-2.8211,-2.8117,-2.7583,-2.6709,-2.5869,-2.5096,-2.4271,-2.3239,-2.2276,-2.1381,-2.1057,-2.0751,-2.0318,-2.0287,-2.0287,-2.0287,-2.0287,-2.0287,-2.0287,-2.0252,-2.0166,-2.0005,-1.9833,-1.9545,-1.9157,-1.9116,-1.8841,-1.8319,-1.7982,-1.7747,-1.7585,-1.7331,-1.728,-1.7212,-1.7212,-1.7356,-1.7669,-1.7795,-1.7826,-1.7965,-1.7476,-1.6939,-1.6897,-1.691,-1.6935,-1.691,-1.691,-1.6867,-1.6752,-1.6697,-1.6675,-1.6641,-1.6633,-1.6633,-1.6633,-1.6543,-1.6522,-1.65,-1.65,-1.6522,-1.6513,-1.6513,-1.6513,-1.6513,-1.6513,-1.6513,-1.6513,-1.6479,-1.6479,-1.6414,-1.638,-1.6163,-1.5822,-1.522,-1.4731,-1.4501,-1.3965,-1.3681,-1.361,-1.361,-1.361,-1.361,-1.361,-1.361,-3.7148,-3.7321,-3.7356,-3.7795,-3.8409,-3.797,-3.8023,-3.8427,-3.7953,-3.798,-3.8171,-3.7707,-3.8003,-3.8668,-3.839,-3.7569,-3.6473,-3.737,-3.7267,-3.6331,-3.5972,-3.5346,-3.4479,-3.3804,-3.329,-3.2842,-3.2385,-3.177,-3.0837,-2.9682,-2.8877,-2.8458,-2.8426,-2.7984,-2.7162,-2.6546,-2.5801,-2.4804,-2.3935,-2.3014,-2.2068,-2.1522,-2.1103,-2.0674,-2.0428,-2.0287,-2.0287,-2.0287,-2.0287,-2.0287,-2.0287,-2.0233,-2.0008,-1.9812,-1.9599,-1.9343,-1.9306,-1.9105,-1.8745,-1.8397,-1.825,-1.8302,-1.8119,-1.7974,-1.8169,-1.811,-1.8229,-1.8491,-1.8428,-1.8545,-1.8627,-1.8117,-1.7622,-1.754,-1.7402,-1.7286,-1.7273,-1.7106,-1.6965,-1.6846,-1.6782,-1.6782,-1.6761,-1.6761,-1.6782,-1.6774,-1.6671,-1.6629,-1.6629,-1.6629,-1.6607,-1.6586,-1.662,-1.6607,-1.6599,-1.6599,-1.6556,-1.6522,-1.6513,-1.6513,-1.6513,-1.6513,-1.6392,-1.6054,-1.5601,-1.5085,-1.4547,-1.3988,-1.3729,-1.3634,-1.361,-1.361,-1.361,-1.361,-1.361,-3.7479,-3.8076,-3.8128,-3.8585,-3.9231,-3.9126,-3.9231,-3.9269,-3.9217,-3.9049,-3.8982,-3.8978,-3.8833,-3.8955,-3.9292,-3.9225,-3.857,-3.8587,-3.8518,-3.8267,-3.8296,-3.7643,-3.6514,-3.6276,-3.5559,-3.4473,-3.2889,-3.1532,-3.0625,-2.9792,-2.9238,-2.916,-2.9058,-2.8435,-2.7172,-2.7062,-2.6341,-2.5116,-2.4186,-2.3589,-2.3324,-2.2084,-2.135,-2.1165,-2.0643,-2.0287,-2.0287,-2.0287,-2.0287,-2.0287,-2.0287,-2.02,-2.0084,-1.9827,-1.9705,-1.9806,-1.9717,-1.9505,-1.9245,-1.916,-1.9155,-1.9343,-1.9388,-1.9482,-1.9817,-1.9712,-1.959,-1.9632,-1.9342,-1.9078,-1.9153,-1.91,-1.8914,-1.8819,-1.8304,-1.8057,-1.7922,-1.7552,-1.7149,-1.7002,-1.6931,-1.691,-1.691,-1.6888,-1.6888,-1.6876,-1.6854,-1.6833,-1.6833,-1.6833,-1.6825,-1.6761,-1.6748,-1.6757,-1.6727,-1.6697,-1.662,-1.6565,-1.6522,-1.6513,-1.6513,-1.6513,-1.6513,-1.6228,-1.5888,-1.5366,-1.457,-1.4069,-1.3787,-1.3692,-1.3668,-1.361,-1.361,-1.361,-1.361,-3.8725,-3.8918,-3.8936,-3.941,-3.9989,-3.955,-3.9585,-4.0042,-3.9568,-3.9284,-3.9221,-3.9122,-3.9058,-3.9046,-3.9225,-3.942,-3.9624,-3.9601,-3.9274,-3.8743,-3.8629,-3.8171,-3.7334,-3.6871,-3.6011,-3.483,-3.3756,-3.3057,-3.2429,-3.1066,-3.0325,-3.0193,-2.9489,-2.8909,-2.8356,-2.7567,-2.6735,-2.6188,-2.4951,-2.4055,-2.3495,-2.2516,-2.1781,-2.1288,-2.0657,-2.0287,-2.0287,-2.0287,-2.0287,-2.0287,-2.0287,-2.0415,-2.0524,-2.0053,-2.0175,-2.0842,-2.0172,-2.015,-2.0679,-2.0211,-2.003,-2.0376,-2.0293,-2.0182,-2.0345,-2.0322,-2.041,-2.0731,-2.0645,-2.0657,-2.1006,-2.1093,-2.0473,-1.9058,-1.8754,-1.8515,-1.81,-1.7514,-1.7104,-1.701,-1.6981,-1.696,-1.696,-1.6981,-1.6981,-1.6981,-1.6939,-1.6931,-1.6897,-1.6931,-1.691,-1.6867,-1.6876,-1.6897,-1.6833,-1.6812,-1.6769,-1.6693,-1.6629,-1.6577,-1.6556,-1.6534,-1.6534,-1.6392,-1.6064,-1.5522,-1.4731,-1.4233,-1.3975,-1.3716,-1.3644,-1.361,-1.361,-1.361,-1.361,-3.948,-3.9743,-3.9743,-4.02,-4.0854,-4.034,-4.0428,-4.0797,-4.0375,-4.0182,-4.0161,-4.0061,-3.9979,-3.9975,-3.9927,-4.0105,-4.0501,-4.0513,-4.0167,-3.9564,-3.9185,-3.8656,-3.7836,-3.6935,-3.6107,-3.514,-3.4392,-3.3984,-3.3719,-3.2323,-3.1361,-3.0804,-3.0138,-2.9369,-2.8781,-2.7936,-2.7245,-2.6535,-2.554,-2.4636,-2.3887,-2.3103,-2.2471,-2.1981,-2.115,-2.0703,-2.0674,-2.0443,-2.0287,-2.0287,-2.0237,-2.0362,-2.0552,-2.03,-2.049,-2.0961,-2.0906,-2.0842,-2.1525,-2.1045,-2.098,-2.1489,-2.1414,-2.1418,-2.1491,-2.1478,-2.1547,-2.1818,-2.1679,-2.1729,-2.1983,-2.2067,-2.1425,-2.0296,-1.9747,-1.909,-1.8297,-1.7501,-1.7125,-1.7086,-1.7073,-1.7073,-1.7073,-1.7086,-1.7065,-1.7065,-1.7044,-1.7002,-1.7002,-1.7023,-1.7002,-1.6981,-1.7023,-1.7002,-1.6939,-1.6939,-1.6939,-1.6863,-1.6778,-1.6671,-1.662,-1.6599,-1.6599,-1.6392,-1.6107,-1.5645,-1.4915,-1.4512,-1.421,-1.3941,-1.3705,-1.361,-1.361,-1.361,-1.361,-3.9884,-4.0537,-4.0555,-4.092,-4.1499,-4.1481,-4.1446,-4.1552,-4.1516,-4.1446,-4.1464,-4.1354,-4.138,-4.1356,-4.1181,-4.1171,-4.122,-4.1168,-4.1093,-4.0786,-4.0226,-3.9373,-3.8387,-3.7154,-3.6246,-3.5598,-3.4999,-3.4459,-3.4208,-3.3256,-3.2221,-3.1375,-3.0946,-3.0029,-2.8745,-2.8189,-2.7446,-2.6498,-2.5895,-2.5269,-2.46,-2.3694,-2.3225,-2.3117,-2.2012,-2.1304,-2.1119,-2.0718,-2.0428,-2.0349,-2.04,-2.0495,-2.037,-2.0639,-2.0892,-2.1195,-2.1505,-2.1704,-2.1824,-2.1834,-2.2044,-2.2643,-2.2685,-2.2972,-2.3182,-2.2893,-2.2724,-2.2818,-2.248,-2.2234,-2.2276,-2.2314,-2.2174,-2.2007,-2.0864,-1.9647,-1.8372,-1.7604,-1.723,-1.7191,-1.7212,-1.7212,-1.7191,-1.7191,-1.7191,-1.7191,-1.7178,-1.7157,-1.7157,-1.7149,-1.7115,-1.7115,-1.7128,-1.7107,-1.7044,-1.7031,-1.7031,-1.701,-1.6926,-1.6842,-1.6727,-1.6684,-1.6641,-1.6436,-1.6207,-1.5724,-1.53,-1.4949,-1.4547,-1.4222,-1.3988,-1.3729,-1.3658,-1.3729,-1.3634,-4.1113,-4.1306,-4.1306,-4.1429,-4.1587,-4.1604,-4.1604,-4.1604,-4.1604,-4.1604,-4.1604,-4.1604,-4.1582,-4.1542,-4.1538,-4.1538,-4.1475,-4.1475,-4.1431,-4.1218,-4.055,-3.9606,-3.8627,-3.7646,-3.6793,-3.6127,-3.5831,-3.5762,-3.5561,-3.451,-3.3667,-3.2991,-3.1632,-3.0551,-2.9641,-2.8638,-2.7917,-2.7278,-2.6219,-2.5607,-2.5108,-2.3968,-2.3302,-2.3209,-2.249,-2.1812,-2.1365,-2.1134,-2.1026,-2.1073,-2.1443,-2.1873,-2.2045,-2.1842,-2.2011,-2.2687,-2.2339,-2.24,-2.305,-2.2899,-2.301,-2.3555,-2.3501,-2.3595,-2.3709,-2.3551,-2.3421,-2.3399,-2.3253,-2.3165,-2.3187,-2.3165,-2.3031,-2.252,-2.1173,-1.9768,-1.8829,-1.7813,-1.7212,-1.7212,-1.7238,-1.7251,-1.7212,-1.7212,-1.7212,-1.7212,-1.7212,-1.7212,-1.7212,-1.7212,-1.7157,-1.7178,-1.7191,-1.7191,-1.717,-1.7157,-1.7136,-1.7157,-1.7094,-1.7031,-1.6897,-1.6761,-1.6718,-1.662,-1.6479,-1.6076,-1.58,-1.5522,-1.5073,-1.4605,-1.4385,-1.4222,-1.4035,-1.3988,-1.3752,-4.1604,-4.1604,-4.1604,-4.1604,-4.1604,-4.1604,-4.1604,-4.1604,-4.1604,-4.1604,-4.1604,-4.1604,-4.1604,-4.1604,-4.1604,-4.1604,-4.1604,-4.1604,-4.156,-4.1423,-4.0989,-3.9834,-3.8486,-3.7672,-3.706,-3.637,-3.6301,-3.6266,-3.6172,-3.5548,-3.488,-3.3985,-3.2782,-3.1616,-3.0437,-2.953,-2.8609,-2.7904,-2.6735,-2.5965,-2.5512,-2.4369,-2.3845,-2.3594,-2.3071,-2.2394,-2.1858,-2.1981,-2.2043,-2.187,-2.2048,-2.239,-2.2653,-2.2594,-2.2793,-2.3548,-2.3041,-2.3244,-2.373,-2.3624,-2.3624,-2.3912,-2.3919,-2.3861,-2.3782,-2.3717,-2.3674,-2.3595,-2.3595,-2.3595,-2.3595,-2.3595,-2.3377,-2.2818,-2.1552,-2.0393,-1.9667,-1.8627,-1.79,-1.7669,-1.7565,-1.7447,-1.7251,-1.7212,-1.7212,-1.7212,-1.7212,-1.7212,-1.7212,-1.7212,-1.7212,-1.7212,-1.7212,-1.7212,-1.7191,-1.7178,-1.7178,-1.7199,-1.7178,-1.7115,-1.7023,-1.6867,-1.6782,-1.6705,-1.6641,-1.6479,-1.6185,-1.5888,-1.5557,-1.5175,-1.4937,-1.4777,-1.4628,-1.4316,-1.4059,-4.1604,-4.1604,-4.1604,-4.1604,-4.1604,-4.1604,-4.1604,-4.1604,-4.1604,-4.1604,-4.1604,-4.1604,-4.1604,-4.1604,-4.1604,-4.1604,-4.1604,-4.1604,-4.1604,-4.152,-4.1243,-4.0266,-3.853,-3.8204,-3.7482,-3.6757,-3.6512,-3.6456,-3.6422,-3.6297,-3.5737,-3.4742,-3.4035,-3.2937,-3.1596,-3.069,-2.9662,-2.8713,-2.7703,-2.6931,-2.6272,-2.5264,-2.4693,-2.4578,-2.3712,-2.3149,-2.2833,-2.2917,-2.2978,-2.2517,-2.2521,-2.2617,-2.2615,-2.3024,-2.3213,-2.3336,-2.3671,-2.393,-2.403,-2.4021,-2.4,-2.4046,-2.4046,-2.3961,-2.3882,-2.3818,-2.3739,-2.3674,-2.3595,-2.3595,-2.3595,-2.3595,-2.3443,-2.3025,-2.2389,-2.166,-2.0804,-1.9716,-1.8792,-1.8245,-1.814,-1.78,-1.7442,-1.7212,-1.7212,-1.7212,-1.7212,-1.7212,-1.7212,-1.7212,-1.7212,-1.7212,-1.7212,-1.7212,-1.7212,-1.7212,-1.7199,-1.7199,-1.7199,-1.7157,-1.7073,-1.696,-1.6854,-1.6791,-1.6748,-1.6607,-1.6337,-1.6098,-1.5923,-1.5866,-1.5734,-1.5557,-1.5355,-1.4858,-1.4513,-4.1604,-4.1604,-4.1604,-4.1604,-4.1604,-4.1604,-4.1604,-4.1604,-4.1604,-4.1604,-4.1604,-4.1604,-4.1604,-4.1604,-4.1604,-4.1604,-4.1604,-4.1604,-4.1604,-4.1582,-4.1471,-4.0861,-3.9791,-3.9445,-3.8607,-3.7793,-3.7879,-3.7439,-3.6749,-3.6814,-3.6585,-3.544,-3.4677,-3.3974,-3.3142,-3.1939,-3.1166,-3.0511,-2.938,-2.8484,-2.7824,-2.6557,-2.583,-2.5807,-2.459,-2.3897,-2.3778,-2.3502,-2.3486,-2.3763,-2.381,-2.3682,-2.3738,-2.3876,-2.3948,-2.3958,-2.4081,-2.4219,-2.4219,-2.4213,-2.4234,-2.4213,-2.4172,-2.4145,-2.4103,-2.3903,-2.3818,-2.3739,-2.3674,-2.3616,-2.3595,-2.3595,-2.353,-2.3296,-2.2988,-2.2606,-2.2126,-2.0692,-1.9493,-1.8857,-1.8445,-1.79,-1.7371,-1.7402,-1.7355,-1.7267,-1.7233,-1.7233,-1.7212,-1.7212,-1.7212,-1.7212,-1.7212,-1.7212,-1.7212,-1.7212,-1.7212,-1.7212,-1.7212,-1.7212,-1.7115,-1.7052,-1.696,-1.6918,-1.6876,-1.6714,-1.6531,-1.6565,-1.6457,-1.6488,-1.6488,-1.6238,-1.591,-1.5433,-1.5073,-4.2166,-4.2131,-4.1762,-4.1815,-4.2061,-4.1762,-4.1604,-4.1604,-4.1604,-4.1604,-4.1604,-4.1604,-4.1604,-4.1604,-4.1604,-4.1604,-4.1604,-4.1604,-4.1604,-4.1582,-4.152,-4.1265,-4.0958,-4.0518,-3.9758,-3.8495,-3.8419,-3.7892,-3.7305,-3.7198,-3.6939,-3.5971,-3.5319,-3.4964,-3.456,-3.3317,-3.2448,-3.1742,-3.0563,-2.9568,-2.8833,-2.7753,-2.6627,-2.6346,-2.5358,-2.4786,-2.4266,-2.3958,-2.401,-2.4189,-2.4281,-2.4281,-2.4281,-2.4281,-2.4281,-2.4281,-2.4281,-2.4281,-2.4281,-2.4281,-2.4281,-2.4281,-2.4276,-2.4229,-2.4202,-2.4046,-2.394,-2.3818,-2.3739,-2.3674,-2.3595,-2.3595,-2.3595,-2.3551,-2.3377,-2.3246,-2.2973,-2.1786,-2.06,-2.0103,-1.9839,-1.9203,-1.869,-1.8205,-1.7819,-1.784,-1.763,-1.7575,-1.7212,-1.7212,-1.7212,-1.7212,-1.7212,-1.7212,-1.7212,-1.7212,-1.7212,-1.7212,-1.7212,-1.7212,-1.7178,-1.7128,-1.7086,-1.7023,-1.6981,-1.696,-1.682,-1.6897,-1.6918,-1.6905,-1.6842,-1.6735,-1.6509,-1.6008,-1.5732,-4.2973,-4.2921,-4.2236,-4.2289,-4.264,-4.2096,-4.1832,-4.1815,-4.1639,-4.171,-4.1745,-4.1692,-4.1604,-4.1604,-4.1604,-4.1604,-4.1604,-4.1604,-4.1604,-4.1604,-4.1582,-4.1529,-4.1415,-4.1119,-4.056,-3.9245,-3.918,-3.8617,-3.7944,-3.7754,-3.7659,-3.675,-3.6146,-3.6094,-3.5847,-3.4718,-3.3723,-3.3079,-3.1712,-3.0499,-2.9648,-2.8679,-2.7635,-2.6484,-2.6086,-2.5444,-2.4741,-2.4348,-2.4266,-2.4281,-2.4281,-2.4281,-2.4281,-2.4281,-2.4281,-2.4281,-2.4281,-2.4281,-2.4281,-2.4281,-2.4281,-2.4281,-2.4281,-2.4276,-2.4213,-2.4145,-2.404,-2.3897,-2.376,-2.3696,-2.3595,-2.3595,-2.3595,-2.3595,-2.3595,-2.3595,-2.3465,-2.2801,-2.2069,-2.1399,-2.0842,-2.022,-1.9775,-1.9315,-1.8838,-1.844,-1.8222,-1.7949,-1.7646,-1.735,-1.7442,-1.7329,-1.7329,-1.7225,-1.7212,-1.7212,-1.7212,-1.7212,-1.7212,-1.7212,-1.7212,-1.7191,-1.7128,-1.7086,-1.7044,-1.7044,-1.7031,-1.7031,-1.7073,-1.717,-1.7115,-1.6947,-1.6765,-1.6548,-1.6355,-4.3728,-4.3711,-4.357,-4.3254,-4.2833,-4.264,-4.2517,-4.2477,-4.1832,-4.199,-4.2429,-4.1903,-4.1604,-4.1604,-4.1604,-4.1604,-4.1604,-4.1604,-4.1604,-4.1604,-4.1604,-4.1604,-4.156,-4.1431,-4.1068,-4.0879,-4.0458,-3.9669,-3.8858,-3.8922,-3.8612,-3.8146,-3.7403,-3.7291,-3.7252,-3.6178,-3.5002,-3.4588,-3.3236,-3.2029,-3.0968,-2.992,-2.8659,-2.7219,-2.6832,-2.6159,-2.5284,-2.4646,-2.4281,-2.4281,-2.4281,-2.4302,-2.4323,-2.4323,-2.4281,-2.4281,-2.4281,-2.4281,-2.4281,-2.4281,-2.4281,-2.4281,-2.4281,-2.4281,-2.424,-2.4135,-2.4046,-2.3925,-2.376,-2.3638,-2.3595,-2.3616,-2.3616,-2.3595,-2.3595,-2.3595,-2.3551,-2.3318,-2.2893,-2.2156,-2.1642,-2.1245,-2.0827,-2.0455,-2.0082,-1.9683,-1.9398,-1.9126,-1.8811,-1.8331,-1.7943,-1.7751,-1.7499,-1.7342,-1.7212,-1.7212,-1.7212,-1.7212,-1.7212,-1.7191,-1.7191,-1.7212,-1.7191,-1.7107,-1.7128,-1.7149,-1.7136,-1.7136,-1.7157,-1.7191,-1.7157,-1.7136,-1.6955,-1.6808,-1.6808,-4.4973,-4.4606,-4.3847,-4.348,-4.3219,-4.2482,-4.2184,-4.2131,-4.178,-4.1815,-4.199,-4.178,-4.1604,-4.1604,-4.1604,-4.1604,-4.1604,-4.1604,-4.1604,-4.1604,-4.1604,-4.1604,-4.1582,-4.1471,-4.138,-4.1232,-4.1036,-4.0423,-3.9307,-3.9474,-3.9319,-3.856,-3.7875,-3.8047,-3.8525,-3.7366,-3.649,-3.6025,-3.4852,-3.3358,-3.2078,-3.099,-2.9736,-2.8653,-2.7883,-2.7235,-2.6299,-2.5503,-2.516,-2.5082,-2.4817,-2.4645,-2.4574,-2.4446,-2.4302,-2.4302,-2.4302,-2.4281,-2.4281,-2.4281,-2.4281,-2.4281,-2.4312,-2.4281,-2.4297,-2.4213,-2.4139,-2.3967,-2.3839,-2.3717,-2.3717,-2.3696,-2.3696,-2.3696,-2.3653,-2.3595,-2.3595,-2.3595,-2.322,-2.2795,-2.2673,-2.2345,-2.1898,-2.157,-2.1293,-2.0974,-2.0621,-2.0306,-2.0004,-1.9241,-1.8542,-1.7921,-1.7602,-1.7342,-1.7212,-1.7212,-1.7212,-1.7212,-1.7199,-1.7178,-1.717,-1.7191,-1.7149,-1.7086,-1.7128,-1.7212,-1.7212,-1.7178,-1.7199,-1.7212,-1.7178,-1.7157,-1.7128,-1.7086,-1.7065,-4.586,-4.5136,-4.3917,-4.3558,-4.359,-4.2709,-4.2163,-4.1983,-4.1978,-4.1974,-4.1881,-4.1697,-4.1604,-4.1604,-4.1604,-4.1604,-4.1604,-4.1604,-4.1604,-4.1604,-4.1604,-4.1604,-4.156,-4.1515,-4.1426,-4.1358,-4.1244,-4.0764,-4.0164,-4.0032,-3.9612,-3.9112,-3.8306,-3.8479,-3.9284,-3.8129,-3.7784,-3.7202,-3.599,-3.4301,-3.2627,-3.1594,-3.076,-2.9782,-2.9214,-2.8401,-2.7487,-2.6697,-2.6179,-2.5909,-2.556,-2.5195,-2.4993,-2.4639,-2.4426,-2.4405,-2.4364,-2.4302,-2.4312,-2.4527,-2.4604,-2.4604,-2.4687,-2.4712,-2.4697,-2.4716,-2.4392,-2.407,-2.3861,-2.3818,-2.3818,-2.376,-2.376,-2.3775,-2.3674,-2.3595,-2.3595,-2.3595,-2.3595,-2.344,-2.3595,-2.3291,-2.2708,-2.2642,-2.2361,-2.2139,-2.1801,-2.1491,-2.1068,-1.9889,-1.9045,-1.8148,-1.7639,-1.7345,-1.7212,-1.7212,-1.7212,-1.7212,-1.7199,-1.7178,-1.7157,-1.717,-1.7107,-1.7107,-1.7149,-1.7212,-1.7212,-1.7212,-1.7212,-1.7212,-1.7212,-1.7212,-1.717,-1.717,-1.7149,-4.562,-4.4688,-4.4492,-4.4078,-4.3594,-4.3896,-4.3772,-4.3127,-4.2871,-4.2904,-4.267,-4.2036,-4.1631,-4.1648,-4.1604,-4.1604,-4.1604,-4.1604,-4.1604,-4.1604,-4.1604,-4.1604,-4.1604,-4.1604,-4.1493,-4.1426,-4.138,-4.1244,-4.0874,-4.0723,-4.067,-4.0221,-3.925,-3.9221,-4.0239,-3.875,-3.7887,-3.7978,-3.6318,-3.4149,-3.2234,-3.1528,-3.0995,-3.0446,-2.981,-2.9227,-2.8614,-2.7936,-2.7336,-2.6629,-2.6484,-2.606,-2.5515,-2.5024,-2.4863,-2.4719,-2.4533,-2.4297,-2.4456,-2.4795,-2.5142,-2.525,-2.5641,-2.601,-2.5681,-2.5216,-2.4716,-2.4034,-2.3882,-2.3882,-2.3919,-2.3782,-2.3739,-2.3739,-2.3739,-2.3674,-2.3638,-2.3638,-2.3638,-2.3616,-2.3616,-2.3595,-2.3306,-2.3387,-2.3432,-2.3206,-2.2958,-2.2607,-2.1944,-2.0662,-1.9203,-1.8205,-1.7699,-1.7418,-1.7212,-1.7212,-1.7259,-1.7225,-1.7212,-1.7178,-1.7136,-1.7128,-1.717,-1.717,-1.7212,-1.7212,-1.7212,-1.7212,-1.7212,-1.7212,-1.7212,-1.7212,-1.7212,-1.7225,-1.7316,-4.5516,-4.5185,-4.477,-4.4311,-4.387,-4.3797,-4.3582,-4.3253,-4.2981,-4.2777,-4.262,-4.2329,-4.2047,-4.192,-4.174,-4.1604,-4.1604,-4.1604,-4.1604,-4.1604,-4.1604,-4.1604,-4.1604,-4.1604,-4.156,-4.1515,-4.1448,-4.138,-4.1238,-4.1099,-4.0982,-4.0687,-3.9871,-3.9721,-4.0601,-3.9445,-3.9077,-3.8525,-3.7016,-3.5091,-3.3665,-3.2585,-3.1899,-3.1648,-3.0741,-3.0202,-2.9814,-2.9241,-2.8497,-2.7764,-2.7366,-2.6702,-2.603,-2.5551,-2.5288,-2.5462,-2.5335,-2.5124,-2.4976,-2.5195,-2.5512,-2.5872,-2.618,-2.6118,-2.5819,-2.5461,-2.4952,-2.42,-2.4082,-2.4046,-2.4103,-2.4003,-2.3982,-2.3961,-2.3839,-2.3818,-2.376,-2.3717,-2.3717,-2.3696,-2.3638,-2.3616,-2.3595,-2.358,-2.3565,-2.3455,-2.3251,-2.2981,-2.2214,-2.1096,-1.9558,-1.8031,-1.7706,-1.7529,-1.7323,-1.7212,-1.7298,-1.7298,-1.7251,-1.7217,-1.7128,-1.7107,-1.7222,-1.7196,-1.717,-1.7191,-1.7212,-1.7212,-1.7212,-1.7212,-1.7212,-1.729,-1.7408,-1.7656,-1.7721,-4.5395,-4.5341,-4.4667,-4.427,-4.4072,-4.3687,-4.3449,-4.3231,-4.325,-4.297,-4.2637,-4.2541,-4.242,-4.2177,-4.1856,-4.1653,-4.1604,-4.1604,-4.1604,-4.1604,-4.1604,-4.1604,-4.1604,-4.1604,-4.1604,-4.1604,-4.1515,-4.1426,-4.1305,-4.107,-4.0735,-4.0648,-3.9945,-3.9842,-3.998,-3.9543,-3.9112,-3.8646,-3.7317,-3.6066,-3.5132,-3.3881,-3.3242,-3.2627,-3.1924,-3.1167,-3.0914,-3.0491,-2.9768,-2.869,-2.8201,-2.7612,-2.6903,-2.6429,-2.6355,-2.6478,-2.6429,-2.623,-2.6094,-2.6158,-2.6187,-2.6488,-2.6795,-2.6826,-2.6096,-2.5676,-2.5225,-2.4627,-2.4242,-2.4233,-2.4223,-2.4166,-2.4103,-2.4024,-2.3982,-2.3961,-2.3903,-2.3797,-2.3717,-2.3674,-2.3616,-2.3595,-2.3595,-2.3595,-2.3595,-2.3595,-2.3463,-2.3302,-2.2402,-2.1327,-2.0047,-1.8516,-1.8378,-1.8194,-1.7851,-1.7671,-1.7594,-1.7489,-1.7455,-1.74,-1.7436,-1.7375,-1.7431,-1.7353,-1.7209,-1.7191,-1.7212,-1.7212,-1.7212,-1.7264,-1.7329,-1.7499,-1.7682,-1.797,-1.8087,-4.5242,-4.4533,-4.4019,-4.3789,-4.3828,-4.4492,-4.4326,-4.3753,-4.4212,-4.3996,-4.3376,-4.2884,-4.2539,-4.2322,-4.205,-4.1784,-4.1626,-4.1604,-4.1604,-4.1604,-4.1604,-4.1604,-4.1604,-4.1604,-4.1604,-4.1604,-4.156,-4.1493,-4.1303,-4.0909,-4.0421,-3.995,-3.9686,-3.9255,-3.9129,-3.9077,-3.8732,-3.8405,-3.7593,-3.7102,-3.629,-3.5261,-3.4428,-3.3707,-3.2932,-3.2159,-3.1528,-3.1389,-3.0876,-2.9617,-2.9309,-2.8832,-2.8183,-2.7614,-2.7607,-2.7819,-2.7543,-2.746,-2.7579,-2.7223,-2.7203,-2.7457,-2.7673,-2.7688,-2.6965,-2.6503,-2.598,-2.5182,-2.4679,-2.4342,-2.4275,-2.4181,-2.4261,-2.4088,-2.4046,-2.3961,-2.3882,-2.3754,-2.3674,-2.3653,-2.3616,-2.3595,-2.3595,-2.3595,-2.3595,-2.3595,-2.3505,-2.3329,-2.2432,-2.1398,-2.0442,-1.9462,-1.9327,-1.9099,-1.8678,-1.8536,-1.8481,-1.8261,-1.8092,-1.7987,-1.7922,-1.7831,-1.7491,-1.7426,-1.7269,-1.7251,-1.7303,-1.7539,-1.7643,-1.746,-1.7499,-1.7826,-1.8065,-1.834,-1.8379,-4.4782,-4.4468,-4.4262,-4.4203,-4.4222,-4.4505,-4.4483,-4.4326,-4.479,-4.4864,-4.4391,-4.3306,-4.2789,-4.2733,-4.2356,-4.1998,-4.1805,-4.1784,-4.1697,-4.1626,-4.1604,-4.1604,-4.1604,-4.1604,-4.1604,-4.1604,-4.1604,-4.1582,-4.1468,-4.0928,-4.0167,-3.9685,-3.9205,-3.8972,-3.876,-3.8784,-3.887,-3.887,-3.8744,-3.851,-3.8114,-3.6595,-3.5624,-3.5332,-3.3459,-3.3098,-3.2977,-3.2582,-3.2049,-3.1464,-3.093,-3.0243,-2.9521,-2.8933,-2.8817,-2.9092,-2.8704,-2.8791,-2.874,-2.8198,-2.7588,-2.8011,-2.8211,-2.8158,-2.7574,-2.6834,-2.611,-2.545,-2.509,-2.4829,-2.4337,-2.4572,-2.4729,-2.4334,-2.4088,-2.4003,-2.3882,-2.3775,-2.3711,-2.3696,-2.3638,-2.3595,-2.3595,-2.3595,-2.3595,-2.3595,-2.3475,-2.3236,-2.2396,-2.1739,-2.0922,-2.0353,-2.0226,-1.9951,-1.9538,-1.9429,-1.9383,-1.9128,-1.8839,-1.868,-1.8499,-1.7617,-1.7342,-1.735,-1.7534,-1.7656,-1.7839,-1.8087,-1.8022,-1.7669,-1.7878,-1.8323,-1.8548,-1.8734,-1.8734,-4.4482,-4.4482,-4.4482,-4.4482,-4.4482,-4.4482,-4.4482,-4.4548,-4.4871,-4.5043,-4.4895,-4.3679,-4.3377,-4.3487,-4.288,-4.2568,-4.2355,-4.2097,-4.1797,-4.1653,-4.1604,-4.1604,-4.1604,-4.1604,-4.1604,-4.1604,-4.1569,-4.1552,-4.1161,-4.092,-3.9905,-3.8942,-3.8343,-3.8023,-3.7978,-3.8405,-3.8905,-3.9267,-3.937,-3.9733,-3.9526,-3.8146,-3.7025,-3.6642,-3.4884,-3.4005,-3.4005,-3.3643,-3.3074,-3.2555,-3.202,-3.145,-3.0795,-3.0257,-2.9917,-2.9941,-2.9949,-2.9885,-2.9621,-2.9083,-2.8364,-2.8779,-2.885,-2.8568,-2.7938,-2.7302,-2.6787,-2.618,-2.5826,-2.5327,-2.4733,-2.4937,-2.4817,-2.4376,-2.4218,-2.4103,-2.3982,-2.3882,-2.3818,-2.3782,-2.3696,-2.3595,-2.3595,-2.3595,-2.3595,-2.3595,-2.355,-2.3266,-2.2637,-2.2082,-2.1724,-2.1292,-2.1083,-2.0764,-2.042,-2.0352,-2.0293,-2.0436,-2.007,-1.9546,-1.9106,-1.8291,-1.7943,-1.8307,-1.8437,-1.828,-1.8257,-1.8362,-1.81,-1.7769,-1.8218,-1.8819,-1.8979,-1.9139,-1.918,-4.4482,-4.4482,-4.4482,-4.4482,-4.4482,-4.4482,-4.4482,-4.4501,-4.4548,-4.4627,-4.4659,-4.4135,-4.4241,-4.4375,-4.3414,-4.3099,-4.3032,-4.238,-4.1874,-4.174,-4.1609,-4.1604,-4.1604,-4.1604,-4.1604,-4.1604,-4.1569,-4.1288,-4.0731,-4.0249,-3.9221,-3.8241,-3.761,-3.6925,-3.646,-3.6473,-3.7249,-3.8422,-3.8698,-3.9698,-4.0077,-3.9129,-3.8474,-3.7663,-3.6094,-3.5076,-3.4956,-3.4456,-3.3921,-3.3559,-3.2679,-3.2161,-3.1919,-3.0984,-3.0787,-3.1168,-3.079,-3.0579,-3.0423,-2.9978,-2.9739,-2.9556,-2.9432,-2.9313,-2.8976,-2.8388,-2.7695,-2.7029,-2.6671,-2.6041,-2.5626,-2.5342,-2.5069,-2.4756,-2.4627,-2.4365,-2.4295,-2.3903,-2.3839,-2.3797,-2.3696,-2.3595,-2.3595,-2.3595,-2.3595,-2.3595,-2.3595,-2.3266,-2.2733,-2.2547,-2.2312,-2.1943,-2.1728,-2.1792,-2.1478,-2.1262,-2.1225,-2.1413,-2.1178,-2.0501,-2.0183,-1.9839,-1.962,-1.9532,-1.9235,-1.8998,-1.8736,-1.8545,-1.8532,-1.8633,-1.8845,-1.9253,-1.9423,-1.9582,-1.9614,-4.4482,-4.4482,-4.4482,-4.4482,-4.4482,-4.4482,-4.4482,-4.4482,-4.4519,-4.4777,-4.5035,-4.4494,-4.4169,-4.4128,-4.3882,-4.3449,-4.3286,-4.2884,-4.2315,-4.2005,-4.1766,-4.1609,-4.1604,-4.1626,-4.1604,-4.1604,-4.1569,-4.1516,-4.1271,-4.0288,-3.9557,-3.8702,-3.7495,-3.6613,-3.6865,-3.7404,-3.8819,-3.8836,-3.9491,-4.0388,-4.0681,-3.9871,-3.9094,-3.8629,-3.6904,-3.599,-3.5939,-3.5283,-3.4818,-3.468,-3.3852,-3.3179,-3.2938,-3.2123,-3.1448,-3.1578,-3.1259,-3.1201,-3.1064,-3.0771,-3.0439,-3.0118,-2.9859,-2.9815,-2.9508,-2.8628,-2.8135,-2.787,-2.7502,-2.6853,-2.6226,-2.6556,-2.6395,-2.5797,-2.5499,-2.5065,-2.4759,-2.4152,-2.3797,-2.3775,-2.3696,-2.3681,-2.3702,-2.3752,-2.3752,-2.3659,-2.3653,-2.3347,-2.2853,-2.3017,-2.2966,-2.2467,-2.2247,-2.2548,-2.2568,-2.2125,-2.2051,-2.2257,-2.1829,-2.1094,-2.0966,-2.1066,-2.0565,-2.0097,-1.989,-1.9676,-1.9357,-1.9185,-1.946,-1.9643,-1.9475,-1.9452,-1.9534,-1.9811,-2.0088,-4.4346,-4.412,-4.4388,-4.4332,-4.4163,-4.4369,-4.4482,-4.4482,-4.4501,-4.4801,-4.5031,-4.4508,-4.4468,-4.4449,-4.4082,-4.3954,-4.3737,-4.316,-4.2714,-4.238,-4.2005,-4.1895,-4.1809,-4.1653,-4.1604,-4.1604,-4.1569,-4.1481,-4.1025,-4.0411,-3.9505,-3.858,-3.7955,-3.7673,-3.7771,-3.8369,-3.8775,-3.8896,-3.9681,-4.0504,-4.0532,-4.0129,-3.9612,-3.9014,-3.7939,-3.6818,-3.6732,-3.6353,-3.5766,-3.5766,-3.5094,-3.4165,-3.3697,-3.3003,-3.2035,-3.1737,-3.1504,-3.1428,-3.1295,-3.1198,-3.0821,-3.0452,-3.0305,-3.0182,-3.0043,-2.9453,-2.9054,-2.871,-2.8343,-2.7875,-2.7447,-2.7847,-2.7512,-2.6917,-2.6557,-2.6123,-2.5628,-2.5035,-2.4585,-2.4451,-2.4168,-2.4069,-2.39,-2.39,-2.3948,-2.3831,-2.3702,-2.3381,-2.3068,-2.3263,-2.3443,-2.3047,-2.2772,-2.2999,-2.301,-2.2732,-2.2781,-2.3084,-2.2534,-2.1786,-2.2002,-2.2126,-2.1409,-2.0701,-2.0456,-2.0186,-1.9925,-1.9852,-1.9821,-1.9679,-1.9499,-1.9506,-1.9629,-1.9917,-2.0256,-4.4045,-4.3501,-4.4177,-4.4069,-4.3576,-4.4219,-4.4482,-4.4482,-4.4482,-4.4519,-4.4519,-4.4524,-4.4735,-4.5194,-4.4513,-4.4228,-4.4338,-4.3572,-4.3069,-4.2662,-4.223,-4.2162,-4.2005,-4.1788,-4.1631,-4.1604,-4.1552,-4.1341,-4.059,-4.0112,-3.9259,-3.8566,-3.8667,-3.8583,-3.8589,-3.8672,-3.8799,-3.9267,-3.9853,-4.0574,-4.07,-4.029,-4.0095,-3.9595,-3.8732,-3.7974,-3.7594,-3.706,-3.6456,-3.5887,-3.5028,-3.4438,-3.3884,-3.3289,-3.2494,-3.1888,-3.1566,-3.1408,-3.1332,-3.1291,-3.1193,-3.0955,-3.1015,-3.0878,-3.0588,-3.024,-2.9868,-2.9654,-2.9376,-2.9135,-2.8914,-2.8748,-2.8549,-2.813,-2.7812,-2.7356,-2.6848,-2.635,-2.5895,-2.5544,-2.5116,-2.4847,-2.4446,-2.4343,-2.4276,-2.3973,-2.3861,-2.3773,-2.3541,-2.3528,-2.3642,-2.3563,-2.3377,-2.346,-2.3351,-2.3114,-2.3152,-2.3341,-2.3154,-2.2641,-2.2935,-2.2988,-2.2417,-2.1737,-2.1079,-2.0696,-2.0494,-2.0149,-1.983,-1.9738,-1.9903,-1.9634,-1.9759,-1.9949,-2.0224,-4.435,-4.4195,-4.4388,-4.4364,-4.4214,-4.4388,-4.4482,-4.4482,-4.4482,-4.4482,-4.4482,-4.4482,-4.467,-4.4801,-4.4458,-4.4065,-4.3723,-4.3379,-4.2945,-4.2596,-4.24,-4.2266,-4.2071,-4.1813,-4.1653,-4.1604,-4.1552,-4.1464,-4.1165,-4.0481,-3.9708,-3.9175,-3.9224,-3.9291,-3.9427,-3.9553,-3.9669,-3.9852,-4.0382,-4.0689,-4.0919,-4.0642,-4.048,-3.9888,-3.9457,-3.8732,-3.787,-3.7495,-3.687,-3.6146,-3.5407,-3.4907,-3.4818,-3.4143,-3.3365,-3.2588,-3.2067,-3.1596,-3.1481,-3.1423,-3.1346,-3.123,-3.119,-3.1171,-3.0938,-3.072,-3.0477,-3.0309,-3.0135,-2.9802,-2.9667,-2.9536,-2.9438,-2.9263,-2.8923,-2.8531,-2.8032,-2.7633,-2.7127,-2.6373,-2.5943,-2.549,-2.5088,-2.4789,-2.4688,-2.4259,-2.4003,-2.3961,-2.3903,-2.3882,-2.3782,-2.3717,-2.3616,-2.3595,-2.3595,-2.3402,-2.3468,-2.3498,-2.3325,-2.3236,-2.3314,-2.3281,-2.3172,-2.2678,-2.1824,-2.1351,-2.1083,-2.0785,-2.0536,-2.0617,-2.0689,-2.0223,-1.9911,-2.0165,-2.0271,-4.4294,-4.4102,-4.4369,-4.4482,-4.4482,-4.4482,-4.4482,-4.4482,-4.4482,-4.4501,-4.4473,-4.4473,-4.444,-4.4435,-4.4354,-4.4109,-4.3632,-4.3732,-4.3504,-4.3198,-4.2574,-4.249,-4.2279,-4.1899,-4.1631,-4.1587,-4.1587,-4.1569,-4.1394,-4.0884,-4.013,-3.9849,-3.9779,-3.9972,-4.0266,-4.0652,-4.0784,-4.0804,-4.0948,-4.1094,-4.1053,-4.0982,-4.0567,-4.0215,-3.9939,-3.9008,-3.8043,-3.7754,-3.7098,-3.6335,-3.5594,-3.5197,-3.5042,-3.4473,-3.4007,-3.3264,-3.2655,-3.201,-3.1619,-3.1443,-3.1346,-3.1266,-3.119,-3.119,-3.1131,-3.0938,-3.0858,-3.0757,-3.0535,-3.0393,-3.0372,-3.0351,-3.0335,-3.0323,-2.9997,-2.967,-2.927,-2.887,-2.8122,-2.7262,-2.667,-2.6187,-2.5809,-2.5484,-2.5071,-2.4626,-2.4281,-2.413,-2.4067,-2.3988,-2.3882,-2.376,-2.3674,-2.3595,-2.361,-2.3625,-2.3625,-2.361,-2.3535,-2.349,-2.3595,-2.3508,-2.3334,-2.2929,-2.2398,-2.2052,-2.174,-2.1638,-2.1472,-2.1513,-2.1385,-2.0979,-2.0603,-2.0512,-2.0556,-4.4083,-4.352,-4.4163,-4.4482,-4.4482,-4.4482,-4.4482,-4.4501,-4.4501,-4.4454,-4.4411,-4.4397,-4.4368,-4.4329,-4.43,-4.4125,-4.386,-4.3899,-4.3788,-4.3884,-4.3139,-4.2848,-4.2619,-4.2092,-4.169,-4.1591,-4.1468,-4.1271,-4.1288,-4.099,-4.0748,-4.059,-4.059,-4.0762,-4.1183,-4.1279,-4.1305,-4.1256,-4.1168,-4.1152,-4.1076,-4.0982,-4.0877,-4.0716,-4.0181,-3.9422,-3.8629,-3.7905,-3.7202,-3.637,-3.5783,-3.537,-3.5145,-3.4697,-3.4335,-3.3783,-3.3104,-3.232,-3.1726,-3.1462,-3.1329,-3.1252,-3.1193,-3.119,-3.1151,-3.1114,-3.1055,-3.1035,-3.0838,-3.0818,-3.0797,-3.0797,-3.0797,-3.0797,-3.0634,-3.0403,-3.0132,-2.9713,-2.9109,-2.8287,-2.7629,-2.7112,-2.6391,-2.6043,-2.55,-2.5005,-2.4634,-2.4405,-2.4374,-2.4275,-2.4122,-2.3979,-2.3769,-2.3698,-2.3684,-2.3699,-2.3699,-2.367,-2.3699,-2.361,-2.3625,-2.3545,-2.3465,-2.3054,-2.2643,-2.2603,-2.2398,-2.2189,-2.2019,-2.2104,-2.1945,-2.1698,-2.141,-2.108,-2.0761,-4.4388,-4.4233,-4.4426,-4.4482,-4.4482,-4.4482,-4.4482,-4.4501,-4.4426,-4.443,-4.4397,-4.4383,-4.434,-4.4285,-4.4226,-4.3975,-4.3532,-4.3877,-4.3608,-4.3468,-4.3147,-4.3159,-4.3087,-4.2442,-4.1866,-4.1236,-4.0965,-4.1049,-4.1124,-4.1204,-4.1328,-4.1328,-4.1253,-4.1389,-4.1547,-4.1515,-4.1448,-4.1408,-4.1267,-4.1152,-4.1134,-4.0989,-4.0877,-4.086,-4.0498,-3.979,-3.9026,-3.8422,-3.7473,-3.6525,-3.6232,-3.6059,-3.6025,-3.5301,-3.4663,-3.4076,-3.3333,-3.2462,-3.1835,-3.15,-3.1387,-3.1274,-3.1232,-3.1193,-3.119,-3.119,-3.119,-3.119,-3.119,-3.119,-3.119,-3.119,-3.119,-3.119,-3.119,-3.1038,-3.0903,-3.0463,-2.9973,-2.9328,-2.8651,-2.7914,-2.714,-2.6488,-2.5954,-2.547,-2.5017,-2.4786,-2.4869,-2.4823,-2.4599,-2.4383,-2.3982,-2.3859,-2.3893,-2.3999,-2.4133,-2.4059,-2.4036,-2.3909,-2.3684,-2.3603,-2.3493,-2.3185,-2.2907,-2.2937,-2.2812,-2.2418,-2.2315,-2.2565,-2.242,-2.2119,-2.1874,-2.1575,-2.1142,-4.4482,-4.4482,-4.4482,-4.4482,-4.4482,-4.4482,-4.4482,-4.4501,-4.4426,-4.4401,-4.4358,-4.4329,-4.4252,-4.4177,-4.4135,-4.3971,-4.3472,-4.3813,-4.3797,-4.3558,-4.3312,-4.3331,-4.3105,-4.2773,-4.2436,-4.1809,-4.1674,-4.1642,-4.1431,-4.1587,-4.1842,-4.1831,-4.174,-4.1582,-4.152,-4.1408,-4.1363,-4.1277,-4.1175,-4.1152,-4.1157,-4.1012,-4.0894,-4.0894,-4.0687,-3.998,-3.9186,-3.8508,-3.7663,-3.6766,-3.6284,-3.6249,-3.6059,-3.5525,-3.4835,-3.4111,-3.3333,-3.2519,-3.1891,-3.1559,-3.1464,-3.1332,-3.1274,-3.1252,-3.119,-3.119,-3.119,-3.119,-3.119,-3.119,-3.119,-3.119,-3.119,-3.119,-3.119,-3.1123,-3.1055,-3.0869,-3.0378,-2.9818,-2.9227,-2.8665,-2.789,-2.7035,-2.6488,-2.5866,-2.5427,-2.5291,-2.5362,-2.572,-2.5399,-2.5145,-2.4952,-2.47,-2.4769,-2.4807,-2.4739,-2.4634,-2.4455,-2.4096,-2.3849,-2.3684,-2.3507,-2.3396,-2.3357,-2.3437,-2.3238,-2.2931,-2.2947,-2.3238,-2.2965,-2.2581,-2.2328,-2.2095,-2.1759,-4.4369,-4.4482,-4.4482,-4.4482,-4.4482,-4.4482,-4.4482,-4.4482,-4.4426,-4.4354,-4.4314,-4.4244,-4.4119,-4.4039,-4.4005,-4.4005,-4.4005,-4.3968,-4.3931,-4.3849,-4.3605,-4.361,-4.3423,-4.3087,-4.2686,-4.2428,-4.2262,-4.228,-4.2224,-4.2316,-4.2239,-4.2157,-4.1903,-4.1591,-4.1525,-4.148,-4.1529,-4.1547,-4.1453,-4.1267,-4.1129,-4.0982,-4.0918,-4.0894,-4.0687,-3.998,-3.9043,-3.8249,-3.7594,-3.6939,-3.6284,-3.6284,-3.6059,-3.5594,-3.4852,-3.4111,-3.3352,-3.2519,-3.186,-3.1598,-3.1485,-3.1389,-3.1351,-3.1274,-3.1213,-3.119,-3.119,-3.119,-3.119,-3.119,-3.119,-3.119,-3.119,-3.119,-3.119,-3.119,-3.1173,-3.1157,-3.0734,-3.0243,-2.9768,-2.9277,-2.8541,-2.7701,-2.7025,-2.6385,-2.6074,-2.5938,-2.6024,-2.6647,-2.6834,-2.6696,-2.6541,-2.6275,-2.5725,-2.5638,-2.5556,-2.5226,-2.5001,-2.4462,-2.3999,-2.3789,-2.3719,-2.3824,-2.3822,-2.3822,-2.3864,-2.3695,-2.3815,-2.3842,-2.3501,-2.3127,-2.2942,-2.2723,-2.2497,-4.3914,-4.4482,-4.4482,-4.4482,-4.4482,-4.4482,-4.4482,-4.4501,-4.4426,-4.4383,-4.434,-4.4259,-4.4138,-4.4005,-4.4005,-4.4005,-4.4005,-4.4005,-4.4005,-4.3939,-4.386,-4.3841,-4.3761,-4.3422,-4.274,-4.2468,-4.2287,-4.2014,-4.2541,-4.2684,-4.2658,-4.2639,-4.2619,-4.2422,-4.238,-4.2259,-4.2077,-4.2008,-4.1881,-4.177,-4.1373,-4.1186,-4.0942,-4.0687,-4.025,-3.9491,-3.8698,-3.8013,-3.7232,-3.6611,-3.6284,-3.6284,-3.6042,-3.5611,-3.4904,-3.43,-3.3524,-3.2729,-3.2192,-3.1878,-3.1747,-3.1464,-3.1406,-3.1293,-3.1232,-3.1173,-3.119,-3.119,-3.119,-3.119,-3.119,-3.119,-3.119,-3.119,-3.119,-3.119,-3.1173,-3.1173,-3.1004,-3.0598,-3.0192,-2.9651,-2.9041,-2.8289,-2.7682,-2.7222,-2.711,-2.7042,-2.7418,-2.7859,-2.8216,-2.81,-2.7977,-2.7018,-2.6159,-2.6417,-2.6378,-2.5976,-2.548,-2.4881,-2.4343,-2.3879,-2.3831,-2.4066,-2.4091,-2.4088,-2.4137,-2.449,-2.4213,-2.4158,-2.3951,-2.3698,-2.3494,-2.3297,-2.3022]},{"header":{"parameterUnit":"m.s-1","parameterCategory":1,"la1":31.0,"la2":29.5877,"lo1":-88.7671,"lo2":-86.6584,"dy":0.0162,"dx":0.0185,"nx":115,"ny":88,"refTime":"2024-04-18T06:00:00:Z","depth":0,"parameterNumber":3,"parameterNumberName":"V-component_of_WINDS"},"data":[0.0,0.0,0.0,0.0,0.0,0.0,0.0,0.0,0.0,0.0,0.0,0.0,0.0,0.0,0.0,0.0,0.0,0.0,0.0,0.0,0.0,0.0,0.0,0.0,0.0,0.0,0.0,0.0,0.0,0.0,0.0,0.0,0.0,0.0,0.0,0.0,0.0,0.0,0.0,0.0,0.0,0.0,0.0,0.0,0.0,0.0,0.0,0.0,0.0,0.0,0.0,0.0,0.0,0.0,0.0,0.0,0.0,0.0,0.0,0.0,0.0,0.0,0.0,0.0,0.0,0.0,0.0,0.0,0.0,0.0,0.0,0.0,0.0,0.0,0.0,0.0,0.0,0.0,0.0,0.0,0.0,0.0,0.0,0.0,0.0,0.0,0.0,0.0,0.0,0.0,0.0,0.0,0.0,0.0,0.0,0.0,0.0,0.0,0.0,0.0,0.0,0.0,0.0,0.0,0.0,0.0,0.0,0.0,0.0,0.0,0.0,0.0,0.0,0.0,0.0,0.0,0.0,0.0,0.0,0.0,0.0,0.0,0.0,0.0,0.0,0.0,0.0,0.0,0.0,0.0,0.0,0.0,0.0,0.0,0.0,0.0,0.0,0.0,0.0,0.0,0.0,0.0,0.0,0.0,0.0,0.0,0.0,0.0,0.0,0.0,0.0,0.0,0.0,0.0,0.0,0.0,0.0,0.0,0.0,0.0,0.0,0.0,0.0,0.0,0.0,0.0,0.0,0.0,0.0,0.0,0.0,0.0,0.0,0.0,0.0,0.0,0.0,0.0,0.0,0.0,0.0,0.0,0.0,0.0,0.0,0.0,0.0,0.0,0.0,0.0,0.0,0.0,0.0,0.0,0.0,0.0,0.0,0.0,0.0,0.0,0.0,0.0,0.0,0.0,0.0,0.0,0.0,0.0,0.0,0.0,0.0,0.0,0.0,0.0,0.0,0.0,0.0,0.0,0.0,0.0,0.0,0.0,0.0,0.0,0.0,0.0,0.0,0.0,0.0,0.0,0.0,0.0,0.0,0.0,0.0,0.0,0.0,0.0,0.0,0.0,0.0,0.0,0.0,0.0,0.0,0.0,0.0,0.0,0.0,0.0,0.0,0.0,0.0,0.0,0.0,0.0,0.0,0.0,0.0,0.0,0.0,0.0,0.0,0.0,0.0,0.0,0.0,0.0,0.0,0.0,0.0,0.0,0.0,0.0,0.0,0.0,0.0,0.0,0.0,0.0,0.0,0.0,0.0,0.0,0.0,0.0,0.0,0.0,0.0,0.0,0.0,0.0,0.0,0.0,0.0,0.0,0.0,0.0,0.0,0.0,0.0,0.0,0.0,0.0,0.0,0.0,0.0,0.0,0.0,0.0,0.0,0.0,0.0,0.0,0.0,0.0,0.0,0.0,0.0,0.0,0.0,0.0,0.0,0.0,0.0,0.0,0.0,0.0,0.0,0.0,0.0,0.0,0.0,0.0,0.0,0.0,0.0,0.0,0.0,0.0,0.0,0.0,0.0,0.0,0.0,0.0,0.0,0.0,0.0,0.0,0.0,0.0,0.0,0.0,0.0,0.0,0.0,0.0,0.0,0.0,0.0,0.0,0.0,0.0,0.0,0.0,0.0,0.0,0.0,0.0,0.0,0.0,0.0,0.0,0.0,0.0,0.0,0.0,0.0,0.0,0.0,0.0,0.0,0.0,0.0,0.0,0.0,0.0,0.0,0.0,0.0,0.0,0.0,0.0,0.0,0.0,0.0,0.0,0.0,0.0,0.0,0.0,0.0,0.0,0.0,0.0,0.0,0.0,0.0,0.0,0.0,0.0,0.0,0.0,0.0,0.0,0.0,0.0,0.0,0.0,0.0,0.0,0.0,0.0,0.0,0.0,0.0,0.0,0.0,0.0,0.0,0.0,0.0,0.0,0.0,0.0,0.0,0.0,0.0,0.0,0.0,0.0,0.0,0.0,0.0,0.0,0.0,0.0,0.0,0.0,0.0,0.0,0.0,0.0,0.0,0.0,0.0,0.0,0.0,0.0,0.0,0.0,0.0,0.0,0.0,0.0,0.0,0.0,0.0,0.0,0.0,0.0,0.0,0.0,0.0,0.0,0.0,0.0,0.0,0.0,0.0,0.0,0.0,0.0,0.0,0.0,0.0,0.0,0.0,0.0,0.0,0.0,0.0,0.0,0.0,0.0,0.0,0.0,0.0,0.0,0.0,0.0,0.0,0.0,0.0,0.0,0.0,0.0,0.0,0.0,0.0,0.0,0.0,0.0,0.0,0.0,0.0,0.0,0.0,0.0,0.0,0.0,0.0,0.0,0.0,0.0,0.0,0.0,0.0,0.0,0.0,0.0,0.0,0.0,0.0,0.0,0.0,0.0,0.0,0.0,0.0,0.0,0.0,0.0,0.0,0.0,0.0,0.0,0.0,0.0,0.0,0.0,0.0,0.0,0.0,0.0,0.0,0.0,0.0,0.0,0.0,0.0,0.0,0.0,0.0,0.0,0.0,0.0,0.0,0.0,0.0,0.0,0.0,0.0,0.0,0.0,0.0,0.0,0.0,0.0,0.0,0.0,0.0,0.0,0.0,0.0,0.0,0.0,0.0,0.0,0.0,0.0,0.0,0.0,0.0,0.0,0.0,0.0,0.0,0.0,0.0,0.0,0.0,0.0,0.0,0.0,0.0,0.0,0.0,0.0,0.0,0.0,0.0,0.0,0.0,0.0,0.0,0.0,0.0,0.0,0.0,0.0,0.0,0.0,0.0,0.0,0.0,0.0,0.0,0.0,0.0,0.0,0.0,0.0,0.0,0.0,0.0,0.0,0.0,0.0,0.0,0.0,0.0,0.0,0.0,0.0,0.0,0.0,0.0,0.0,0.0,0.0,0.0,0.0,0.0,0.0,0.0,0.0,0.0,0.0,0.0,0.0,0.0,0.0,0.0,0.0,0.0,0.0,0.0,0.0,0.0,0.0,0.0,0.0,0.0,0.0,0.0,0.0,0.0,0.0,0.0,0.0,0.0,0.0,0.0,0.0,0.0,0.0,0.0,0.0,0.0,0.0,0.0,0.0,0.0,0.0,0.0,0.0,0.0,0.0,0.0,0.0,0.0,0.0,0.0,0.0,0.0,0.0,0.0,0.0,0.0,0.0,0.0,0.0,0.0,0.0,0.0,0.0,0.0,0.0,0.0,0.0,0.0,0.0,0.0,0.0,0.0,0.0,0.0,0.0,0.0,0.0,0.0,0.0,0.0,0.0,0.0,0.0,0.0,0.0,0.0,0.0,0.0,0.0,0.0,0.0,0.0,0.0,0.0,0.0,0.0,0.0,0.0,0.0,0.0,0.0,0.0,0.0,0.0,0.0,0.0,0.0,0.0,0.0,0.0,0.0,0.0,0.0,0.0,0.0,0.0,0.0,0.0,0.0,0.0,0.0,0.0,0.0,0.0,0.0,0.0,0.0,0.0,0.0,0.0,0.0,0.0,0.0,0.0,0.0,0.0,0.0,0.0,0.0,0.0,0.0,0.0,0.0,0.0,0.0,0.0,0.0,0.0,0.0,0.0,0.0,0.0,0.0,0.0,0.0,0.0,0.0,0.0,0.0,0.0,0.0,0.0,0.0,0.0,0.0,0.0,0.0,0.0,0.0,0.0,0.0,0.0,0.0,0.0,0.0,0.0,0.0,0.0,0.0,0.0,0.0,0.0,0.0,0.0,0.0,0.0,0.0,0.0,0.0,0.0,0.0,0.0,0.0,0.0,0.0,0.0,0.0,0.0,0.0,0.0,0.0,0.0,0.0,0.0,0.0,0.0,0.0,0.0,0.0,0.0,0.0,0.0,0.0,0.0,0.0,0.0,0.0,0.0,0.0,0.0,0.0,0.0,0.0,0.0,0.0,0.0,0.0,0.0,0.0,0.0,0.0,0.0,0.0,0.0,0.0,0.0,0.0,0.0,0.0,0.0,0.0,0.0,0.0,0.0,0.0,0.0,0.0,0.0,0.0,0.0,0.0,0.0,0.0,0.0,0.0,0.0,0.0,0.0,0.0,0.0,0.0,0.0,0.0,0.0,0.0,0.0,0.0,0.0,0.0,0.0,0.0,0.0,0.0,0.0,0.0,0.0,0.0,0.0,0.0,0.0,0.0,0.0,0.0,0.0,0.0,0.0,0.0,0.0,0.0,0.0,0.0,0.0,0.0,0.0,0.0,0.0,0.0,0.0,0.0,0.0,0.0,0.0,0.0,0.0,0.0,0.0,0.0,0.0,0.0,0.0,0.0,-1.0539,0.0,0.0,0.0,0.0,0.0,0.0,0.0,0.0,0.0,0.0,0.0,0.0,0.0,0.0,0.0,0.0,0.0,0.0,0.0,0.0,0.0,0.0,0.0,0.0,0.0,0.0,0.0,0.0,0.0,0.0,0.0,0.0,0.0,0.0,0.0,0.0,0.0,0.0,0.0,0.0,0.0,0.0,0.0,0.0,0.0,0.0,0.0,0.0,0.0,0.0,0.0,0.0,0.0,0.0,0.0,0.0,0.0,0.0,0.0,0.0,0.0,0.0,0.0,0.0,0.0,0.0,0.0,0.0,0.0,0.0,0.0,0.0,0.0,0.0,0.0,0.0,0.0,0.0,0.0,0.0,0.0,0.0,0.0,0.0,0.0,0.0,0.0,0.0,0.0,0.0,0.0,0.0,0.0,0.0,0.0,0.0,0.0,0.0,0.0,0.0,0.0,0.0,0.0,0.0,0.0,0.0,0.0,0.0,0.0,0.0,-0.9628,-1.0521,-0.9338,-0.9138,-1.0114,0.0,0.0,0.0,0.0,0.0,0.0,0.0,0.0,0.0,0.0,0.0,0.0,0.0,0.0,0.0,0.0,0.0,0.0,0.0,0.0,0.0,0.0,0.0,0.0,0.0,0.0,0.0,0.0,0.0,0.0,0.0,0.0,0.0,0.0,0.0,0.0,0.0,0.0,0.0,0.0,0.0,0.0,0.0,0.0,0.0,0.0,0.0,0.0,0.0,0.0,0.0,0.0,0.0,0.0,0.0,0.0,0.0,0.0,0.0,0.0,0.0,0.0,0.0,0.0,0.0,0.0,0.0,0.0,0.0,0.0,0.0,0.0,0.0,0.0,0.0,0.0,0.0,0.0,0.0,0.0,0.0,0.0,0.0,0.0,0.0,0.0,0.0,0.0,0.0,0.0,0.0,0.0,0.0,0.0,0.0,0.0,0.0,0.0,0.0,0.0,0.0,0.0,0.0,0.0,0.0,0.0,0.0,0.0,0.0,0.0,0.0,0.0,-0.9387,-0.9287,-1.029,0.0,0.0,0.0,0.0,0.0,0.0,0.0,0.0,0.0,0.0,0.0,0.0,0.0,0.0,0.0,0.0,0.0,0.0,0.0,0.0,0.0,0.0,0.0,0.0,0.0,0.0,0.0,0.0,0.0,0.0,0.0,0.0,0.0,0.0,0.0,0.0,0.0,0.0,0.0,0.0,0.0,0.0,0.0,0.0,0.0,0.0,0.0,0.0,0.0,0.0,0.0,0.0,0.0,0.0,0.0,0.0,0.0,0.0,0.0,0.0,0.0,0.0,0.0,0.0,0.0,0.0,0.0,0.0,0.0,0.0,0.0,0.0,0.0,0.0,0.0,0.0,0.0,0.0,0.0,0.0,0.0,0.0,0.0,0.0,0.0,0.0,0.0,0.0,0.0,0.0,0.0,0.0,0.0,0.0,0.0,0.0,0.0,0.0,0.0,0.0,0.0,0.0,0.0,0.0,0.0,0.0,0.0,0.0,0.0,0.0,-0.9747,-1.2165,-1.102,0.0,-1.1797,0.0,0.0,0.0,0.0,0.0,0.0,0.0,0.0,0.0,0.0,0.0,0.0,0.0,0.0,0.0,0.0,0.0,0.0,0.0,0.0,0.0,0.0,0.0,0.0,0.0,0.0,0.0,0.0,0.0,0.0,0.0,0.0,0.0,0.0,0.0,0.0,0.0,0.0,0.0,0.0,0.0,0.0,0.0,0.0,0.0,0.0,0.0,0.0,0.0,0.0,0.0,0.0,0.0,0.0,0.0,0.0,0.0,0.0,0.0,0.0,0.0,0.0,0.0,0.0,0.0,0.0,0.0,0.0,0.0,0.0,0.0,0.0,0.0,0.0,0.0,0.0,0.0,0.0,0.0,0.0,0.0,0.0,0.0,0.0,0.0,0.0,0.0,0.0,0.0,0.0,0.0,0.0,0.0,0.0,0.0,0.0,0.0,0.0,0.0,0.0,0.0,0.0,0.0,0.0,0.0,0.0,0.0,0.0,0.0,0.0,-1.0324,-1.1066,-1.1197,-1.1411,0.0,0.0,0.0,0.0,0.0,0.0,0.0,0.0,0.0,0.0,0.0,0.0,0.0,0.0,0.0,0.0,0.0,0.0,0.0,0.0,0.0,0.0,0.0,0.0,0.0,0.0,0.0,0.0,0.0,0.0,0.0,0.0,0.0,0.0,0.0,0.0,0.0,0.0,0.0,0.0,0.0,0.0,0.0,0.0,0.0,0.0,0.0,0.0,0.0,0.0,0.0,0.0,0.0,0.0,0.0,0.0,0.0,0.0,0.0,0.0,0.0,0.0,0.0,0.0,0.0,0.0,0.0,0.0,0.0,0.0,0.0,0.0,0.0,0.0,0.0,0.0,0.0,0.0,0.0,0.0,0.0,0.0,0.0,0.0,0.0,0.0,0.0,0.0,0.0,0.0,0.0,0.0,0.0,0.0,0.0,0.0,0.0,0.0,0.0,0.0,0.0,0.0,0.0,0.0,0.0,0.0,0.0,0.0,0.0,0.0,-1.0362,-1.0543,-1.0557,-1.0958,-1.1299,-1.1589,0.0,0.0,0.0,0.0,0.0,0.0,0.0,0.0,0.0,0.0,0.0,0.0,0.0,0.0,0.0,0.0,0.0,0.0,0.0,0.0,0.0,0.0,0.0,0.0,0.0,0.0,0.0,0.0,0.0,0.0,0.0,0.0,0.0,0.0,0.0,0.0,0.0,0.0,0.0,0.0,0.0,0.0,0.0,0.0,0.0,0.0,0.0,0.0,0.0,0.0,0.0,0.0,0.0,0.0,0.0,0.0,0.0,0.0,0.0,0.0,0.0,0.0,0.0,0.0,0.0,0.0,0.0,0.0,0.0,0.0,0.0,0.0,0.0,0.0,0.0,0.0,0.0,0.0,0.0,0.0,0.0,0.0,0.0,0.0,0.0,0.0,0.0,0.0,0.0,0.0,0.0,0.0,0.0,0.0,0.0,0.0,0.0,0.0,0.0,0.0,0.0,0.0,0.0,0.0,0.0,0.0,0.0,0.0,-1.2975,-1.0753,-1.0137,-1.1493,-1.0471,-1.0515,0.0,0.0,0.0,0.0,0.0,0.0,0.0,0.0,0.0,0.0,0.0,0.0,0.0,0.0,0.0,0.0,0.0,0.0,0.0,0.0,0.0,0.0,0.0,0.0,0.0,0.0,0.0,0.0,0.0,0.0,0.0,0.0,0.0,0.0,0.0,0.0,0.0,0.0,0.0,0.0,0.0,0.0,0.0,0.0,0.0,0.0,0.0,0.0,0.0,0.0,0.0,0.0,0.0,0.0,0.0,0.0,0.0,0.0,0.0,0.0,0.0,0.0,0.0,0.0,0.0,0.0,0.0,0.0,0.0,0.0,0.0,0.0,0.0,0.0,0.0,0.0,0.0,0.0,0.0,0.0,0.0,0.0,0.0,0.0,0.0,0.0,0.0,0.0,0.0,0.0,0.0,0.0,0.0,0.0,0.0,0.0,0.0,0.0,0.0,0.0,0.0,0.0,0.0,0.0,0.0,0.0,0.0,0.0,0.0,-0.985,-0.9593,-1.0658,-1.2995,-1.1325,-1.1066,0.0,0.0,0.0,0.0,0.0,0.0,0.0,0.0,0.0,0.0,0.0,0.0,0.0,0.0,0.0,0.0,0.0,0.0,0.0,0.0,0.0,0.0,0.0,0.0,0.0,0.0,0.0,0.0,0.0,0.0,0.0,0.0,0.0,0.0,0.0,0.0,0.0,0.0,0.0,0.0,0.0,0.0,0.0,0.0,0.0,0.0,0.0,0.0,0.0,0.0,0.0,0.0,0.0,0.0,0.0,0.0,0.0,0.0,0.0,0.0,0.0,0.0,0.0,0.0,0.0,0.0,0.0,0.0,0.0,0.0,0.0,0.0,0.0,0.0,0.0,0.0,0.0,0.0,0.0,0.0,0.0,0.0,0.0,0.0,0.0,0.0,0.0,0.0,0.0,0.0,0.0,0.0,0.0,0.0,0.0,0.0,0.0,0.0,0.0,0.0,0.0,0.0,0.0,0.0,0.0,0.0,0.0,0.0,0.0,-0.92,0.0,-1.1235,-1.3044,-1.163,-1.11,0.0,0.0,0.0,0.0,0.0,0.0,0.0,0.0,0.0,0.0,0.0,0.0,0.0,0.0,0.0,0.0,0.0,0.0,0.0,0.0,0.0,0.0,0.0,0.0,0.0,0.0,0.0,0.0,0.0,0.0,0.0,0.0,0.0,0.0,0.0,0.0,0.0,0.0,0.0,0.0,0.0,0.0,0.0,0.0,0.0,0.0,0.0,0.0,0.0,0.0,0.0,0.0,0.0,0.0,0.0,0.0,0.0,0.0,0.0,0.0,0.0,0.0,0.0,0.0,0.0,0.0,0.0,0.0,0.0,0.0,0.0,0.0,0.0,0.0,0.0,0.0,0.0,0.0,0.0,0.0,0.0,0.0,0.0,0.0,0.0,0.0,0.0,0.0,0.0,0.0,0.0,0.0,0.0,0.0,0.0,0.0,0.0,0.0,0.0,0.0,0.0,0.0,0.0,0.0,0.0,0.0,0.0,0.0,-0.9693,-1.1668,-1.174,-1.166,-1.1449,-1.1181,-1.0439,0.0,0.0,0.0,0.0,0.0,0.0,0.0,0.0,0.0,0.0,0.0,0.0,0.0,0.0,0.0,0.0,0.0,0.0,0.0,0.0,0.0,0.0,0.0,0.0,0.0,0.0,0.0,0.0,0.0,0.0,0.0,0.0,0.0,0.0,0.0,0.0,0.0,0.0,0.0,0.0,0.0,0.0,0.0,0.0,0.0,0.0,0.0,0.0,0.0,0.0,0.0,0.0,0.0,0.0,0.0,0.0,0.0,0.0,0.0,0.0,0.0,0.0,0.0,0.0,0.0,0.0,0.0,0.0,0.0,0.0,0.0,0.0,0.0,0.0,0.0,0.0,0.0,0.0,0.0,0.0,0.0,0.0,0.0,0.0,0.0,0.0,0.0,0.0,0.0,0.0,0.0,0.0,0.0,0.0,0.0,0.0,0.0,0.0,0.0,0.0,0.0,0.0,0.0,0.0,0.0,0.0,0.0,0.0,0.0,-0.9417,-0.9968,-1.0991,-1.2419,-1.0494,-1.0196,0.0,0.0,0.0,0.0,0.0,0.0,0.0,0.0,0.0,0.0,0.0,0.0,0.0,0.0,0.0,0.0,0.0,0.0,0.0,0.0,0.0,0.0,0.0,0.0,0.0,0.0,0.0,0.0,0.0,0.0,0.0,0.0,0.0,0.0,0.0,0.0,0.0,0.0,0.0,0.0,0.0,0.0,0.0,0.0,0.0,0.0,0.0,0.0,0.0,0.0,0.0,0.0,0.0,0.0,0.0,0.0,0.0,0.0,0.0,0.0,0.0,0.0,0.0,0.0,0.0,0.0,0.0,0.0,0.0,0.0,0.0,0.0,0.0,0.0,0.0,0.0,0.0,0.0,0.0,0.0,0.0,0.0,0.0,0.0,0.0,0.0,0.0,0.0,0.0,0.0,0.0,0.0,0.0,0.0,0.0,0.0,0.0,0.0,0.0,0.0,0.0,0.0,0.0,0.0,0.0,0.0,0.0,0.0,0.0,-1.0173,-1.1071,-1.21,-1.316,-1.1518,-1.111,-1.2053,0.0,0.0,0.0,0.0,0.0,0.0,0.0,0.0,0.0,0.0,0.0,0.0,0.0,0.0,0.0,0.0,0.0,0.0,0.0,0.0,0.0,0.0,0.0,0.0,0.0,0.0,0.0,0.0,0.0,0.0,0.0,0.0,0.0,0.0,0.0,0.0,0.0,0.0,0.0,0.0,0.0,0.0,0.0,0.0,0.0,0.0,0.0,0.0,0.0,0.0,0.0,0.0,0.0,0.0,0.0,0.0,0.0,0.0,0.0,0.0,0.0,0.0,0.0,0.0,0.0,0.0,0.0,0.0,0.0,0.0,0.0,0.0,0.0,0.0,0.0,0.0,0.0,0.0,0.0,0.0,0.0,0.0,0.0,0.0,0.0,0.0,0.0,0.0,0.0,0.0,0.0,0.0,0.0,0.0,0.0,0.0,0.0,0.0,0.0,0.0,0.0,0.0,0.0,0.0,0.0,0.0,0.0,0.0,-1.324,-1.4606,-1.4744,-1.3642,-1.3868,-1.2944,0.0,0.0,0.0,0.0,0.0,0.0,0.0,0.0,0.0,0.0,0.0,0.0,0.0,0.0,0.0,0.0,0.0,0.0,0.0,0.0,0.0,0.0,0.0,0.0,0.0,0.0,0.0,0.0,0.0,0.0,0.0,0.0,0.0,0.0,0.0,0.0,0.0,0.0,0.0,0.0,0.0,0.0,0.0,0.0,0.0,0.0,0.0,0.0,0.0,0.0,0.0,0.0,0.0,0.0,0.0,0.0,0.0,0.0,0.0,0.0,0.0,0.0,0.0,0.0,0.0,0.0,0.0,0.0,0.0,0.0,0.0,0.0,0.0,0.0,0.0,0.0,0.0,0.0,0.0,0.0,0.0,0.0,0.0,0.0,0.0,0.0,0.0,0.0,0.0,0.0,0.0,0.0,0.0,0.0,0.0,0.0,0.0,0.0,0.0,0.0,0.0,0.0,0.0,0.0,0.0,0.0,0.0,0.0,0.0,-1.4955,-1.692,-1.751,-1.6558,-1.4675,-1.3661,0.0,0.0,0.0,0.0,0.0,0.0,0.0,0.0,0.0,0.0,0.0,0.0,0.0,0.0,0.0,0.0,0.0,0.0,0.0,0.0,0.0,0.0,0.0,0.0,0.0,0.0,0.0,0.0,0.0,0.0,0.0,0.0,0.0,0.0,0.0,0.0,0.0,0.0,0.0,0.0,0.0,0.0,0.0,0.0,0.0,0.0,0.0,0.0,0.0,0.0,0.0,0.0,0.0,0.0,0.0,0.0,0.0,0.0,0.0,0.0,0.0,0.0,0.0,0.0,0.0,0.0,0.0,0.0,0.0,0.0,0.0,0.0,0.0,0.0,0.0,0.0,0.0,0.0,0.0,0.0,0.0,0.0,0.0,0.0,0.0,0.0,0.0,0.0,0.0,0.0,0.0,0.0,0.0,0.0,0.0,0.0,0.0,0.0,0.0,0.0,0.0,0.0,0.0,0.0,0.0,0.0,0.0,0.0,-1.4677,-1.573,-1.8552,-1.9759,-1.9229,-1.7107,-1.5382,0.0,0.0,0.0,0.0,0.0,0.0,0.0,0.0,0.0,0.0,0.0,0.0,0.0,0.0,0.0,0.0,0.0,0.0,0.0,0.0,0.0,0.0,0.0,0.0,0.0,0.0,0.0,0.0,0.0,0.0,0.0,0.0,0.0,0.0,0.0,0.0,0.0,0.0,0.0,0.0,0.0,0.0,0.0,0.0,0.0,0.0,0.0,0.0,0.0,0.0,0.0,0.0,0.0,0.0,0.0,0.0,0.0,0.0,0.0,0.0,0.0,0.0,0.0,0.0,0.0,0.0,0.0,0.0,0.0,0.0,0.0,0.0,0.0,0.0,0.0,0.0,0.0,0.0,0.0,0.0,0.0,0.0,0.0,0.0,0.0,0.0,0.0,0.0,0.0,0.0,0.0,0.0,0.0,0.0,0.0,0.0,0.0,0.0,0.0,0.0,0.0,0.0,0.0,0.0,0.0,0.0,0.0,0.0,-1.6029,-1.6016,-1.9476,-2.124,-2.1106,-1.988,-1.7347,0.0,0.0,0.0,0.0,0.0,0.0,0.0,0.0,0.0,0.0,0.0,0.0,0.0,0.0,0.0,0.0,0.0,0.0,0.0,0.0,0.0,0.0,0.0,0.0,0.0,0.0,0.0,0.0,0.0,0.0,0.0,0.0,0.0,0.0,0.0,0.0,0.0,0.0,0.0,0.0,0.0,0.0,0.0,0.0,0.0,0.0,0.0,0.0,0.0,0.0,0.0,0.0,0.0,0.0,0.0,0.0,0.0,0.0,0.0,0.0,0.0,0.0,0.0,0.0,0.0,0.0,0.0,0.0,0.0,0.0,0.0,0.0,0.0,0.0,0.0,0.0,0.0,0.0,0.0,0.0,0.0,0.0,0.0,0.0,0.0,0.0,0.0,0.0,0.0,0.0,0.0,0.0,0.0,0.0,0.0,0.0,0.0,0.0,0.0,0.0,0.0,0.0,0.0,0.0,0.0,0.0,0.0,0.0,-1.5645,-1.6491,-1.9266,-2.0513,-1.9975,-1.8683,-1.7084,0.0,0.0,0.0,0.0,0.0,0.0,0.0,0.0,0.0,0.0,0.0,0.0,0.0,0.0,0.0,0.0,0.0,0.0,0.0,0.0,0.0,0.0,0.0,0.0,0.0,0.0,0.0,0.0,0.0,0.0,0.0,0.0,0.0,0.0,0.0,0.0,0.0,0.0,0.0,0.0,0.0,0.0,0.0,0.0,0.0,0.0,0.0,0.0,-1.2915,0.0,0.0,0.0,0.0,0.0,0.0,0.0,0.0,0.0,0.0,0.0,0.0,0.0,0.0,0.0,0.0,0.0,0.0,0.0,0.0,0.0,0.0,0.0,0.0,0.0,0.0,0.0,0.0,0.0,0.0,0.0,0.0,0.0,0.0,0.0,0.0,0.0,0.0,0.0,0.0,0.0,0.0,0.0,0.0,0.0,0.0,0.0,0.0,0.0,0.0,0.0,0.0,0.0,0.0,0.0,0.0,0.0,0.0,0.0,-1.6145,-1.7005,-1.9583,-2.076,-2.0376,-1.8575,-1.6874,0.0,0.0,0.0,0.0,0.0,0.0,0.0,0.0,0.0,0.0,0.0,0.0,0.0,0.0,0.0,0.0,0.0,0.0,0.0,0.0,0.0,0.0,0.0,0.0,0.0,0.0,0.0,0.0,0.0,0.0,0.0,0.0,0.0,0.0,0.0,0.0,0.0,0.0,0.0,0.0,0.0,0.0,0.0,0.0,0.0,0.0,0.0,0.0,0.0,0.0,0.0,0.0,0.0,0.0,0.0,0.0,0.0,0.0,0.0,0.0,0.0,0.0,0.0,0.0,0.0,0.0,0.0,0.0,0.0,0.0,0.0,0.0,0.0,0.0,0.0,0.0,0.0,0.0,0.0,0.0,0.0,0.0,0.0,0.0,0.0,0.0,0.0,0.0,0.0,0.0,0.0,0.0,0.0,0.0,0.0,0.0,0.0,0.0,0.0,0.0,0.0,0.0,0.0,0.0,0.0,0.0,0.0,-1.516,-1.7003,-1.7707,-1.9974,-2.1184,-2.1125,-1.8762,-1.6635,-1.4893,0.0,0.0,0.0,0.0,0.0,0.0,0.0,0.0,0.0,0.0,0.0,0.0,0.0,0.0,0.0,0.0,0.0,0.0,0.0,0.0,0.0,0.0,0.0,0.0,0.0,0.0,0.0,0.0,0.0,0.0,0.0,0.0,0.0,0.0,0.0,0.0,0.0,0.0,-1.2592,-1.3472,0.0,0.0,0.0,0.0,0.0,0.0,0.0,0.0,-1.3443,0.0,0.0,0.0,0.0,0.0,0.0,0.0,0.0,0.0,0.0,0.0,0.0,0.0,0.0,0.0,0.0,0.0,0.0,0.0,0.0,0.0,0.0,0.0,0.0,0.0,0.0,0.0,0.0,0.0,0.0,0.0,0.0,0.0,0.0,0.0,0.0,0.0,0.0,0.0,0.0,0.0,0.0,0.0,0.0,0.0,0.0,0.0,0.0,0.0,0.0,0.0,0.0,0.0,0.0,0.0,0.0,-1.3576,-1.5912,-1.7636,-1.8719,-1.997,-2.0607,-2.0498,-1.8138,-1.6233,-1.4913,0.0,0.0,0.0,0.0,0.0,0.0,0.0,0.0,0.0,0.0,0.0,0.0,0.0,0.0,0.0,0.0,0.0,0.0,0.0,0.0,0.0,0.0,0.0,0.0,0.0,0.0,0.0,0.0,0.0,0.0,0.0,0.0,0.0,0.0,0.0,0.0,0.0,0.0,0.0,-1.3573,-1.4514,0.0,0.0,0.0,0.0,0.0,0.0,0.0,0.0,-1.3946,0.0,0.0,0.0,0.0,0.0,0.0,0.0,0.0,0.0,0.0,0.0,0.0,0.0,0.0,0.0,0.0,0.0,0.0,0.0,0.0,0.0,0.0,0.0,0.0,0.0,0.0,0.0,0.0,0.0,0.0,0.0,0.0,0.0,0.0,0.0,0.0,0.0,0.0,0.0,0.0,0.0,0.0,0.0,0.0,0.0,0.0,0.0,0.0,0.0,0.0,0.0,0.0,0.0,0.0,0.0,-1.399,-1.559,-1.7235,-1.8834,-1.9579,-1.9744,-1.9382,-1.7323,-1.5611,0.0,0.0,0.0,0.0,0.0,0.0,0.0,0.0,0.0,0.0,0.0,0.0,0.0,0.0,0.0,0.0,0.0,0.0,0.0,0.0,0.0,0.0,0.0,0.0,0.0,0.0,0.0,0.0,0.0,0.0,0.0,0.0,0.0,0.0,0.0,0.0,0.0,0.0,0.0,0.0,-1.3856,-1.4556,-1.3485,0.0,0.0,0.0,0.0,0.0,0.0,-1.4594,-1.4124,0.0,0.0,0.0,0.0,0.0,0.0,0.0,0.0,0.0,0.0,0.0,0.0,0.0,0.0,0.0,0.0,0.0,0.0,0.0,0.0,0.0,0.0,0.0,0.0,0.0,0.0,0.0,0.0,0.0,0.0,0.0,0.0,0.0,0.0,0.0,0.0,0.0,0.0,0.0,0.0,0.0,0.0,0.0,0.0,0.0,0.0,0.0,0.0,0.0,0.0,0.0,0.0,0.0,0.0,0.0,-1.413,-1.5367,-1.6847,-1.8584,-1.9017,-1.8933,-1.8301,-1.6505,-1.498,0.0,0.0,0.0,0.0,0.0,0.0,0.0,0.0,0.0,0.0,0.0,0.0,0.0,0.0,0.0,0.0,0.0,0.0,0.0,0.0,0.0,0.0,0.0,0.0,0.0,0.0,0.0,0.0,0.0,0.0,0.0,0.0,0.0,0.0,0.0,0.0,0.0,0.0,0.0,0.0,0.0,-1.4957,-1.3638,-1.5054,0.0,0.0,0.0,0.0,-1.6144,-1.5773,0.0,0.0,0.0,0.0,0.0,0.0,0.0,0.0,0.0,0.0,0.0,0.0,0.0,0.0,0.0,0.0,0.0,0.0,0.0,0.0,0.0,0.0,0.0,0.0,0.0,0.0,0.0,0.0,0.0,0.0,0.0,0.0,0.0,0.0,0.0,0.0,0.0,0.0,0.0,0.0,0.0,0.0,0.0,0.0,0.0,0.0,0.0,0.0,0.0,0.0,0.0,0.0,0.0,0.0,0.0,0.0,-1.4375,-1.6019,-1.7303,-1.8117,-1.8446,-1.8335,-1.7702,-1.589,-1.4362,0.0,0.0,0.0,0.0,0.0,0.0,0.0,0.0,0.0,0.0,0.0,0.0,0.0,0.0,0.0,0.0,0.0,0.0,0.0,0.0,0.0,0.0,0.0,0.0,0.0,0.0,0.0,0.0,0.0,0.0,0.0,0.0,0.0,0.0,0.0,0.0,0.0,0.0,0.0,0.0,0.0,-1.6637,-1.5766,-1.6398,-1.6706,0.0,0.0,-1.7552,-1.7047,-1.9009,0.0,0.0,0.0,0.0,0.0,0.0,0.0,0.0,0.0,0.0,0.0,0.0,0.0,0.0,0.0,0.0,0.0,0.0,0.0,0.0,0.0,0.0,0.0,0.0,0.0,0.0,0.0,0.0,0.0,0.0,0.0,0.0,0.0,0.0,0.0,0.0,0.0,0.0,0.0,0.0,0.0,0.0,0.0,0.0,0.0,0.0,0.0,0.0,0.0,0.0,0.0,0.0,0.0,0.0,0.0,-1.3736,-1.5094,-1.551,-1.6381,-1.7731,-1.7218,-1.6617,-1.6014,-1.4571,-1.3389,0.0,0.0,0.0,0.0,0.0,0.0,0.0,0.0,0.0,0.0,0.0,0.0,0.0,0.0,0.0,0.0,0.0,0.0,0.0,0.0,0.0,0.0,0.0,0.0,0.0,0.0,0.0,0.0,0.0,0.0,0.0,0.0,0.0,0.0,0.0,0.0,0.0,0.0,0.0,0.0,0.0,0.0,-1.622,-1.7704,0.0,0.0,0.0,-1.9321,-1.9083,0.0,0.0,0.0,0.0,0.0,0.0,0.0,0.0,0.0,0.0,0.0,0.0,0.0,0.0,0.0,0.0,0.0,0.0,0.0,0.0,0.0,0.0,0.0,0.0,0.0,0.0,0.0,0.0,0.0,0.0,0.0,0.0,0.0,0.0,0.0,0.0,0.0,0.0,0.0,0.0,0.0,0.0,0.0,0.0,0.0,0.0,0.0,0.0,0.0,0.0,0.0,0.0,0.0,0.0,0.0,0.0,0.0,-1.548,-1.4969,-1.5528,-1.7084,-1.6075,-1.5202,-1.4583,-1.3558,0.0,0.0,0.0,0.0,0.0,0.0,0.0,0.0,0.0,0.0,0.0,0.0,0.0,0.0,0.0,0.0,0.0,0.0,0.0,0.0,0.0,0.0,0.0,0.0,0.0,0.0,0.0,-1.2671,0.0,0.0,0.0,0.0,0.0,0.0,0.0,0.0,0.0,0.0,0.0,0.0,0.0,0.0,-1.8729,-1.6824,-1.8912,-2.0045,0.0,0.0,-2.1136,-2.0819,-2.0904,-2.0872,0.0,0.0,0.0,0.0,0.0,0.0,0.0,0.0,0.0,0.0,0.0,0.0,0.0,0.0,0.0,0.0,0.0,0.0,0.0,0.0,0.0,0.0,0.0,0.0,0.0,0.0,0.0,0.0,0.0,0.0,0.0,0.0,0.0,0.0,0.0,0.0,0.0,0.0,0.0,0.0,0.0,0.0,0.0,0.0,0.0,0.0,0.0,0.0,0.0,0.0,0.0,0.0,0.0,0.0,0.0,-1.5086,-1.4844,-1.5167,-1.6046,-1.5299,-1.4569,-1.398,-1.3319,-1.2725,0.0,0.0,0.0,0.0,0.0,0.0,0.0,0.0,0.0,0.0,0.0,0.0,0.0,0.0,0.0,0.0,0.0,0.0,0.0,0.0,0.0,0.0,0.0,0.0,0.0,0.0,0.0,0.0,0.0,0.0,0.0,0.0,0.0,0.0,0.0,0.0,0.0,0.0,0.0,0.0,0.0,-1.9156,-1.8202,-2.0039,-2.1212,0.0,0.0,-2.3096,-2.1752,-2.3786,-2.4428,-2.1151,0.0,0.0,0.0,0.0,0.0,0.0,0.0,0.0,0.0,0.0,0.0,0.0,0.0,0.0,0.0,0.0,0.0,0.0,0.0,0.0,0.0,0.0,0.0,0.0,0.0,0.0,0.0,0.0,0.0,0.0,0.0,0.0,0.0,0.0,0.0,0.0,0.0,0.0,0.0,0.0,0.0,0.0,0.0,0.0,0.0,0.0,0.0,0.0,0.0,0.0,0.0,0.0,0.0,-1.4423,-1.5134,-1.5065,-1.4981,-1.4935,-1.4481,-1.3769,-1.2757,-1.2152,-1.1909,0.0,0.0,0.0,0.0,0.0,0.0,0.0,0.0,0.0,0.0,0.0,0.0,0.0,0.0,0.0,0.0,0.0,0.0,0.0,0.0,0.0,0.0,0.0,0.0,0.0,0.0,0.0,0.0,-1.1793,-1.2439,-1.2886,0.0,0.0,0.0,0.0,0.0,0.0,0.0,0.0,0.0,0.0,-2.0283,-1.9698,-2.1538,0.0,0.0,-2.3769,-2.4822,-2.3902,-2.4247,-2.4198,-2.2894,-2.2062,0.0,0.0,0.0,0.0,0.0,0.0,0.0,0.0,0.0,0.0,0.0,0.0,0.0,0.0,0.0,0.0,0.0,0.0,0.0,0.0,0.0,0.0,0.0,0.0,0.0,0.0,0.0,0.0,0.0,0.0,0.0,0.0,0.0,0.0,0.0,0.0,0.0,0.0,0.0,0.0,0.0,0.0,0.0,0.0,0.0,0.0,0.0,0.0,0.0,0.0,0.0,0.0,-1.473,-1.5065,-1.4992,-1.4675,-1.42,-1.382,-1.3108,-1.204,-1.1432,-1.1416,0.0,0.0,0.0,0.0,0.0,0.0,0.0,0.0,0.0,0.0,0.0,0.0,0.0,0.0,0.0,0.0,0.0,0.0,0.0,0.0,0.0,0.0,0.0,0.0,0.0,0.0,0.0,0.0,-1.2423,-1.3391,-1.4119,0.0,0.0,0.0,0.0,0.0,0.0,0.0,0.0,0.0,0.0,-2.0729,-2.0456,-2.2098,-2.3309,-2.3176,-2.4611,-2.5519,-2.4878,-2.443,-2.4001,-2.3438,0.0,0.0,0.0,0.0,0.0,0.0,0.0,0.0,0.0,0.0,0.0,0.0,0.0,0.0,0.0,0.0,0.0,0.0,0.0,0.0,0.0,0.0,0.0,0.0,0.0,0.0,0.0,0.0,0.0,0.0,-1.5108,0.0,0.0,0.0,0.0,0.0,0.0,0.0,0.0,0.0,0.0,0.0,0.0,0.0,0.0,0.0,0.0,0.0,0.0,0.0,0.0,0.0,0.0,-1.5051,-1.4805,-1.4516,-1.4184,-1.3893,-1.3333,-1.2713,-1.2028,-1.1468,-1.149,-1.2101,0.0,0.0,0.0,0.0,0.0,0.0,0.0,0.0,0.0,0.0,0.0,0.0,0.0,0.0,0.0,0.0,0.0,0.0,0.0,0.0,0.0,0.0,0.0,0.0,0.0,0.0,-1.5126,-1.393,-1.344,0.0,0.0,0.0,0.0,0.0,0.0,0.0,0.0,0.0,0.0,-1.9698,-2.0197,-2.015,-2.1455,-2.2818,-2.3802,-2.4613,-2.4878,-2.4149,-2.458,-2.4348,0.0,0.0,0.0,0.0,0.0,0.0,0.0,0.0,0.0,0.0,0.0,0.0,0.0,0.0,0.0,0.0,0.0,0.0,0.0,0.0,0.0,0.0,0.0,0.0,0.0,0.0,0.0,-1.4731,-1.4176,0.0,0.0,0.0,0.0,0.0,0.0,0.0,0.0,0.0,0.0,0.0,-1.6308,-1.6649,0.0,0.0,0.0,0.0,0.0,0.0,0.0,0.0,0.0,0.0,0.0,0.0,-1.5056,-1.4739,-1.462,-1.4133,-1.3205,-1.3189,-1.3038,-1.2659,-1.1682,-1.1674,-1.2799,0.0,0.0,0.0,0.0,0.0,0.0,0.0,0.0,0.0,0.0,0.0,0.0,0.0,0.0,0.0,0.0,0.0,0.0,0.0,0.0,0.0,0.0,0.0,0.0,0.0,-1.7243,0.0,0.0,0.0,0.0,0.0,0.0,0.0,0.0,0.0,0.0,0.0,-1.944,-1.8814,-1.9813,-2.0687,-2.0875,-2.1952,-2.3028,0.0,0.0,0.0,0.0,0.0,0.0,0.0,0.0,0.0,0.0,0.0,0.0,0.0,0.0,-2.4481,-2.2525,-2.2162,-2.2177,-2.2162,0.0,0.0,0.0,0.0,0.0,0.0,0.0,0.0,0.0,0.0,0.0,0.0,0.0,0.0,-1.4414,0.0,-1.4648,0.0,0.0,0.0,0.0,0.0,0.0,0.0,0.0,-1.6,-1.6286,-1.68,-1.6981,-1.6883,0.0,-1.6722,-1.7004,0.0,0.0,0.0,0.0,0.0,0.0,0.0,0.0,-1.5074,-1.4651,-1.4441,-1.391,-1.3032,-1.3212,-1.3225,-1.2995,-1.2232,-1.2016,-1.2446,-1.3927,-1.3983,0.0,0.0,0.0,0.0,0.0,0.0,0.0,0.0,0.0,0.0,0.0,0.0,0.0,0.0,0.0,0.0,0.0,0.0,0.0,0.0,0.0,0.0,0.0,-1.7245,0.0,0.0,0.0,0.0,0.0,0.0,0.0,0.0,0.0,-1.9906,-1.9986,-1.9924,-1.9561,-2.0255,-2.0956,-2.1375,0.0,0.0,0.0,0.0,0.0,0.0,0.0,-2.3934,-2.4315,-2.458,-2.4845,-2.5043,-2.5705,-2.597,-2.5225,0.0,0.0,-2.3304,-2.2955,-2.3003,-2.2986,-2.3018,-2.3214,-2.3759,-2.4157,-2.4471,0.0,0.0,0.0,0.0,0.0,0.0,0.0,0.0,-1.3947,-1.4265,0.0,-1.4617,0.0,0.0,0.0,0.0,0.0,-1.5537,0.0,0.0,-1.6397,-1.6717,-1.7157,-1.686,-1.6667,-1.6619,-1.6175,-1.6154,-1.6516,-1.6504,0.0,0.0,0.0,0.0,0.0,0.0,-1.5188,-1.453,-1.3986,-1.3582,-1.3297,-1.3347,-1.324,-1.2996,-1.3106,-1.2568,-1.1374,-1.3212,-1.368,-1.2501,-1.4284,0.0,0.0,0.0,0.0,0.0,0.0,0.0,0.0,0.0,0.0,0.0,0.0,0.0,0.0,0.0,0.0,0.0,0.0,0.0,0.0,-1.5233,0.0,0.0,0.0,0.0,0.0,0.0,0.0,0.0,0.0,0.0,-2.1134,-2.0958,-2.0897,-2.1155,0.0,0.0,0.0,0.0,-2.1433,-2.31,-2.303,-2.3199,-2.4267,-2.4987,-2.5324,-2.5157,0.0,0.0,-2.5392,-2.5855,-2.6136,-2.5392,-2.5411,-2.5279,-2.5177,-2.5129,-2.518,-2.5163,-2.5263,-2.5463,-2.5546,-2.6,-2.6337,-1.4354,0.0,0.0,0.0,0.0,-1.4826,-1.5089,-1.5452,-1.5317,-1.518,-1.5112,-1.4944,0.0,0.0,0.0,0.0,0.0,0.0,-1.6173,-1.6256,-1.6836,-1.735,-1.7775,-1.7746,-1.7748,-1.7748,-1.7567,-1.7195,-1.6574,-1.6572,-1.6779,-1.7191,0.0,0.0,0.0,0.0,-1.5355,-1.479,-1.3982,-1.3451,-1.3211,-1.2826,-1.2629,-1.265,-1.3782,-1.4055,-1.334,-1.4256,-1.4658,-1.4457,-1.4949,0.0,0.0,0.0,0.0,0.0,0.0,0.0,0.0,0.0,0.0,0.0,0.0,0.0,0.0,0.0,0.0,0.0,0.0,0.0,-1.9092,-1.8106,-1.7679,0.0,0.0,0.0,0.0,0.0,0.0,0.0,0.0,0.0,-2.0513,-2.0679,-2.093,0.0,0.0,-2.1031,-2.1695,-2.1566,-2.1615,-2.2098,-2.2485,0.0,0.0,-2.3864,-2.4444,-2.5686,-2.6932,-2.7843,-2.8125,-2.8337,-2.8403,-2.8155,-2.7815,-2.7336,-2.677,-2.6363,-2.6099,-2.6047,-2.65,-2.6772,-2.6438,-2.6859,-2.7179,-1.52,-1.4473,-1.4496,-1.5021,-1.5817,-1.5924,-1.6148,-1.6471,-1.6059,-1.5938,-1.5997,-1.5603,-1.5516,-1.567,-1.5545,0.0,0.0,0.0,-1.6704,-1.6843,-1.7383,-1.7924,-1.8353,-1.8276,-1.8193,-1.8193,-1.7989,-1.7568,-1.6907,-1.6703,-1.6724,-1.6945,0.0,0.0,-1.6637,-1.5844,-1.5266,-1.4928,-1.3989,-1.3509,-1.3521,-1.3082,-1.2979,-1.3274,-1.4204,-1.4642,-1.4484,-1.4813,-1.5058,-1.5132,-1.5178,-1.4458,0.0,0.0,0.0,0.0,0.0,0.0,0.0,0.0,0.0,0.0,0.0,-1.6743,-1.7088,0.0,0.0,0.0,-1.7404,-1.7248,-1.7649,-1.7602,0.0,0.0,0.0,0.0,0.0,0.0,0.0,-1.9968,-1.996,-1.9997,-1.9997,-2.0326,-2.0677,-2.1033,-2.0775,-2.0891,-2.1827,0.0,-2.1682,-2.2209,-2.2514,-2.3001,-2.3845,-2.3983,-2.4588,-2.6345,-2.7613,-2.8359,-2.8489,-2.8555,-2.8572,-2.8522,-2.8262,-2.795,-2.7781,-2.7531,-2.7139,-2.6533,-2.6838,-2.7145,-2.7062,-2.7687,-2.799,-1.5799,-1.5673,-1.6507,-1.6931,-1.7051,-1.7238,-1.7378,-1.7429,-1.6475,-1.6579,-1.7368,-1.6457,-1.6241,-1.6564,-1.6262,0.0,-1.6623,-1.6907,-1.7301,-1.7784,-1.7984,-1.8374,-1.8963,-1.8494,-1.8265,-1.8253,-1.7772,-1.7483,-1.7435,-1.6967,-1.6679,-1.6595,-1.6126,-1.584,-1.5768,-1.5313,-1.5049,-1.4989,-1.4093,-1.3734,-1.3925,-1.3779,-1.3868,-1.4296,-1.4374,-1.4547,-1.4841,-1.495,-1.4967,-1.4918,-1.5086,-1.4616,-1.3406,0.0,0.0,0.0,0.0,0.0,0.0,0.0,0.0,0.0,0.0,0.0,0.0,0.0,0.0,0.0,-1.4023,0.0,-1.3644,-1.5459,0.0,0.0,0.0,-2.0778,-2.0728,-2.0412,-2.0191,-2.0156,0.0,0.0,-1.9708,-1.9962,-2.0294,-2.058,-2.039,-2.0683,-2.1952,-2.1553,-2.1612,-2.2677,-2.2808,-2.3178,-2.4347,-2.4847,-2.55,-2.6838,-2.7812,-2.8028,-2.7531,-2.7365,-2.7334,-2.7514,-2.7404,-2.7574,-2.8196,-2.8196,-2.8025,-2.6668,-2.6741,-2.7114,-2.7637,-2.828,-2.8465,-1.6799,-1.642,-1.7173,-1.7102,-1.6491,-1.6542,-1.7215,-1.8242,-1.764,-1.7588,-1.7902,-1.7315,-1.6888,-1.6587,-1.6533,-1.657,-1.6783,-1.7241,-1.7576,-1.7819,-1.8377,-1.8717,-1.8839,-1.8814,-1.8806,-1.8794,-1.8674,-1.841,-1.8025,-1.7893,-1.7399,-1.6631,-1.6475,-1.6211,-1.5804,-1.5694,-1.5408,-1.5013,-1.4761,-1.4313,-1.3636,-1.3431,-1.3387,-1.3559,-1.4103,-1.4454,-1.458,-1.4796,-1.4949,-1.4967,-1.5013,-1.4529,-1.3379,-1.521,0.0,0.0,0.0,0.0,0.0,0.0,0.0,0.0,0.0,-1.7452,-1.8016,0.0,-1.852,0.0,-1.8022,-1.8106,-1.8888,-1.9105,0.0,0.0,-2.0298,-2.0595,-2.0045,-2.0102,-2.0102,-1.9839,-1.9747,-1.9723,-1.9723,-1.9764,-1.9843,-1.9917,-2.0102,-2.0516,-2.135,-2.1102,-2.093,-2.1351,-2.2134,-2.2924,-2.3657,-2.5147,-2.6189,-2.6429,-2.7065,-2.7481,-2.7334,-2.7317,-2.7464,-2.7961,-2.7682,-2.745,-2.7499,-2.6776,-2.6229,-2.6381,-2.7358,-2.8156,-2.7837,-2.7887,-2.7768,-1.7149,-1.7003,-1.717,-1.7096,-1.6862,-1.7247,-1.7926,-1.8722,-1.8235,-1.7978,-1.7882,-1.7272,-1.7236,-1.7561,-1.7163,-1.712,-1.7401,-1.7678,-1.7911,-1.8081,-1.8454,-1.8664,-1.8706,-1.8839,-1.8919,-1.8893,-1.896,-1.8869,-1.8554,-1.8326,-1.7905,-1.7303,-1.6835,-1.6451,-1.614,-1.5912,-1.5768,-1.5708,-1.5241,-1.4517,-1.3541,-1.3374,-1.3393,-1.3555,-1.3772,-1.4054,-1.4452,-1.459,-1.4669,-1.4721,-1.4905,-1.4485,-1.3421,-1.4703,-1.4834,0.0,0.0,0.0,0.0,0.0,0.0,0.0,0.0,0.0,0.0,0.0,-1.8939,-1.931,-1.8419,-1.8485,-2.0148,-2.0083,-1.9925,-1.998,-2.0187,-2.0152,-1.9762,-1.9839,-1.9925,-1.9726,-1.9723,-1.9723,-1.9723,-1.9723,-1.9723,-1.9723,-1.9871,-2.0238,-2.0847,-2.0839,-2.0793,-2.1126,-2.1893,-2.2683,-2.3249,-2.4498,-2.5392,-2.529,-2.5557,-2.5939,-2.6254,-2.6337,-2.6452,-2.68,-2.6602,-2.6221,-2.5873,-2.526,-2.483,-2.5279,-2.6031,-2.6737,-2.7126,-2.7159,-2.6991,-1.7227,-1.7493,-1.7035,-1.7116,-1.7608,-1.8284,-1.8792,-1.9029,-1.8575,-1.8259,-1.8006,-1.7264,-1.765,-1.8827,-1.7993,-1.7783,-1.81,-1.8084,-1.8193,-1.8406,-1.8464,-1.8534,-1.8614,-1.8789,-1.8866,-1.8893,-1.9027,-1.9143,-1.9179,-1.8662,-1.8374,-1.8265,-1.7315,-1.6775,-1.6691,-1.6187,-1.608,-1.6475,-1.5548,-1.4577,-1.3722,-1.3565,-1.363,-1.3816,-1.3425,-1.3539,-1.42,-1.4308,-1.4395,-1.4516,-1.4949,-1.4783,-1.3968,-1.3979,-1.4543,0.0,-1.5776,0.0,0.0,0.0,0.0,0.0,0.0,0.0,0.0,-1.9139,-1.9232,-1.9409,-1.7464,-1.7174,-1.9513,-1.9723,-1.9723,-1.9723,-1.9723,-1.9723,-1.9723,-1.9723,-1.9723,-1.9723,-1.9723,-1.9723,-1.9723,-1.9723,-1.9723,-1.9708,-1.9726,-1.9921,-2.0423,-2.0543,-2.0722,-2.138,-2.1758,-2.22,-2.3094,-2.3631,-2.3951,-2.3984,-2.4133,-2.4232,-2.4895,-2.4994,-2.4994,-2.5011,-2.5044,-2.4795,-2.41,-2.4034,-2.4033,-2.4165,-2.4298,-2.4746,-2.5798,-2.6116,-2.6166,-1.7768,-1.7739,-1.7647,-1.7667,-1.7729,-1.7587,-1.8276,-1.9449,-1.9039,-1.9244,-1.9851,-1.9345,-1.9028,-1.8885,-1.8701,-1.8437,-1.8084,-1.8084,-1.8193,-1.8406,-1.8802,-1.8822,-1.8622,-1.9034,-1.929,-1.9428,-1.9483,-1.9765,-2.0298,-1.9744,-1.9263,-1.8831,-1.8217,-1.77,-1.7243,0.0,0.0,0.0,-1.5441,-1.5018,-1.471,-1.3959,-1.3575,-1.3582,-1.3346,0.0,-1.345,-1.4201,-1.4774,-1.513,-1.5774,0.0,0.0,0.0,0.0,0.0,0.0,0.0,0.0,0.0,0.0,0.0,-1.9116,-1.9139,-1.9265,-1.9413,-1.952,-1.9541,-1.917,-1.9151,-1.9648,-1.9723,-1.9723,-1.9723,-1.9723,-1.9723,-1.9723,-1.9723,-1.9723,-1.9723,-1.9723,-1.9723,-1.9723,-1.9723,-1.9723,-1.9723,-1.9723,-1.9753,-1.9887,-1.9947,-1.9947,-2.013,-2.067,-2.1469,-2.2736,-2.2966,-2.3234,-2.3769,-2.3984,-2.4033,-2.4166,-2.4216,-2.4199,-2.4216,-2.4199,-2.4183,-2.3984,-2.3984,-2.3901,-2.4,-2.3984,-2.4132,-2.448,-2.4563,-2.453,-1.7797,0.0,-1.7835,-1.7981,0.0,-1.7945,-1.8526,-1.9649,-1.866,-1.8904,-1.9976,-1.9738,-1.9625,-1.9631,-1.9401,-1.916,-1.8896,-1.8604,-1.8683,-1.901,-1.8732,-1.8823,-1.9139,-1.895,-1.9158,-1.9724,-1.9521,-1.9771,-2.0291,-1.9877,-1.9526,-1.9224,-1.8526,-1.7904,-1.7375,-1.6607,-1.6056,-1.5814,-1.5582,-1.5338,-1.5001,-1.4546,-1.4235,-1.4121,0.0,0.0,0.0,0.0,0.0,0.0,0.0,0.0,0.0,0.0,0.0,-1.9058,-1.9116,-1.9116,-1.9116,-1.9116,-1.9116,-1.9101,-1.9172,-1.9246,-1.9288,-1.9413,-1.9538,-1.9593,-1.9669,-1.9723,-1.9723,-1.9723,-1.9723,-1.9723,-1.9723,-1.9723,-1.9723,-1.9723,-1.9723,-1.9723,-1.9723,-1.9723,-1.9723,-1.9723,-1.9723,-1.9723,-1.9723,-1.9723,-1.9723,-1.9723,-1.9762,-1.9925,-2.0185,-2.0837,-2.1779,-2.2061,-2.2245,-2.2781,-2.2907,-2.3089,-2.3388,-2.347,-2.3454,-2.3454,-2.347,-2.3371,-2.2973,-2.2907,-2.2907,-2.2907,-2.2907,-2.2923,-2.3004,-2.3534,-2.4049,-1.7789,-1.8046,-1.7952,-1.8202,-1.8665,-1.8431,-1.8782,-1.9468,0.0,0.0,0.0,-1.9597,-1.9815,-2.0287,-1.981,-1.965,-1.9666,-1.9241,-1.9275,-1.9654,-1.8879,-1.8925,-1.9661,-1.9049,-1.9262,-2.011,-1.972,-1.9877,-2.0446,-1.9986,-1.9717,-1.9578,-1.8818,-1.8118,-1.7507,-1.6475,-1.5936,-1.5946,-1.5862,-1.561,-1.5157,-1.507,-1.4983,-1.4844,-1.4488,-1.4428,-1.4702,-1.4926,-1.51,-1.5274,-1.6078,-1.6826,-1.7511,-1.8004,-1.8469,-1.8964,-1.9064,-1.9116,-1.9116,-1.9116,-1.9116,-1.9116,-1.9195,-1.9284,-1.9288,-1.9376,-1.9483,-1.9556,-1.9636,-1.969,-1.969,-1.969,-1.9723,-1.9723,-1.9723,-1.9723,-1.9723,-1.9723,-1.9723,-1.9723,-1.9723,-1.9723,-1.9723,-1.9723,-1.9723,-1.9723,-1.9723,-1.9723,-1.9723,-1.9723,-1.9782,-2.0013,-2.0076,-2.0356,-2.0909,-2.1119,-2.1246,-2.1625,-2.173,-2.1937,-2.2433,-2.2661,-2.2692,-2.2692,-2.2708,-2.2477,-2.1947,-2.1897,-2.1781,-2.1781,-2.1781,-2.1781,-2.1897,-2.2742,-2.3503,-1.8109,-1.8353,-1.8341,-1.8479,-1.8674,-1.8305,-1.833,-1.8678,-1.9465,-1.992,-2.0093,-1.9748,-1.9705,-1.9965,-1.9538,-1.9491,-1.97,-1.9608,-1.9631,-1.9711,-1.9934,-1.9941,-1.9711,-1.9994,-2.0469,-2.1109,-2.071,-2.107,-2.1878,-2.1122,-2.0517,-2.0132,-1.9618,-1.8887,-1.806,-1.7027,-1.6499,-1.6487,-1.6142,-1.5876,-1.5706,-1.5356,-1.5111,-1.4964,-1.453,-1.4329,-1.4368,-1.4886,-1.5372,-1.5882,-1.6549,-1.7175,-1.7732,-1.8199,-1.8493,-1.8611,-1.8917,-1.9116,-1.9101,-1.9116,-1.9116,-1.9116,-1.912,-1.9176,-1.9302,-1.945,-1.952,-1.9465,-1.9599,-1.9672,-1.9629,-1.9654,-1.9723,-1.9723,-1.9723,-1.9723,-1.9723,-1.9723,-1.9723,-1.9723,-1.9723,-1.9723,-1.9723,-1.9723,-1.9723,-1.9723,-1.9723,-1.9723,-1.9723,-1.9723,-1.9726,-1.9764,-1.9764,-1.9942,-2.0344,-2.0362,-2.058,-2.0877,-2.1214,-2.1467,-2.1613,-2.1879,-2.2046,-2.198,-2.2044,-2.1947,-2.1781,-2.1781,-2.1781,-2.1781,-2.1781,-2.1781,-2.1781,-2.2079,-2.221,-1.808,-1.8161,-1.8201,-1.8322,-1.8554,-1.8457,-1.8465,-1.8605,-1.9277,-1.973,-2.0012,-2.0247,-2.052,-2.0714,-2.027,-2.0375,-2.0882,-2.0331,-2.0228,-2.0488,-2.0171,-2.0182,-2.0465,-2.0171,-2.0592,-2.1553,-2.0892,-2.1235,-2.2343,-2.1335,-2.0637,-2.0399,-1.9294,-1.8477,-1.8054,-1.7111,-1.6607,-1.6583,-1.6123,-1.5881,-1.5814,-1.563,-1.5485,-1.542,-1.5223,-1.5115,-1.5115,-1.5438,-1.5752,-1.5973,-1.6641,-1.7097,-1.7366,-1.7834,-1.8127,-1.8141,-1.8519,-1.8765,-1.8779,-1.8988,-1.9116,-1.9116,-1.9116,-1.9157,-1.9269,-1.9413,-1.9501,-1.9505,-1.9632,-1.969,-1.965,-1.9672,-1.9723,-1.9723,-1.9723,-1.9723,-1.9723,-1.9723,-1.9723,-1.9723,-1.9723,-1.9723,-1.9723,-1.9723,-1.9723,-1.9723,-1.9723,-1.9723,-1.9723,-1.9723,-1.9723,-1.9723,-1.9723,-1.9839,-2.0122,-2.0191,-2.0378,-2.0729,-2.1071,-2.1262,-2.1309,-2.1572,-2.1751,-2.1781,-2.1781,-2.1781,-2.1781,-2.1781,-2.1781,-2.1781,-2.1781,-2.1781,-2.1781,-2.1781,-2.1781,-1.7991,-1.7991,-1.7991,-1.8121,-1.8322,-1.8531,-1.8612,-1.8652,-1.8913,-1.9245,-1.9669,-2.0143,-2.0586,-2.091,-2.036,-2.0609,-2.1303,-2.0687,-2.0623,-2.1086,-2.0408,-2.0465,-2.1063,-2.0385,-2.0699,-2.1676,-2.1009,-2.1261,-2.2259,-2.1308,-2.0618,-2.0319,-1.8995,-1.827,-1.8154,-1.7218,-1.674,-1.6739,-1.6139,-1.5814,-1.5814,-1.5814,-1.5814,-1.5814,-1.5814,-1.5814,-1.5814,-1.5913,-1.5979,-1.601,-1.6539,-1.685,-1.6888,-1.738,-1.7659,-1.7707,-1.8187,-1.8553,-1.8649,-1.8931,-1.9116,-1.9116,-1.9116,-1.9139,-1.925,-1.9354,-1.9413,-1.9538,-1.9632,-1.9672,-1.9672,-1.969,-1.9723,-1.9723,-1.9723,-1.9723,-1.9723,-1.9723,-1.9723,-1.9723,-1.9723,-1.9723,-1.9723,-1.9723,-1.9723,-1.9723,-1.9723,-1.9723,-1.9723,-1.9723,-1.9723,-1.9723,-1.9723,-1.9782,-2.005,-2.0067,-2.0206,-2.0527,-2.0795,-2.0942,-2.1055,-2.1354,-2.1646,-2.1678,-2.1736,-2.1781,-2.1781,-2.1781,-2.1781,-2.1781,-2.1781,-2.1781,-2.1781,-2.1781,-2.1781,-1.7991,-1.7991,-1.7991,-1.804,-1.808,-1.8322,-1.8442,-1.8482,-1.8843,-1.9024,-1.9082,-1.857,-1.8832,-1.9259,-1.8681,-1.9132,-2.0271,-2.0182,-2.0505,-2.1106,-2.1109,-2.1121,-2.1158,-2.1075,-2.1342,-2.178,-2.1365,-2.1454,-2.2019,-2.1431,-2.0742,-2.0006,-1.9439,-1.8991,-1.8629,-1.7655,-1.7206,-1.7291,-1.6308,-1.5814,-1.5814,-1.5814,-1.5814,-1.5814,-1.5814,-1.5814,-1.5814,-1.5814,-1.5881,-1.5988,-1.6188,-1.634,-1.65,-1.6955,-1.7261,-1.7269,-1.8042,-1.8655,-1.9007,-1.9068,-1.9116,-1.9116,-1.9116,-1.9101,-1.912,-1.9232,-1.9339,-1.9446,-1.9538,-1.9611,-1.9626,-1.9669,-1.969,-1.9723,-1.9723,-1.9723,-1.9723,-1.9723,-1.9723,-1.9723,-1.9723,-1.9723,-1.9723,-1.9723,-1.9723,-1.9723,-1.9723,-1.9723,-1.9723,-1.9723,-1.9723,-1.9723,-1.9723,-1.9726,-1.978,-1.9762,-1.9851,-1.9871,-2.0102,-2.0345,-2.0531,-2.0926,-2.1356,-2.1464,-2.1602,-2.1721,-2.1797,-2.1781,-2.1781,-2.1781,-2.1781,-2.1781,-2.1781,-2.1781,-2.1781,-1.7991,-1.7991,-1.7991,-1.7991,-1.804,-1.8121,-1.8161,-1.8201,-1.8523,-1.8847,-1.9075,-1.8572,-1.876,-1.9572,-1.9485,-1.9751,-2.0255,-2.021,-2.0198,-2.03,-2.0688,-2.0774,-2.0614,-2.1031,-2.1433,-2.186,-2.1709,-2.187,-2.2157,-2.1581,-2.0715,-1.9853,-1.939,-1.8978,-1.8545,-1.7995,-1.7561,-1.7265,-1.6608,-1.6116,-1.584,-1.5814,-1.5814,-1.5814,-1.5814,-1.5814,-1.5814,-1.5814,-1.5814,-1.5891,-1.6001,-1.6144,-1.6275,-1.6565,-1.6757,-1.6829,-1.7605,-1.8383,-1.9045,-1.9116,-1.9116,-1.9116,-1.9116,-1.9116,-1.9116,-1.9153,-1.9213,-1.9339,-1.9428,-1.9505,-1.9574,-1.9614,-1.965,-1.9705,-1.9723,-1.9708,-1.9723,-1.9723,-1.9723,-1.9723,-1.9723,-1.9723,-1.9723,-1.9723,-1.9723,-1.9723,-1.9723,-1.9723,-1.9723,-1.9723,-1.9723,-1.9723,-1.9723,-1.9723,-1.9723,-1.9723,-1.9723,-1.9762,-1.998,-2.0191,-2.026,-2.0614,-2.1055,-2.123,-2.1418,-2.1617,-2.1783,-2.1797,-2.1781,-2.1781,-2.1781,-2.1781,-2.1781,-2.1781,-2.1781,-1.7991,-1.7991,-1.7991,-1.7991,-1.7991,-1.7991,-1.7991,-1.8031,-1.8282,-1.869,-1.9087,-1.885,-1.9023,-1.9535,-1.9822,-2.0,-2.023,-2.0133,-1.9961,-1.9809,-2.0342,-2.0547,-2.0522,-2.1006,-2.157,-2.202,-2.1951,-2.203,-2.2213,-2.1604,-2.0753,-1.9959,-1.9604,-1.9182,-1.8627,-1.8251,-1.7863,-1.7418,-1.686,-1.6357,-1.6044,-1.5886,-1.5814,-1.5814,-1.5814,-1.5814,-1.5814,-1.5814,-1.5814,-1.5814,-1.5913,-1.6066,-1.62,-1.6318,-1.6479,-1.6701,-1.7269,-1.8008,-1.8893,-1.8917,-1.8974,-1.9082,-1.9116,-1.9116,-1.9116,-1.9116,-1.9139,-1.9228,-1.9284,-1.9376,-1.952,-1.9538,-1.956,-1.9614,-1.9617,-1.9617,-1.9617,-1.9603,-1.9617,-1.9654,-1.9669,-1.9672,-1.969,-1.9723,-1.9723,-1.9723,-1.9723,-1.9723,-1.9723,-1.9723,-1.9723,-1.9723,-1.9723,-1.9723,-1.9723,-1.9723,-1.9723,-1.9744,-1.9927,-2.0032,-2.0087,-2.041,-2.0662,-2.0779,-2.1055,-2.134,-2.1556,-2.1646,-2.1781,-2.1781,-2.1781,-2.1781,-2.1781,-2.1781,-2.1781,-1.7991,-1.7991,-1.7991,-1.8,-1.8,-1.8,-1.8,-1.8074,-1.8282,-1.8509,-1.8816,-1.9273,-1.9252,-1.8874,-1.8968,-1.9183,-1.9731,-1.9835,-1.9898,-2.0058,-2.016,-2.0631,-2.1424,-2.1494,-2.1864,-2.24,-2.2215,-2.1824,-2.1431,-2.1247,-2.0925,-2.0377,-2.0274,-1.9874,-1.9112,-1.8577,-1.8198,-1.7891,-1.7002,-1.6467,-1.6464,-1.6044,-1.585,-1.5804,-1.5814,-1.5814,-1.5814,-1.5814,-1.5814,-1.5814,-1.5935,-1.6044,-1.62,-1.634,-1.6629,-1.7073,-1.722,-1.7605,-1.8364,-1.8539,-1.8688,-1.9026,-1.9082,-1.9116,-1.9116,-1.9116,-1.913,-1.9149,-1.9207,-1.9301,-1.9509,-1.9487,-1.9428,-1.9446,-1.9428,-1.9431,-1.9446,-1.945,-1.9468,-1.9574,-1.9611,-1.9632,-1.9705,-1.9723,-1.969,-1.969,-1.9708,-1.9723,-1.9723,-1.9723,-1.9723,-1.9723,-1.9723,-1.9723,-1.9723,-1.9723,-1.9723,-1.9726,-1.9747,-1.9764,-1.9839,-1.9962,-2.0154,-2.0429,-2.0893,-2.1182,-2.1324,-2.1509,-2.1721,-2.1781,-2.1781,-2.1781,-2.1781,-2.1781,-2.1781,-1.7991,-1.7991,-1.7991,-1.8128,-1.8357,-1.8102,-1.8128,-1.8365,-1.8215,-1.8429,-1.8857,-1.8998,-1.9255,-1.9657,-1.9524,-1.9319,-1.9163,-1.9621,-1.9665,-1.9353,-1.9723,-1.9979,-2.0099,-2.0988,-2.1629,-2.1953,-2.2548,-2.2627,-2.2132,-2.1535,-2.0937,-2.045,-2.0381,-2.0086,-1.9494,-1.9055,-1.8655,-1.8289,-1.7711,-1.717,-1.6667,-1.6415,-1.614,-1.5838,-1.5814,-1.5814,-1.5814,-1.5814,-1.5814,-1.5814,-1.5859,-1.5969,-1.62,-1.6349,-1.6693,-1.7136,-1.7212,-1.7455,-1.8002,-1.8338,-1.8539,-1.8693,-1.8955,-1.9107,-1.9116,-1.9116,-1.9275,-1.9624,-1.972,-1.9929,-2.0172,-1.9796,-1.9358,-1.9395,-1.9409,-1.9439,-1.9409,-1.9409,-1.9446,-1.9571,-1.9593,-1.9611,-1.9614,-1.9647,-1.9647,-1.9647,-1.9672,-1.969,-1.9708,-1.9708,-1.969,-1.9723,-1.9723,-1.9723,-1.9723,-1.9723,-1.9723,-1.9723,-1.9726,-1.9726,-1.978,-1.9782,-1.996,-2.0206,-2.0663,-2.1039,-2.1198,-2.1555,-2.1736,-2.1781,-2.1781,-2.1781,-2.1781,-2.1781,-2.1781,-1.8068,-1.8203,-1.822,-1.8434,-1.8733,-1.8519,-1.8545,-1.8742,-1.8511,-1.8678,-1.9083,-1.9006,-1.9416,-2.0129,-2.0198,-1.9871,-1.9393,-1.987,-1.9815,-1.9369,-1.9786,-1.9947,-2.0007,-2.0868,-2.1464,-2.1686,-2.2362,-2.2661,-2.2353,-2.1615,-2.1029,-2.0676,-2.0653,-2.0331,-1.9734,-1.942,-1.9048,-1.8522,-1.8118,-1.7619,-1.7087,-1.6739,-1.6451,-1.608,-1.5888,-1.5814,-1.5814,-1.5814,-1.5814,-1.5814,-1.5814,-1.5915,-1.6166,-1.6405,-1.6629,-1.6926,-1.6968,-1.7165,-1.7557,-1.7922,-1.821,-1.8544,-1.8804,-1.9024,-1.9188,-1.9378,-1.9721,-2.0091,-2.0333,-2.0596,-2.0733,-2.0298,-1.9875,-1.9869,-1.9757,-1.9625,-1.961,-1.9419,-1.9387,-1.9465,-1.952,-1.952,-1.9538,-1.9538,-1.952,-1.9553,-1.9563,-1.9599,-1.9599,-1.9599,-1.9617,-1.9636,-1.9632,-1.9617,-1.965,-1.965,-1.9687,-1.969,-1.9723,-1.9723,-1.9723,-1.9723,-1.9797,-2.0048,-2.0378,-2.0763,-2.1166,-2.154,-2.1706,-2.1766,-2.1781,-2.1781,-2.1781,-2.1781,-2.1781,-1.828,-1.8571,-1.8596,-1.8819,-1.9187,-1.9136,-1.9187,-1.9153,-1.9127,-1.9204,-1.9383,-1.9434,-1.968,-2.0171,-2.0454,-2.0582,-2.04,-2.0409,-2.0373,-2.0347,-2.0416,-2.0598,-2.0817,-2.0997,-2.1366,-2.1751,-2.1614,-2.1672,-2.1844,-2.1398,-2.1097,-2.1138,-2.1112,-2.0707,-1.9787,-1.9707,-1.927,-1.8627,-1.8143,-1.7897,-1.7857,-1.7099,-1.6643,-1.6499,-1.6056,-1.5814,-1.5814,-1.5814,-1.5814,-1.5814,-1.5814,-1.5925,-1.6227,-1.6417,-1.6534,-1.6656,-1.6581,-1.6769,-1.7214,-1.7366,-1.7862,-1.8517,-1.8723,-1.902,-1.9431,-1.9841,-2.0153,-2.033,-2.0606,-2.0957,-2.0994,-2.0936,-2.0868,-2.0901,-2.0418,-2.0142,-1.9948,-1.9493,-1.9172,-1.9302,-1.9391,-1.9409,-1.9409,-1.9428,-1.9428,-1.9413,-1.9431,-1.945,-1.945,-1.945,-1.9483,-1.9538,-1.9523,-1.949,-1.9541,-1.9593,-1.9632,-1.9654,-1.969,-1.9723,-1.9723,-1.9723,-1.9723,-1.9907,-2.0154,-2.0531,-2.1151,-2.151,-2.1693,-2.1753,-2.1768,-2.1781,-2.1781,-2.1781,-2.1781,-1.8888,-1.8982,-1.899,-1.9222,-1.9504,-1.929,-1.9307,-1.953,-1.9299,-1.9213,-1.9341,-1.9452,-1.958,-1.9734,-1.9986,-2.0248,-2.0408,-2.0451,-2.0445,-2.0492,-2.0539,-2.0403,-2.0429,-2.0861,-2.1371,-2.1659,-2.135,-2.1212,-2.1211,-2.1004,-2.0842,-2.0897,-2.1083,-2.1052,-2.0649,-2.0074,-1.9558,-1.9378,-1.8717,-1.8251,-1.7987,-1.7434,-1.6979,-1.6595,-1.6102,-1.5814,-1.5814,-1.5814,-1.5814,-1.5814,-1.5814,-1.6094,-1.6583,-1.6604,-1.6854,-1.7488,-1.6889,-1.6945,-1.774,-1.7803,-1.8035,-1.8671,-1.9048,-1.9278,-1.9476,-1.9668,-1.997,-2.0284,-2.051,-2.0747,-2.1144,-2.1278,-2.1201,-2.1027,-2.0828,-2.0518,-2.0103,-1.9579,-1.929,-1.9269,-1.9321,-1.9339,-1.9339,-1.9321,-1.9321,-1.9321,-1.9358,-1.9391,-1.9395,-1.9391,-1.9409,-1.9446,-1.9413,-1.9395,-1.945,-1.9468,-1.9505,-1.9545,-1.9599,-1.9669,-1.9687,-1.9705,-1.9705,-1.9797,-2.0015,-2.0413,-2.1039,-2.1402,-2.1572,-2.1738,-2.1783,-2.1781,-2.1781,-2.1781,-2.1781,-1.9256,-1.9384,-1.9384,-1.9607,-1.987,-1.9675,-1.9718,-1.9898,-1.9692,-1.9598,-1.9642,-1.9756,-1.9878,-1.9931,-2.007,-2.0324,-2.058,-2.0642,-2.0632,-2.065,-2.0616,-2.0446,-2.0118,-2.0263,-2.0742,-2.1115,-2.0767,-2.0724,-2.0968,-2.0691,-2.0561,-2.0729,-2.0907,-2.0948,-2.0862,-2.0297,-1.9886,-1.9501,-1.9072,-1.8649,-1.8246,-1.7888,-1.7556,-1.7135,-1.6487,-1.6139,-1.608,-1.59,-1.5814,-1.5814,-1.5846,-1.6161,-1.6643,-1.6734,-1.7117,-1.7589,-1.7503,-1.7488,-1.8102,-1.8094,-1.8318,-1.8804,-1.9154,-1.9412,-1.9564,-1.9724,-2.0137,-2.039,-2.0708,-2.0938,-2.1322,-2.1403,-2.1332,-2.1155,-2.1083,-2.0787,-2.0188,-1.9565,-1.9272,-1.9228,-1.9213,-1.9213,-1.9213,-1.9228,-1.9246,-1.9246,-1.9265,-1.9302,-1.9302,-1.9284,-1.9302,-1.9321,-1.9284,-1.9302,-1.9358,-1.9358,-1.9358,-1.9398,-1.9472,-1.9563,-1.9632,-1.965,-1.965,-1.9797,-1.998,-2.0344,-2.0909,-2.1214,-2.1418,-2.157,-2.1721,-2.1781,-2.1781,-2.1781,-2.1781,-1.9453,-1.9717,-1.9725,-1.9958,-2.024,-2.0232,-2.0215,-2.0266,-2.0249,-2.0215,-2.0223,-2.0226,-2.035,-2.0619,-2.0532,-2.0639,-2.0889,-2.0863,-2.0881,-2.0838,-2.0773,-2.0551,-2.0411,-1.9859,-1.9937,-2.0294,-2.0004,-2.0197,-2.0656,-2.0379,-2.0379,-2.0717,-2.0727,-2.0687,-2.0646,-2.0481,-1.9941,-1.9385,-1.9249,-1.9042,-1.8664,-1.8305,-1.8145,-1.8061,-1.7159,-1.6607,-1.6463,-1.6151,-1.5888,-1.5862,-1.6082,-1.6339,-1.6495,-1.6938,-1.7337,-1.7706,-1.8005,-1.8131,-1.8232,-1.8281,-1.8456,-1.8958,-1.912,-1.9233,-1.9712,-2.0077,-2.0326,-2.0455,-2.0826,-2.1145,-2.1186,-2.1175,-2.118,-2.1298,-2.1092,-2.0748,-2.0226,-1.9551,-1.9178,-1.9134,-1.9116,-1.9116,-1.9134,-1.9134,-1.9134,-1.9134,-1.912,-1.9139,-1.9139,-1.9172,-1.9176,-1.9176,-1.9191,-1.9209,-1.9265,-1.925,-1.925,-1.9269,-1.9343,-1.9417,-1.9541,-1.9578,-1.9614,-1.9762,-1.9925,-2.0308,-2.0629,-2.0861,-2.1166,-2.1386,-2.154,-2.1706,-2.1751,-2.1706,-2.1766,-2.0052,-2.0146,-2.0146,-2.0206,-2.0283,-2.0292,-2.0292,-2.0292,-2.0292,-2.0292,-2.0292,-2.0292,-2.0337,-2.0374,-2.0428,-2.0428,-2.051,-2.051,-2.06,-2.0719,-2.0439,-2.0399,-2.0376,-2.0017,-1.9666,-1.9666,-1.9556,-1.9519,-1.9763,-1.9874,-2.0229,-2.0916,-2.0788,-2.0997,-2.1339,-2.0759,-2.0423,-2.0138,-1.9534,-1.934,-1.9222,-1.8558,-1.8205,-1.8133,-1.7531,-1.7003,-1.6655,-1.6475,-1.6391,-1.6427,-1.6904,-1.7399,-1.7653,-1.7687,-1.7944,-1.8536,-1.8252,-1.8301,-1.8833,-1.8709,-1.8758,-1.9203,-1.933,-1.9493,-1.9631,-1.985,-2.0003,-2.0029,-2.0169,-2.027,-2.0245,-2.027,-2.0421,-2.0726,-2.0671,-2.0605,-2.0549,-1.9783,-1.9116,-1.9116,-1.9145,-1.9159,-1.9116,-1.9116,-1.9116,-1.9116,-1.9116,-1.9116,-1.9116,-1.9116,-1.9139,-1.912,-1.9134,-1.9134,-1.9153,-1.9139,-1.9157,-1.9139,-1.9195,-1.925,-1.9395,-1.9538,-1.9574,-1.9632,-1.9726,-2.003,-2.0224,-2.0413,-2.0747,-2.1103,-2.1277,-2.1386,-2.1509,-2.154,-2.1691,-2.0292,-2.0292,-2.0292,-2.0292,-2.0292,-2.0292,-2.0292,-2.0292,-2.0292,-2.0292,-2.0292,-2.0292,-2.0292,-2.0292,-2.0292,-2.0292,-2.0292,-2.0292,-2.0382,-2.0484,-2.0436,-2.0297,-2.0141,-1.9925,-1.9705,-1.9338,-1.9301,-1.9283,-1.9335,-1.9503,-1.9936,-2.042,-2.0734,-2.1025,-2.1263,-2.1259,-2.0833,-2.0507,-1.9919,-1.9611,-1.94,-1.8869,-1.8588,-1.8434,-1.8025,-1.7496,-1.7039,-1.7135,-1.7183,-1.7087,-1.7303,-1.769,-1.8019,-1.8093,-1.8375,-1.9026,-1.8658,-1.878,-1.9173,-1.9087,-1.9087,-1.9321,-1.9499,-1.9539,-1.9604,-1.9682,-1.9734,-1.9798,-1.9798,-1.9798,-1.9798,-1.9798,-2.0055,-2.0455,-2.0274,-2.0348,-2.0998,-2.0417,-1.9836,-1.9624,-1.9508,-1.9377,-1.9159,-1.9116,-1.9116,-1.9116,-1.9116,-1.9116,-1.9116,-1.9116,-1.9116,-1.9116,-1.9116,-1.9116,-1.9134,-1.912,-1.912,-1.9101,-1.912,-1.9176,-1.9284,-1.9446,-1.952,-1.956,-1.9614,-1.9726,-1.9942,-2.0154,-2.0412,-2.0697,-2.0893,-2.1007,-2.1087,-2.1324,-2.1494,-2.0292,-2.0292,-2.0292,-2.0292,-2.0292,-2.0292,-2.0292,-2.0292,-2.0292,-2.0292,-2.0292,-2.0292,-2.0292,-2.0292,-2.0292,-2.0292,-2.0292,-2.0292,-2.0292,-2.0419,-2.0451,-2.0351,-1.9844,-2.0047,-1.9825,-1.9441,-1.9363,-1.9384,-1.9366,-1.935,-1.9606,-2.0059,-2.0602,-2.0782,-2.0913,-2.1241,-2.1109,-2.0387,-1.9852,-1.9521,-1.9264,-1.8951,-1.8735,-1.8563,-1.8154,-1.7924,-1.7759,-1.7905,-1.7953,-1.7592,-1.7555,-1.775,-1.7909,-1.8273,-1.8506,-1.8729,-1.8998,-1.9206,-1.933,-1.9279,-1.9305,-1.9342,-1.9342,-1.9447,-1.9512,-1.9591,-1.9656,-1.9734,-1.9798,-1.9798,-1.9798,-1.9798,-1.9978,-2.0281,-2.0027,-2.0331,-2.0849,-2.1005,-2.0688,-2.013,-2.0014,-1.9769,-1.9329,-1.9116,-1.9116,-1.9116,-1.9116,-1.9116,-1.9116,-1.9116,-1.9116,-1.9116,-1.9116,-1.9116,-1.9116,-1.9116,-1.9101,-1.9101,-1.9101,-1.9139,-1.9213,-1.9339,-1.9431,-1.9487,-1.9523,-1.9617,-1.9818,-2.0013,-2.0152,-2.0172,-2.0275,-2.0412,-2.0563,-2.0926,-2.1166,-2.0292,-2.0292,-2.0292,-2.0292,-2.0292,-2.0292,-2.0292,-2.0292,-2.0292,-2.0292,-2.0292,-2.0292,-2.0292,-2.0292,-2.0292,-2.0292,-2.0292,-2.0292,-2.0292,-2.0337,-2.0564,-2.0428,-2.0165,-2.037,-2.0205,-1.9779,-2.0035,-1.9907,-1.954,-1.9626,-1.9968,-2.0256,-2.0172,-2.0363,-2.086,-2.0495,-2.0143,-1.9862,-1.9308,-1.9033,-1.9033,-1.8768,-1.851,-1.8239,-1.7825,-1.8007,-1.8452,-1.8362,-1.835,-1.8566,-1.8602,-1.8544,-1.863,-1.8738,-1.8837,-1.8887,-1.8984,-1.9093,-1.9093,-1.9131,-1.9105,-1.9131,-1.9184,-1.9249,-1.9302,-1.9486,-1.9591,-1.9656,-1.9734,-1.9773,-1.9798,-1.9798,-1.9875,-2.0029,-2.0205,-2.0399,-2.0633,-2.0602,-2.0274,-1.9828,-1.9867,-1.9836,-1.9208,-1.9075,-1.9065,-1.9093,-1.9097,-1.9097,-1.9116,-1.9116,-1.9116,-1.9116,-1.9116,-1.9116,-1.9116,-1.9116,-1.9116,-1.9116,-1.9116,-1.9116,-1.9176,-1.9232,-1.9339,-1.9376,-1.9413,-1.9527,-1.9657,-1.9654,-1.9744,-1.9693,-1.9693,-1.9874,-2.0137,-2.0481,-2.0747,-2.0566,-2.0549,-2.0369,-2.0394,-2.0514,-2.0369,-2.0292,-2.0292,-2.0292,-2.0292,-2.0292,-2.0292,-2.0292,-2.0292,-2.0292,-2.0292,-2.0292,-2.0292,-2.0292,-2.0337,-2.0419,-2.0406,-2.0365,-2.0589,-2.0531,-2.0039,-2.0267,-2.0095,-1.9783,-1.9778,-1.9848,-1.999,-2.0034,-2.0339,-2.0715,-2.0317,-2.0276,-1.9931,-1.9237,-1.8837,-1.8859,-1.8544,-1.8429,-1.832,-1.8129,-1.8383,-1.8874,-1.876,-1.8758,-1.8941,-1.9013,-1.9013,-1.9013,-1.9013,-1.9013,-1.9013,-1.9013,-1.9013,-1.9013,-1.9013,-1.9013,-1.9013,-1.9052,-1.9143,-1.9208,-1.9342,-1.9473,-1.9591,-1.9656,-1.9734,-1.9798,-1.9798,-1.9798,-1.985,-2.0055,-2.0207,-2.0281,-2.0539,-2.0555,-2.0059,-2.01,-1.9712,-1.9312,-1.9101,-1.8901,-1.8882,-1.8865,-1.8889,-1.9116,-1.9116,-1.9116,-1.9116,-1.9116,-1.9116,-1.9116,-1.9116,-1.9116,-1.9116,-1.9116,-1.9116,-1.912,-1.9191,-1.9228,-1.9284,-1.9321,-1.9339,-1.9435,-1.9395,-1.9376,-1.9362,-1.9417,-1.9508,-1.9675,-2.0035,-2.0227,-2.096,-2.0934,-2.06,-2.0626,-2.0797,-2.0531,-2.0403,-2.0394,-2.0309,-2.0343,-2.036,-2.0335,-2.0292,-2.0292,-2.0292,-2.0292,-2.0292,-2.0292,-2.0292,-2.0292,-2.0337,-2.0311,-2.0367,-2.0613,-2.0722,-2.0375,-2.0668,-2.0479,-2.0122,-2.0021,-2.0076,-1.9746,-2.0036,-2.0369,-2.0488,-2.045,-2.0213,-1.9729,-1.9008,-1.8598,-1.8526,-1.827,-1.8335,-1.8804,-1.8521,-1.8742,-1.9027,-1.9023,-1.9001,-1.9013,-1.9013,-1.9013,-1.9013,-1.9013,-1.9013,-1.9013,-1.9013,-1.9013,-1.9013,-1.9013,-1.9013,-1.9013,-1.9013,-1.9052,-1.9131,-1.9249,-1.938,-1.9525,-1.963,-1.9708,-1.9798,-1.9798,-1.9798,-1.9798,-1.9798,-1.9798,-1.9952,-2.062,-2.058,-2.0351,-2.0171,-1.9913,-1.939,-1.9022,-1.8838,-1.8683,-1.8705,-1.8832,-1.9089,-1.9227,-1.9329,-1.9246,-1.9246,-1.913,-1.9116,-1.9116,-1.9116,-1.9116,-1.9116,-1.9116,-1.9116,-1.9134,-1.9191,-1.9228,-1.9265,-1.9265,-1.925,-1.925,-1.9213,-1.9153,-1.9176,-1.9325,-1.9457,-1.9591,-1.9752,-2.1328,-2.1319,-2.1251,-2.1097,-2.0891,-2.0797,-2.0737,-2.0775,-2.0403,-2.048,-2.0694,-2.0437,-2.0292,-2.0292,-2.0292,-2.0292,-2.0292,-2.0292,-2.0292,-2.0292,-2.0292,-2.0292,-2.0382,-2.06,-2.0756,-2.0998,-2.1174,-2.1037,-2.0607,-2.0695,-2.053,-2.0283,-2.0098,-2.0142,-2.0173,-1.9694,-1.9402,-1.9222,-1.8518,-1.8075,-1.7924,-1.7933,-1.8302,-1.9015,-1.8614,-1.8788,-1.9313,-1.9213,-1.9013,-1.9013,-1.9013,-1.8987,-1.896,-1.896,-1.9013,-1.9013,-1.9013,-1.9013,-1.9013,-1.9013,-1.9013,-1.9013,-1.9013,-1.9013,-1.9066,-1.9198,-1.9342,-1.946,-1.963,-1.9747,-1.9798,-1.9773,-1.9773,-1.9798,-1.9798,-1.9798,-1.985,-2.0004,-2.0165,-1.9993,-2.0093,-2.0117,-1.9506,-1.9075,-1.9015,-1.9008,-1.9104,-1.9378,-1.9737,-1.9787,-1.9797,-1.9628,-1.9435,-1.9261,-1.9116,-1.9116,-1.9116,-1.9116,-1.9116,-1.9134,-1.9134,-1.9116,-1.9134,-1.9209,-1.9191,-1.9172,-1.9157,-1.9157,-1.9139,-1.9134,-1.9139,-1.9157,-1.9291,-1.942,-1.942,-2.0614,-2.1216,-2.0855,-2.0855,-2.1079,-2.072,-2.0574,-2.0549,-2.0377,-2.0394,-2.048,-2.0377,-2.0292,-2.0292,-2.0292,-2.0292,-2.0292,-2.0292,-2.0292,-2.0292,-2.0292,-2.0292,-2.0337,-2.0564,-2.0744,-2.0952,-2.1248,-2.1324,-2.0845,-2.0989,-2.0906,-2.0503,-2.0085,-2.0177,-2.0484,-1.992,-1.9402,-1.9155,-1.8531,-1.7971,-1.7827,-1.7847,-1.8312,-1.8563,-1.8807,-1.9026,-1.9327,-1.9218,-1.8959,-1.8901,-1.8701,-1.8572,-1.8602,-1.8801,-1.8987,-1.8987,-1.8987,-1.9013,-1.9013,-1.9013,-1.9013,-1.9013,-1.9037,-1.9013,-1.9025,-1.9131,-1.9287,-1.9408,-1.9565,-1.9682,-1.9682,-1.9708,-1.9708,-1.9708,-1.9759,-1.9798,-1.9798,-1.9798,-1.9788,-1.9772,-1.9883,-1.9812,-1.9374,-1.9126,-1.9172,-1.9261,-1.944,-1.9825,-2.0267,-2.0056,-1.9884,-1.9686,-1.9421,-1.9261,-1.9116,-1.9116,-1.9116,-1.9116,-1.9101,-1.912,-1.9153,-1.9134,-1.9172,-1.9228,-1.9191,-1.9116,-1.9116,-1.912,-1.9101,-1.9116,-1.912,-1.9139,-1.9191,-1.9228,-1.9246,-1.9822,-2.0868,-2.0246,-2.0369,-2.085,-2.0429,-2.0167,-2.0137,-2.0192,-2.0246,-2.0258,-2.0281,-2.0292,-2.0292,-2.0292,-2.0292,-2.0292,-2.0292,-2.0292,-2.0292,-2.0292,-2.0292,-2.0382,-2.0473,-2.0654,-2.0789,-2.1015,-2.1221,-2.1187,-2.1229,-2.1062,-2.0796,-2.0314,-2.0406,-2.0888,-2.0273,-2.009,-1.9729,-1.9136,-1.8527,-1.8086,-1.8012,-1.8164,-1.8385,-1.8882,-1.9157,-1.9381,-1.9043,-1.876,-1.8566,-1.8316,-1.8054,-1.8034,-1.8483,-1.8827,-1.8854,-1.8907,-1.8987,-1.9037,-1.9206,-1.9266,-1.9266,-1.9287,-1.9351,-1.9338,-1.9441,-1.9315,-1.9405,-1.9539,-1.9591,-1.9591,-1.963,-1.963,-1.9642,-1.9734,-1.9798,-1.9798,-1.9798,-1.9798,-1.98,-1.9798,-1.9674,-1.9395,-1.9381,-1.9438,-1.9544,-1.9716,-1.9997,-2.0301,-1.9803,-1.9593,-1.9503,-1.9334,-1.9179,-1.9116,-1.9116,-1.9116,-1.9116,-1.9101,-1.912,-1.9139,-1.9153,-1.9209,-1.9209,-1.9172,-1.9116,-1.9116,-1.9116,-1.9116,-1.9116,-1.9116,-1.9116,-1.9153,-1.9153,-1.9172,-1.9541,-2.0013,-1.9925,-1.9798,-1.9637,-1.9774,-1.9718,-1.9484,-1.9764,-2.0063,-2.0011,-2.0163,-2.0192,-2.0201,-2.0292,-2.0292,-2.0292,-2.0292,-2.0292,-2.0292,-2.0292,-2.0292,-2.0292,-2.0292,-2.0518,-2.0654,-2.0744,-2.1015,-2.1221,-2.1425,-2.1568,-2.133,-2.0869,-2.0799,-2.1339,-2.0604,-2.0145,-2.014,-1.9311,-1.8397,-1.7868,-1.7929,-1.8303,-1.8611,-1.8673,-1.8754,-1.9119,-1.8799,-1.8395,-1.8046,-1.7948,-1.7702,-1.7495,-1.7891,-1.8147,-1.8375,-1.8655,-1.9025,-1.9107,-1.9372,-1.9688,-1.9772,-2.0033,-2.0322,-2.0109,-1.9879,-1.966,-1.9419,-1.9512,-1.9512,-1.9499,-1.9604,-1.9656,-1.9656,-1.9656,-1.9734,-1.9747,-1.9747,-1.9747,-1.9773,-1.9773,-1.9798,-1.9686,-1.9711,-1.9749,-1.9864,-2.0001,-2.0222,-2.0284,-1.9822,-1.9245,-1.9101,-1.9147,-1.9008,-1.9116,-1.9116,-1.9126,-1.913,-1.9116,-1.912,-1.9157,-1.9191,-1.9153,-1.9153,-1.9116,-1.9116,-1.9116,-1.9116,-1.9116,-1.9116,-1.9116,-1.9116,-1.9116,-1.913,-1.9232,-1.7074,-1.8142,-1.7918,-1.7959,-1.8059,-1.803,-1.7885,-1.7916,-1.841,-1.8878,-1.9087,-1.9068,-1.9217,-1.9492,-1.9965,-2.0292,-2.0292,-2.0292,-2.0292,-2.0292,-2.0292,-2.0292,-2.0292,-2.0292,-2.0382,-2.0473,-2.0609,-2.0744,-2.1069,-2.1338,-2.1562,-2.1577,-2.12,-2.1065,-2.1531,-2.0918,-2.0778,-2.0484,-1.9786,-1.8954,-1.8469,-1.8202,-1.8186,-1.8503,-1.8425,-1.8598,-1.863,-1.8405,-1.7937,-1.756,-1.735,-1.7011,-1.6864,-1.7234,-1.7789,-1.8585,-1.879,-1.9105,-1.9425,-1.9684,-1.9977,-2.0213,-2.0454,-2.0406,-2.0217,-2.0072,-1.9803,-1.9336,-1.9328,-1.9342,-1.9302,-1.9394,-1.942,-1.9447,-1.9565,-1.9591,-1.963,-1.9682,-1.9682,-1.9708,-1.9747,-1.9773,-1.9798,-1.9786,-1.9773,-1.9812,-1.9902,-2.0065,-2.0134,-1.9932,-1.9304,-1.8672,-1.874,-1.8798,-1.8988,-1.9116,-1.9169,-1.9169,-1.9159,-1.9163,-1.9191,-1.9209,-1.9211,-1.9182,-1.9153,-1.9134,-1.9116,-1.9116,-1.9116,-1.9116,-1.9116,-1.9203,-1.9333,-1.9609,-1.9682,-1.4695,-1.5778,-1.5927,-1.6222,-1.6587,-1.6334,-1.6245,-1.6271,-1.7037,-1.7525,-1.777,-1.7948,-1.828,-1.8834,-1.9629,-2.0147,-2.0292,-2.0292,-2.0292,-2.0292,-2.0292,-2.0292,-2.0292,-2.0292,-2.0292,-2.0292,-2.0473,-2.0654,-2.0763,-2.0926,-2.1149,-2.1443,-2.1183,-2.1129,-2.1202,-2.1025,-2.0796,-2.0549,-2.0051,-1.9532,-1.9125,-1.8684,-1.8427,-1.8366,-1.8339,-1.8359,-1.821,-1.8005,-1.7578,-1.6984,-1.6736,-1.6427,-1.6205,-1.6675,-1.7403,-1.8198,-1.8678,-1.9321,-1.9797,-2.0163,-2.0413,-2.0694,-2.0935,-2.0959,-2.0434,-2.0241,-1.993,-1.9458,-1.9283,-1.9233,-1.9182,-1.9223,-1.9302,-1.9368,-1.942,-1.9447,-1.9486,-1.9617,-1.9682,-1.9734,-1.9773,-1.9798,-1.9798,-1.9798,-1.9798,-1.9798,-1.9863,-1.9902,-1.9776,-1.9628,-1.9024,-1.8275,-1.8579,-1.8759,-1.9059,-1.92,-1.9243,-1.9339,-1.9343,-1.9367,-1.9492,-1.9467,-1.9444,-1.9357,-1.9197,-1.9134,-1.9116,-1.9116,-1.9116,-1.9174,-1.9246,-1.9435,-1.9638,-1.9957,-2.0088,-1.3133,-1.3191,-1.4569,-1.5185,-1.5252,-1.5483,-1.5425,-1.5172,-1.6037,-1.6231,-1.6272,-1.7163,-1.8002,-1.8457,-1.9163,-1.9874,-2.0246,-2.0292,-2.0292,-2.0292,-2.0292,-2.0292,-2.0292,-2.0292,-2.0292,-2.0292,-2.0382,-2.0518,-2.0593,-2.0508,-2.0651,-2.0797,-2.088,-2.0817,-2.0805,-2.0778,-2.0594,-2.042,-2.0199,-2.004,-1.9652,-1.9295,-1.8986,-1.8636,-1.8301,-1.7964,-1.7611,-1.7579,-1.7336,-1.6586,-1.6498,-1.6229,-1.6067,-1.6347,-1.7001,-1.7765,-1.8578,-1.9317,-1.9991,-2.0701,-2.1206,-2.1452,-2.162,-2.1632,-2.1067,-2.0706,-2.0298,-1.9763,-1.9455,-1.9189,-1.918,-1.9235,-1.9385,-1.9289,-1.9342,-1.9447,-1.9512,-1.9668,-1.9734,-1.9759,-1.9773,-1.9798,-1.9798,-1.9798,-1.9798,-1.9798,-1.9723,-1.975,-1.9116,-1.8848,-1.8366,-1.7991,-1.8421,-1.8768,-1.9215,-1.9405,-1.9646,-1.9798,-1.9874,-1.9889,-1.9948,-1.9846,-1.9469,-1.9396,-1.9222,-1.9159,-1.9217,-1.9478,-1.9595,-1.9391,-1.9435,-1.9798,-2.0108,-2.0413,-2.0456,-1.2894,-1.2856,-1.348,-1.3673,-1.3678,-1.3819,-1.3759,-1.387,-1.4661,-1.512,-1.5177,-1.6841,-1.7451,-1.7537,-1.8527,-1.9417,-1.9828,-1.9874,-2.0056,-2.0246,-2.0292,-2.0292,-2.0292,-2.0292,-2.0292,-2.0292,-2.0292,-2.0337,-2.0393,-2.0295,-2.0246,-2.033,-2.0409,-2.0559,-2.0501,-2.0622,-2.0668,-2.0668,-2.0655,-2.0638,-2.0426,-1.9663,-1.9242,-1.9084,-1.8072,-1.7877,-1.7812,-1.7599,-1.7311,-1.7039,-1.6794,-1.6463,-1.6154,-1.6328,-1.6806,-1.7567,-1.8375,-1.9101,-2.0077,-2.0865,-2.1506,-2.1885,-2.2041,-2.195,-2.1398,-2.0918,-2.0353,-1.9929,-1.9691,-1.9486,-1.91,-1.9371,-1.9582,-1.9356,-1.9289,-1.9394,-1.9512,-1.9642,-1.972,-1.9708,-1.9747,-1.9798,-1.9798,-1.9798,-1.9798,-1.9798,-1.9698,-1.9497,-1.8918,-1.8485,-1.8147,-1.7967,-1.8372,-1.8727,-1.9158,-1.9599,-2.0028,-2.0245,-2.038,-2.0208,-2.0056,-1.9566,-1.9261,-1.9227,-1.943,-1.9609,-1.9812,-2.0088,-2.0016,-1.9624,-1.9856,-2.0349,-2.0645,-2.0898,-2.0898,-1.2807,-1.2807,-1.2807,-1.2807,-1.2807,-1.2807,-1.2807,-1.2932,-1.3558,-1.3932,-1.4209,-1.579,-1.638,-1.6367,-1.7434,-1.8675,-1.9247,-1.9574,-1.9936,-2.0147,-2.0292,-2.0292,-2.0292,-2.0292,-2.0292,-2.0292,-2.0275,-2.0266,-2.0131,-2.0179,-1.9896,-1.9682,-1.9695,-1.9846,-2.014,-2.042,-2.0686,-2.0879,-2.0934,-2.1126,-2.1016,-2.0283,-1.9687,-1.9534,-1.8597,-1.8128,-1.8128,-1.7935,-1.7632,-1.7401,-1.716,-1.6899,-1.6633,-1.66,-1.6969,-1.7592,-1.8263,-1.8811,-1.9652,-2.0506,-2.1132,-2.1295,-2.1396,-2.1381,-2.1244,-2.0855,-2.037,-2.0454,-2.0177,-1.9832,-1.9324,-1.957,-1.9564,-1.9303,-1.922,-1.9302,-1.942,-1.9512,-1.9591,-1.9604,-1.9708,-1.9798,-1.9798,-1.9798,-1.9798,-1.9798,-1.9761,-1.9522,-1.8995,-1.8653,-1.8472,-1.8346,-1.8408,-1.8737,-1.9084,-1.9355,-1.9726,-2.0526,-2.0558,-2.0196,-1.9915,-1.953,-1.9453,-1.9675,-1.9901,-2.0125,-2.0277,-2.0393,-2.0103,-1.9691,-2.0233,-2.0901,-2.1125,-2.1349,-2.1443,-1.2807,-1.2807,-1.2807,-1.2807,-1.2807,-1.2807,-1.2807,-1.2813,-1.2932,-1.3008,-1.3176,-1.4022,-1.4642,-1.5225,-1.6448,-1.7468,-1.8488,-1.9146,-1.9637,-1.9965,-2.0238,-2.0292,-2.0292,-2.0292,-2.0292,-2.0292,-2.0275,-2.0138,-1.9811,-1.9685,-1.9341,-1.9118,-1.9112,-1.912,-1.9335,-1.9393,-1.9806,-2.0429,-2.0576,-2.1108,-2.131,-2.0805,-2.0457,-2.0026,-1.9191,-1.865,-1.8586,-1.832,-1.8036,-1.7844,-1.7376,-1.7145,-1.7016,-1.6735,-1.6934,-1.7455,-1.8228,-1.8693,-1.9056,-1.9748,-2.0107,-2.0409,-2.0656,-2.0621,-2.0859,-2.0672,-2.0493,-2.06,-2.0744,-2.0346,-2.0021,-1.9844,-1.9718,-1.9516,-1.9458,-1.9381,-1.9499,-1.9486,-1.9565,-1.9617,-1.9708,-1.9798,-1.9798,-1.9798,-1.9798,-1.9798,-1.9798,-1.9522,-1.9033,-1.892,-1.8805,-1.8576,-1.8557,-1.8902,-1.917,-1.906,-1.945,-2.0365,-2.0721,-2.0323,-2.0227,-2.01,-2.0097,-2.0182,-2.0358,-2.0552,-2.0581,-2.0596,-2.0582,-2.0648,-2.093,-2.143,-2.1619,-2.1844,-2.2024,-1.2807,-1.2807,-1.2807,-1.2807,-1.2807,-1.2807,-1.2807,-1.2807,-1.2818,-1.284,-1.3073,-1.3656,-1.3979,-1.4551,-1.5217,-1.6245,-1.7105,-1.8038,-1.8619,-1.9309,-1.9866,-2.0238,-2.0292,-2.0246,-2.0292,-2.0292,-2.0275,-2.0249,-2.0129,-1.965,-1.9454,-1.9244,-1.895,-1.8958,-1.9447,-1.9888,-2.064,-2.0649,-2.0998,-2.1475,-2.163,-2.12,-2.0787,-2.0539,-1.9622,-1.9136,-1.9109,-1.876,-1.8513,-1.844,-1.7999,-1.7642,-1.7513,-1.7215,-1.6986,-1.7279,-1.7731,-1.7833,-1.807,-1.8489,-1.9067,-1.9606,-1.9998,-2.0063,-2.0375,-2.0373,-2.0488,-2.0717,-2.0913,-2.0605,-2.049,-2.0701,-2.0622,-2.0246,-2.0056,-1.9849,-1.9826,-1.9645,-1.9617,-1.9642,-1.9708,-1.9695,-1.9669,-1.9579,-1.9579,-1.9721,-1.9759,-1.9547,-1.9133,-1.9271,-1.9271,-1.8894,-1.8792,-1.9131,-1.9318,-1.9233,-1.9466,-2.0261,-2.0579,-2.0415,-2.0379,-2.0388,-2.0342,-2.0229,-2.0597,-2.0962,-2.1125,-2.1307,-2.1612,-2.1815,-2.1677,-2.1698,-2.1886,-2.2294,-2.2805,-1.2716,-1.2651,-1.278,-1.2764,-1.2716,-1.2775,-1.2807,-1.2807,-1.2813,-1.2899,-1.3019,-1.3342,-1.3542,-1.3802,-1.4376,-1.5188,-1.5973,-1.6784,-1.7584,-1.8373,-1.9309,-1.9592,-1.9774,-2.0147,-2.0292,-2.0292,-2.0275,-2.0232,-2.0009,-1.971,-1.9428,-1.9183,-1.9079,-1.9247,-1.961,-2.0027,-2.0346,-2.041,-2.0932,-2.1423,-2.1495,-2.1337,-2.1062,-2.0689,-2.0173,-1.9577,-1.9531,-1.9329,-1.9017,-1.9017,-1.866,-1.8118,-1.7917,-1.7641,-1.7213,-1.7232,-1.7373,-1.751,-1.7706,-1.7876,-1.8519,-1.9121,-1.9353,-1.9507,-1.965,-1.9727,-1.9968,-2.029,-2.0734,-2.0579,-2.0402,-2.0747,-2.0544,-2.01,-1.9831,-1.9596,-1.9312,-1.9124,-1.9036,-1.9146,-1.9095,-1.9188,-1.9397,-1.9397,-1.9307,-1.9514,-1.9669,-1.9445,-1.9271,-1.9434,-1.9584,-1.9296,-1.9108,-1.9384,-1.9522,-1.9457,-1.9759,-2.0244,-2.0245,-2.0139,-2.025,-2.023,-2.0227,-2.0343,-2.0726,-2.1179,-2.1744,-2.2048,-2.1917,-2.1808,-2.1656,-2.1807,-2.2089,-2.2513,-2.2996,-1.263,-1.2474,-1.2667,-1.2689,-1.2495,-1.2732,-1.2807,-1.2807,-1.2807,-1.2818,-1.2818,-1.2872,-1.2986,-1.3226,-1.3662,-1.437,-1.5213,-1.5913,-1.6586,-1.7453,-1.8472,-1.8772,-1.9309,-1.982,-2.0192,-2.0292,-2.0266,-2.0163,-1.9742,-1.9564,-1.9307,-1.9123,-1.9226,-1.9395,-1.9556,-1.9651,-1.9876,-2.0332,-2.0857,-2.129,-2.147,-2.1366,-2.1319,-2.1053,-2.0594,-2.0191,-1.9989,-1.9705,-1.9384,-1.9081,-1.8576,-1.8311,-1.8064,-1.7934,-1.7597,-1.7404,-1.7542,-1.7545,-1.7681,-1.7794,-1.7964,-1.8371,-1.8269,-1.8462,-1.879,-1.9126,-1.9489,-1.9814,-2.0189,-1.9884,-1.9687,-1.962,-1.953,-1.9243,-1.8981,-1.8714,-1.8452,-1.828,-1.8216,-1.8137,-1.7998,-1.8135,-1.8673,-1.8806,-1.9052,-1.937,-1.9539,-1.9553,-1.9405,-1.9482,-1.9619,-1.9684,-1.9572,-1.9685,-1.9724,-1.9611,-1.9687,-2.0067,-1.9775,-1.9682,-1.985,-2.0116,-2.0229,-2.0448,-2.085,-2.1338,-2.1882,-2.1989,-2.1831,-2.1729,-2.1816,-2.1902,-2.2235,-2.2302,-2.2659,-1.277,-1.2673,-1.278,-1.2721,-1.2678,-1.278,-1.2807,-1.2807,-1.2807,-1.2807,-1.2807,-1.2807,-1.2862,-1.2899,-1.3169,-1.3525,-1.4154,-1.4937,-1.5578,-1.6565,-1.778,-1.8488,-1.9117,-1.972,-2.0147,-2.0292,-2.0266,-2.0223,-2.0078,-1.9744,-1.9367,-1.9213,-1.929,-1.9376,-1.9497,-1.9506,-1.9887,-2.0305,-2.0854,-2.1238,-2.1472,-2.1496,-2.1467,-2.1209,-2.0979,-2.0594,-2.0136,-1.9884,-1.9604,-1.9219,-1.8777,-1.8512,-1.8513,-1.8202,-1.7834,-1.7464,-1.732,-1.7245,-1.7495,-1.7598,-1.7735,-1.794,-1.8008,-1.8042,-1.8361,-1.8687,-1.9044,-1.9309,-1.9616,-1.9447,-1.9404,-1.9319,-1.9254,-1.9094,-1.8828,-1.8572,-1.8335,-1.816,-1.804,-1.7622,-1.7457,-1.7601,-1.8103,-1.8511,-1.8774,-1.9168,-1.9394,-1.9447,-1.9486,-1.9512,-1.9604,-1.9682,-1.9773,-1.9798,-1.9798,-1.9724,-1.9736,-1.9761,-1.9572,-1.9497,-1.9737,-2.0016,-2.0232,-2.0465,-2.0755,-2.1351,-2.2024,-2.1903,-2.1546,-2.2061,-2.2235,-2.2264,-2.2309,-2.2396,-2.2563,-1.2753,-1.2646,-1.2775,-1.2807,-1.2807,-1.2807,-1.2807,-1.2807,-1.2807,-1.2813,-1.291,-1.291,-1.2953,-1.3109,-1.3244,-1.338,-1.36,-1.4315,-1.4874,-1.551,-1.7201,-1.7817,-1.8603,-1.9538,-2.0192,-2.0283,-2.0283,-2.0275,-2.0189,-1.9941,-1.9573,-1.9436,-1.9401,-1.9495,-1.9694,-1.9882,-2.0057,-2.0456,-2.0864,-2.1221,-2.1428,-2.1562,-2.1513,-2.1383,-2.1236,-2.0741,-2.0228,-2.0021,-1.9674,-1.932,-1.8926,-1.8715,-1.8632,-1.833,-1.8082,-1.7733,-1.7546,-1.7425,-1.7527,-1.7564,-1.7735,-1.7915,-1.8008,-1.8008,-1.811,-1.8361,-1.8496,-1.8664,-1.8988,-1.9177,-1.921,-1.9243,-1.9233,-1.9179,-1.8927,-1.8675,-1.8468,-1.826,-1.7872,-1.7368,-1.7278,-1.7374,-1.7655,-1.8052,-1.8425,-1.8726,-1.9013,-1.9237,-1.9316,-1.9382,-1.9512,-1.963,-1.9734,-1.9798,-1.9811,-1.9823,-1.9823,-1.9811,-1.9748,-1.971,-1.9798,-1.9901,-2.0105,-2.0331,-2.0569,-2.111,-2.1598,-2.145,-2.1285,-2.1796,-2.2194,-2.2204,-2.2288,-2.2582,-2.278,-1.2641,-1.2479,-1.2716,-1.2807,-1.2807,-1.2807,-1.2807,-1.2813,-1.2813,-1.2905,-1.305,-1.3098,-1.3195,-1.3394,-1.3491,-1.3596,-1.3724,-1.4052,-1.4333,-1.4418,-1.6236,-1.7149,-1.7762,-1.9072,-1.9662,-2.0005,-2.0169,-2.0129,-2.0138,-1.9992,-1.9819,-1.9742,-1.9742,-1.9881,-2.0086,-2.0245,-2.0369,-2.0513,-2.0863,-2.1195,-2.1383,-2.1562,-2.1678,-2.1649,-2.1365,-2.0961,-2.0539,-2.0154,-1.9729,-1.9338,-1.9026,-1.8806,-1.8687,-1.8449,-1.8256,-1.7963,-1.7741,-1.7549,-1.7496,-1.7529,-1.7725,-1.7862,-1.7964,-1.8008,-1.8076,-1.81,-1.8202,-1.8236,-1.8529,-1.8563,-1.8596,-1.8596,-1.8596,-1.8596,-1.8452,-1.8268,-1.815,-1.7898,-1.7577,-1.7123,-1.689,-1.6983,-1.7098,-1.7483,-1.769,-1.8084,-1.8521,-1.8854,-1.9086,-1.918,-1.9403,-1.9548,-1.9681,-1.9797,-1.9874,-1.9886,-1.9886,-1.9861,-1.9886,-1.9811,-1.9823,-1.9888,-1.9952,-2.0129,-2.0299,-2.0576,-2.0886,-2.0737,-2.0804,-2.1253,-2.1612,-2.1888,-2.217,-2.2457,-2.2806,-1.278,-1.2684,-1.2791,-1.2807,-1.2807,-1.2807,-1.2807,-1.2813,-1.3001,-1.3055,-1.3098,-1.3147,-1.3292,-1.3539,-1.3732,-1.3813,-1.3726,-1.3993,-1.4064,-1.4492,-1.5651,-1.6351,-1.6593,-1.818,-1.8859,-1.9065,-1.9321,-1.969,-1.967,-1.9819,-2.0101,-2.0101,-2.0121,-2.0243,-2.032,-2.0473,-2.0609,-2.0645,-2.097,-2.1195,-2.1186,-2.1508,-2.1678,-2.1668,-2.1476,-2.1101,-2.075,-2.0429,-1.9925,-1.9421,-1.9265,-1.9173,-1.9155,-1.877,-1.843,-1.8119,-1.777,-1.7534,-1.742,-1.7461,-1.7623,-1.7784,-1.7896,-1.7964,-1.8008,-1.8008,-1.8008,-1.8008,-1.8008,-1.8008,-1.8008,-1.8008,-1.8008,-1.8008,-1.8008,-1.792,-1.7842,-1.7588,-1.7305,-1.6975,-1.6625,-1.6607,-1.6754,-1.6875,-1.7016,-1.7423,-1.7968,-1.8383,-1.8697,-1.8919,-1.9305,-1.9482,-1.9638,-1.9756,-1.996,-2.0137,-2.025,-2.0188,-2.0214,-2.0062,-1.9874,-1.9849,-1.9888,-1.9889,-2.0001,-2.0204,-2.0227,-2.0053,-2.0225,-2.0677,-2.1091,-2.1407,-2.1684,-2.1955,-2.2426,-1.2807,-1.2807,-1.2807,-1.2807,-1.2807,-1.2807,-1.2807,-1.2813,-1.3001,-1.3152,-1.3298,-1.3394,-1.3582,-1.3823,-1.4022,-1.4022,-1.3915,-1.413,-1.4178,-1.4469,-1.5072,-1.5718,-1.6546,-1.7336,-1.7795,-1.8071,-1.8283,-1.8595,-1.8827,-1.9282,-1.9567,-1.9729,-1.9965,-2.0337,-2.0419,-2.0645,-2.0736,-2.0862,-2.115,-2.1195,-2.1141,-2.1463,-2.1687,-2.1687,-2.1577,-2.1202,-2.0781,-2.0475,-2.0026,-1.9549,-1.9292,-1.9274,-1.9173,-1.8889,-1.8522,-1.8137,-1.777,-1.7427,-1.7316,-1.7314,-1.7486,-1.7681,-1.7784,-1.7862,-1.8008,-1.8008,-1.8008,-1.8008,-1.8008,-1.8008,-1.8008,-1.8008,-1.8008,-1.8008,-1.8008,-1.7969,-1.793,-1.7822,-1.7539,-1.7259,-1.6917,-1.6717,-1.6799,-1.6811,-1.6875,-1.6758,-1.7313,-1.775,-1.809,-1.8729,-1.9096,-1.9557,-1.9803,-2.0271,-2.0738,-2.0815,-2.0805,-2.0717,-2.0566,-2.0264,-2.0012,-1.9874,-1.9812,-1.9762,-1.9686,-1.9622,-1.9585,-1.9585,-1.9686,-2.0067,-2.0497,-2.0919,-2.1188,-2.1431,-2.1855,-1.2775,-1.2807,-1.2807,-1.2807,-1.2807,-1.2807,-1.2807,-1.2807,-1.3001,-1.3244,-1.3443,-1.3738,-1.407,-1.4256,-1.4298,-1.4298,-1.4298,-1.4286,-1.4274,-1.4459,-1.5121,-1.5283,-1.5751,-1.6539,-1.6976,-1.725,-1.7398,-1.7405,-1.749,-1.8126,-1.8696,-1.888,-1.9484,-2.0229,-2.0365,-2.0456,-2.0311,-2.032,-2.0555,-2.097,-2.1239,-2.1562,-2.1642,-2.1687,-2.1577,-2.1202,-2.0759,-2.0338,-1.9989,-1.9641,-1.9292,-1.9292,-1.9173,-1.8926,-1.8531,-1.8137,-1.7734,-1.7427,-1.7209,-1.7201,-1.7407,-1.7579,-1.7647,-1.7784,-1.793,-1.8008,-1.8008,-1.8008,-1.8008,-1.8008,-1.8008,-1.8008,-1.8008,-1.8008,-1.8008,-1.8008,-1.7998,-1.7988,-1.7744,-1.7461,-1.723,-1.6946,-1.6812,-1.6809,-1.6642,-1.6487,-1.6651,-1.7006,-1.7512,-1.84,-1.9052,-1.9709,-2.0274,-2.0807,-2.13,-2.1465,-2.135,-2.1167,-2.0978,-2.0526,-2.0137,-1.9962,-1.9771,-1.9552,-1.9463,-1.9463,-1.9411,-1.9402,-1.9501,-1.9654,-1.9939,-2.0372,-2.0522,-2.0822,-2.1209,-1.2592,-1.2807,-1.2807,-1.2807,-1.2807,-1.2807,-1.2807,-1.2813,-1.3001,-1.3147,-1.3292,-1.369,-1.4076,-1.4298,-1.4298,-1.4298,-1.4298,-1.4298,-1.4298,-1.4436,-1.4675,-1.4669,-1.4908,-1.5697,-1.6299,-1.6515,-1.6604,-1.6762,-1.6597,-1.7191,-1.7615,-1.7662,-1.7762,-1.8226,-1.8373,-1.865,-1.901,-1.9255,-1.953,-1.9812,-2.0628,-2.1042,-2.1597,-2.1577,-2.1401,-2.0998,-2.0576,-2.0159,-1.9797,-1.9467,-1.9292,-1.9292,-1.9164,-1.8935,-1.8559,-1.8238,-1.7825,-1.7448,-1.7252,-1.7218,-1.7417,-1.7486,-1.7588,-1.775,-1.7896,-1.7998,-1.8008,-1.8008,-1.8008,-1.8008,-1.8008,-1.8008,-1.8008,-1.8008,-1.8008,-1.8008,-1.7998,-1.7998,-1.79,-1.7666,-1.7432,-1.7119,-1.6809,-1.6663,-1.6347,-1.6356,-1.6654,-1.7021,-1.7341,-1.8135,-1.8942,-1.963,-2.0373,-2.0967,-2.1325,-2.1873,-2.1889,-2.17,-2.138,-2.0878,-2.0426,-2.0037,-1.982,-1.975,-1.9596,-1.9506,-1.9415,-1.9568,-1.9476,-1.9607,-1.9613,-1.9797,-1.9978,-2.0207,-2.0638]}]]